GFSSE_925_spd_000.txt.gz
Wind_Speed
12 17 19 23 23 22 19 21 23 21 21 25 24 23 23 20 19 17 15 14 12 11 9 9 10 9 9 8 7 6 7 7 10 9 7 9 9 8 8 7 7 8 9
17 14 19 22 21 20 19 20 21 20 20 23 23 23 23 20 17 15 13 12 11 9 8 8 9 9 8 7 6 5 5 6 8 8 8 6 5 3 6 6 7 8 9
15 17 18 20 18 18 17 20 19 19 20 22 22 23 22 18 15 13 10 10 9 7 7 7 8 7 6 5 5 4 4 5 5 6 5 4 5 7 7 7 8 9 10
16 18 21 19 17 17 19 21 21 22 24 23 21 21 18 16 14 12 10 8 7 6 5 6 5 4 4 4 4 4 3 2 3 5 3 3 5 5 6 6 8 9 11
18 20 20 18 19 19 19 21 22 25 26 19 17 17 17 15 13 10 8 7 6 5 4 3 3 3 4 4 5 5 3 3 1 3 2 2 3 4 4 5 7 9 10
20 20 20 20 20 19 18 19 21 23 23 15 15 14 14 12 10 7 6 5 3 2 1 2 3 4 5 6 6 5 4 2 3 1 3 3 2 3 4 5 7 9 10
20 19 20 20 19 18 18 18 19 19 18 17 14 13 13 11 8 6 5 3 1 1 2 3 5 5 6 6 6 5 4 4 3 3 4 5 3 3 5 6 8 9 8
20 19 18 18 17 18 18 20 20 19 18 16 13 12 11 9 7 5 3 1 2 2 3 5 6 7 7 7 6 5 5 4 5 5 4 6 6 4 5 8 8 8 11
19 18 17 18 17 19 20 20 19 18 16 15 13 11 10 7 5 4 3 3 3 3 5 6 7 7 7 6 5 5 6 6 7 4 4 7 7 6 6 9 9 9 10
18 17 19 18 18 19 17 16 16 16 15 15 13 11 8 5 4 4 4 5 5 6 7 7 7 6 6 6 4 5 5 5 7 7 6 6 6 9 9 9 10 11 11
18 17 18 19 18 18 16 14 13 14 14 13 11 8 6 6 5 6 6 8 7 6 7 6 6 6 7 6 4 3 5 6 7 8 8 8 9 10 11 11 11 11 12
20 19 20 19 18 18 16 15 15 14 14 14 12 10 8 8 7 8 9 7 8 5 4 3 4 5 6 7 7 8 9 8 7 8 8 8 8 11 12 11 12 12 14
25 21 21 22 20 19 18 17 16 15 14 13 12 12 10 8 7 5 4 4 1 4 3 3 5 4 5 7 8 9 11 10 9 10 10 11 12 12 12 13 13 13 14
25 26 24 22 21 21 20 18 16 16 17 16 15 14 13 10 7 4 3 3 4 6 4 4 7 6 7 11 12 11 10 9 11 12 12 11 10 11 12 14 15 14 15
25 27 25 24 23 22 21 18 17 17 17 15 15 16 15 13 8 5 4 5 6 6 6 8 8 8 10 12 12 13 12 11 10 9 9 10 10 13 12 14 14 15 16
26 27 25 25 24 23 23 21 18 18 17 16 15 14 15 13 12 9 8 8 8 8 9 10 10 11 11 12 11 10 11 11 11 11 9 10 11 13 15 14 15 16 17
29 29 28 27 23 23 23 17 17 17 17 16 16 15 15 14 12 11 10 10 8 8 9 10 10 11 10 8 8 9 12 12 11 11 10 9 9 11 13 15 15 16 17
28 31 29 26 25 23 23 20 19 18 18 21 20 18 15 14 13 12 12 11 9 8 9 9 8 8 8 10 12 13 12 11 9 9 9 11 11 11 14 13 15 16 17
31 30 31 28 27 25 21 20 19 16 14 14 15 15 14 14 12 12 13 12 9 9 9 7 6 7 10 11 13 14 13 11 9 7 8 9 9 12 14 15 13 16 18
33 32 31 30 28 23 21 20 19 17 17 16 15 13 12 13 13 12 11 8 8 7 5 5 6 8 10 11 13 14 13 6 11 6 10 10 9 7 8 13 13 11 16
33 33 31 31 31 27 26 24 21 20 19 18 17 15 14 11 10 10 7 6 5 5 6 6 7 7 8 7 8 13 5 1 9 9 7 9 10 11 10 5 5 8 11
34 35 33 32 29 29 28 25 23 22 18 17 15 14 13 12 12 8 6 6 6 6 6 7 7 6 4 4 2 2 3 2 3 8 9 10 15 11 9 7 5 6 7
30 35 35 35 33 32 28 26 21 15 14 13 16 13 12 11 10 7 6 7 5 6 6 5 6 5 4 3 2 1 1 1 5 3 4 8 17 15 14 10 9 9 9
33 37 36 34 35 35 30 28 26 22 19 19 15 15 14 13 11 8 7 6 7 7 6 7 4 4 5 3 2 2 2 1 1 3 4 7 15 15 15 15 14 11 11
33 36 36 35 35 36 33 30 29 25 21 16 15 15 16 16 13 11 11 9 9 9 8 5 5 5 6 4 3 3 3 2 2 2 3 7 13 12 12 15 13 12 14
31 35 36 37 36 35 32 29 29 27 23 19 17 15 16 18 15 15 15 13 9 11 8 6 6 6 6 6 6 5 5 4 4 4 3 3 5 7 15 16 13 11 15

GFSSE_925_spd_003.txt.gz
Wind_Speed
12 15 21 19 18 16 17 18 20 21 21 22 22 22 20 17 14 13 13 11 12 11 11 11 12 12 11 11 9 8 6 6 7 8 8 9 8 8 7 7 8 8 10
14 12 20 20 20 14 17 19 19 21 23 21 20 20 18 16 12 11 10 10 10 10 9 10 11 10 10 10 9 7 5 5 6 6 7 6 7 4 7 6 9 7 10
13 13 16 21 17 16 18 18 18 20 23 21 20 19 17 14 10 8 8 8 8 8 9 10 9 9 9 9 9 7 5 3 3 5 4 5 6 5 7 7 10 9 12
14 14 15 17 18 17 18 17 17 18 19 18 18 18 14 10 7 5 5 6 6 7 8 7 7 8 9 9 9 7 5 4 3 3 3 4 5 6 6 7 9 9 11
13 15 13 15 15 15 16 17 17 18 17 15 15 15 11 8 7 5 4 4 5 6 6 5 5 6 7 9 8 7 4 4 4 1 2 4 4 4 5 6 7 9 10
13 13 13 13 13 14 15 16 18 18 17 13 13 12 11 9 7 4 3 3 4 4 4 4 6 7 8 8 9 8 7 4 5 4 0 1 3 2 3 5 7 8 9
15 13 12 13 13 13 14 16 18 18 13 12 13 12 11 8 5 3 3 3 3 3 3 5 6 7 8 8 8 8 8 5 5 4 1 1 1 1 3 6 7 7 9
16 14 13 13 14 14 15 16 18 17 13 13 11 10 9 6 4 3 2 3 4 4 5 6 7 8 8 8 8 9 9 6 6 6 3 2 3 1 3 5 7 7 8
14 13 12 13 14 15 16 16 16 17 15 11 10 9 8 7 4 2 0 3 4 4 6 7 7 7 8 7 6 8 10 8 6 5 5 3 1 3 3 7 6 6 9
14 13 13 13 14 14 13 15 14 14 13 12 11 9 7 5 3 2 3 5 5 5 6 7 6 6 6 6 4 6 7 8 6 6 5 4 2 4 5 6 7 7 7
14 14 14 14 13 13 13 12 12 11 12 12 9 8 5 3 2 3 4 7 7 5 6 6 4 6 6 6 5 5 8 8 8 6 6 5 4 5 8 7 8 8 8
17 16 15 14 14 13 11 11 11 11 12 12 10 8 5 4 4 6 7 8 6 4 4 4 6 6 7 7 7 9 7 9 8 8 6 5 4 4 7 9 8 9 10
19 16 16 15 14 13 11 11 11 12 12 12 11 9 7 6 5 4 3 4 3 3 3 4 6 5 5 7 9 7 8 8 7 8 8 9 8 8 8 11 8 11 11
19 17 17 17 15 15 13 12 12 12 12 11 11 11 10 7 6 4 2 1 2 3 3 4 5 7 8 10 10 10 10 8 8 9 9 9 8 8 9 10 12 11 12
22 20 19 18 17 16 16 14 13 14 13 13 12 12 11 10 9 7 5 3 3 3 2 4 7 8 10 11 9 9 9 10 9 8 9 9 8 7 10 9 12 15 15
21 21 20 20 20 17 18 17 15 14 14 14 13 13 15 14 13 10 8 6 4 5 4 6 6 7 8 9 10 9 10 10 9 9 8 8 8 8 10 11 11 14 17
22 22 23 22 20 20 19 19 17 15 14 14 15 14 14 13 12 11 10 7 7 7 7 7 6 6 6 6 8 10 10 10 8 6 5 7 7 8 8 9 12 13 15
20 22 22 21 20 20 19 19 17 16 15 15 16 14 16 14 13 12 11 8 9 8 7 6 6 6 5 5 8 9 10 8 8 6 5 5 7 8 10 10 9 11 13
24 22 23 22 21 20 20 19 20 16 18 16 16 19 15 15 12 11 10 10 10 8 9 6 4 5 6 7 8 9 7 6 4 4 4 4 3 5 8 10 10 10 12
22 22 22 22 22 22 20 19 18 19 17 15 13 13 13 13 13 12 11 9 9 8 4 5 4 5 5 6 9 8 5 4 5 5 6 6 7 7 5 5 6 7 9
23 22 23 23 24 22 19 18 17 18 14 13 15 15 15 13 12 10 9 8 6 5 4 4 4 4 5 4 6 6 1 3 8 4 5 6 8 7 7 7 5 3 4
25 25 24 25 23 27 22 17 15 14 14 14 12 15 15 13 12 11 8 6 6 5 4 5 5 4 4 2 3 2 2 3 1 4 6 10 10 9 9 8 8 8 6
26 26 26 27 27 25 21 16 15 13 12 10 12 12 13 15 12 10 8 6 5 5 4 3 2 4 4 1 1 2 2 1 6 0 2 7 11 11 12 11 10 9 9
28 26 26 27 30 25 23 20 19 18 17 15 13 12 11 13 12 11 8 6 6 6 4 2 2 2 2 2 1 2 1 2 2 2 2 2 6 8 9 9 9 8 10
27 26 26 28 30 27 25 24 21 20 18 14 10 10 11 13 14 13 10 7 7 7 7 5 3 3 3 3 3 3 3 2 3 3 5 7 6 4 8 10 7 5 7
28 27 26 29 35 30 29 26 25 22 20 16 12 11 11 13 16 17 14 11 9 9 10 6 6 5 4 5 5 5 4 3 2 4 5 8 10 8 9 8 10 9 8

GFSSE_925_spd_006.txt.gz
Wind_Speed
17 19 17 19 19 19 21 19 20 22 21 21 22 21 17 16 16 15 14 15 13 14 14 15 14 13 14 14 12 10 8 7 7 9 9 9 8 6 5 6 7 9 10
18 17 17 18 16 17 19 19 19 20 19 19 19 17 15 14 14 14 12 13 12 12 13 13 12 13 14 12 11 10 8 5 4 6 5 7 7 6 5 6 5 9 11
16 17 17 16 14 17 16 16 17 20 18 17 17 14 13 12 12 12 11 10 11 11 11 10 11 12 12 11 10 10 6 6 3 4 6 6 6 7 7 7 8 12 14
19 20 18 14 13 15 15 15 16 17 15 15 13 13 11 8 8 9 9 9 8 9 8 8 10 10 10 9 9 8 7 6 2 3 2 5 7 7 7 10 8 11 11
18 18 14 14 13 13 13 13 15 15 14 14 13 11 8 6 6 7 7 8 8 7 7 8 8 8 8 9 9 9 7 6 4 3 2 3 6 6 6 8 8 11 8
18 15 13 13 12 13 13 14 16 14 13 13 13 10 8 6 6 5 6 7 6 5 5 6 6 7 7 7 9 10 7 4 4 4 2 4 5 4 6 7 8 8 9
18 15 13 14 13 14 15 17 17 15 13 13 12 11 9 7 4 5 5 4 4 4 4 5 6 7 7 7 7 8 8 5 4 3 1 2 4 4 6 6 7 8 9
18 16 14 13 14 15 16 18 19 14 12 11 11 10 7 5 2 3 2 4 3 3 5 6 7 7 7 6 6 7 7 7 5 4 4 2 2 4 6 7 7 7 8
17 15 14 13 12 14 15 17 17 13 10 10 9 8 6 4 2 1 1 2 3 4 5 5 5 6 7 6 5 5 6 8 4 5 3 3 1 4 4 8 7 6 8
17 16 14 13 14 14 13 14 13 12 11 9 8 7 6 4 2 2 2 4 5 3 4 4 4 4 5 6 5 6 7 5 5 3 2 3 2 4 6 8 8 7 9
16 15 15 15 14 15 14 12 11 11 10 10 8 7 4 3 2 2 4 5 5 2 3 4 3 4 4 6 7 9 7 5 5 4 3 1 1 4 8 8 9 9 8
18 16 16 15 15 14 13 12 11 11 11 10 9 6 4 3 3 3 4 5 3 1 3 3 5 5 6 5 7 8 7 9 6 4 1 2 1 3 7 9 9 10 10
19 18 16 16 14 14 13 12 12 12 11 12 10 8 6 5 3 3 2 1 0 3 1 2 3 3 5 6 6 7 8 9 7 6 4 5 4 5 7 9 9 11 11
20 18 18 17 15 15 12 13 12 12 12 11 10 9 9 7 5 3 3 2 1 2 2 3 4 4 5 7 8 8 8 7 8 8 6 7 3 4 9 10 11 10 11
20 19 19 18 16 16 14 13 12 12 12 11 10 10 10 9 7 5 4 4 4 4 3 5 6 6 7 7 8 8 8 9 8 8 7 9 6 4 7 9 10 11 12
20 20 19 19 18 17 16 14 14 12 12 12 12 11 12 10 8 7 6 6 6 6 4 4 6 7 8 8 7 8 9 9 8 8 7 7 8 5 7 10 10 11 14
21 21 21 19 19 19 17 16 15 13 13 13 13 12 12 10 9 8 8 7 7 5 5 6 6 6 8 9 9 9 10 9 8 6 6 6 6 6 5 8 10 11 12
22 22 22 21 20 20 18 17 16 15 15 14 13 12 11 10 9 10 8 9 8 8 9 8 7 8 9 9 9 10 10 8 7 5 3 4 4 6 7 6 8 8 10
23 22 23 23 22 21 20 18 17 15 15 11 12 13 13 12 11 10 10 9 9 10 8 8 7 7 9 9 9 9 7 6 4 4 3 3 3 3 4 5 6 8 8
23 22 22 23 22 21 19 18 17 15 14 14 13 12 11 10 10 9 9 9 8 8 7 6 6 8 8 8 10 8 5 2 3 3 3 4 5 4 4 2 3 4 5
23 23 22 23 22 20 18 18 18 17 15 14 14 11 10 10 9 8 8 8 7 7 5 5 8 7 8 4 8 3 2 2 3 2 3 5 5 5 5 5 5 2 1
26 24 23 23 24 22 20 19 16 14 15 14 14 11 12 12 11 10 9 7 4 5 5 5 5 7 4 3 6 5 2 6 5 2 3 5 6 6 7 6 6 5 3
27 27 25 25 24 23 23 18 14 13 12 10 13 12 10 10 10 8 6 5 4 5 4 3 3 4 6 1 2 5 3 1 4 5 3 3 5 7 6 6 6 6 6
29 27 26 25 24 24 22 22 20 16 15 14 12 10 9 9 9 8 7 6 4 4 4 3 3 3 4 3 2 2 2 5 4 2 5 2 1 2 5 5 4 3 4
28 27 27 26 24 24 23 23 20 20 16 14 12 9 9 9 11 11 11 8 5 6 6 3 3 3 3 5 4 3 1 4 2 5 6 3 4 2 3 3 4 3 1
30 29 27 26 26 24 25 24 23 19 18 15 14 12 13 14 13 14 13 10 8 7 7 5 5 5 4 5 5 4 5 4 3 5 6 7 6 6 5 7 6 5 6

GFSSE_925_spd_009.txt.gz
Wind_Speed
17 20 22 21 20 23 22 19 18 21 22 23 22 19 20 18 18 17 16 16 16 17 15 15 15 15 15 14 13 12 10 10 8 8 8 9 9 8 7 6 5 9 11
20 19 21 19 21 21 20 20 19 20 20 20 19 18 17 17 16 15 15 14 15 14 14 13 14 14 13 13 13 11 9 7 6 4 4 9 12 10 8 8 11 11 12
22 22 19 19 19 19 20 20 19 18 18 17 16 16 15 16 14 14 13 12 12 12 12 12 12 12 12 12 12 10 7 5 4 2 3 6 12 11 9 10 11 12 12
24 22 17 18 18 18 17 16 17 16 15 15 14 13 13 12 12 11 11 10 11 10 10 10 10 11 11 11 11 9 6 5 3 2 6 10 12 11 11 9 12 12 11
25 21 16 15 16 15 15 16 17 15 14 13 12 11 9 10 10 10 9 9 9 9 8 8 9 9 9 9 9 7 5 4 3 2 5 5 8 11 9 10 10 11 10
22 18 16 15 14 14 15 16 15 14 12 11 10 8 8 8 8 8 8 7 7 7 7 8 8 8 8 7 7 7 5 3 3 3 7 6 10 9 10 9 10 10 10
18 17 16 14 13 14 15 15 14 12 11 10 9 7 7 7 6 6 6 6 6 6 7 6 7 7 7 6 6 6 5 3 5 3 4 4 10 8 10 9 9 10 11
19 19 14 14 13 13 15 14 14 11 10 10 8 8 6 4 4 5 5 5 5 4 5 6 6 7 7 6 5 6 7 4 1 3 5 5 5 8 10 11 10 10 10
18 16 15 14 13 13 15 15 12 10 9 9 8 7 5 4 4 3 2 3 3 3 5 5 6 5 6 6 5 6 5 5 1 4 6 5 5 7 9 10 10 9 10
19 18 18 16 14 14 14 14 11 8 8 7 7 7 6 4 2 0 0 1 3 1 2 2 3 4 4 5 7 7 4 2 3 4 8 7 4 7 8 10 10 10 11
13 17 15 16 16 15 15 13 11 9 8 7 6 6 3 7 6 1 4 5 5 2 1 3 4 4 1 1 6 10 9 7 5 1 11 6 3 7 9 10 10 10 12
18 20 19 20 16 15 15 12 11 10 9 9 8 7 5 3 3 3 4 3 1 1 2 3 5 2 4 8 2 9 8 8 10 3 5 5 2 4 9 10 10 10 11
19 19 18 19 17 15 18 12 13 12 13 11 9 7 6 2 6 8 4 7 5 2 6 1 5 3 8 7 10 10 8 8 8 4 6 3 2 4 8 10 10 11 11
20 18 18 20 16 15 13 14 13 13 12 12 12 10 8 6 8 6 4 5 4 7 4 2 3 6 5 7 8 8 10 9 7 7 3 3 3 4 10 10 12 12 12
21 20 20 18 17 15 12 13 11 11 11 11 8 10 10 10 4 4 4 7 8 6 7 7 5 6 7 10 9 9 10 10 8 7 5 5 5 4 7 11 10 12 12
21 21 20 19 17 15 14 9 9 10 10 11 10 9 9 9 2 6 8 8 7 5 5 6 7 7 8 5 7 8 10 8 7 7 8 4 5 3 7 10 10 11 13
21 20 20 19 18 18 16 14 13 13 13 12 12 8 9 9 8 9 9 6 9 5 6 9 6 8 8 9 7 8 9 7 6 6 5 6 5 4 3 9 11 11 10
23 22 21 21 21 19 18 17 17 15 14 12 11 11 11 10 9 8 11 10 5 5 7 8 8 11 9 10 9 7 7 7 6 2 1 3 3 3 6 7 8 9 10
24 23 23 21 20 21 20 18 17 15 14 9 9 10 10 11 11 10 12 9 6 9 5 7 7 12 7 9 9 6 5 4 5 6 4 3 6 4 4 5 2 6 8
25 24 24 23 21 18 18 18 16 16 12 14 13 14 11 8 11 11 11 6 8 9 9 6 3 8 9 7 8 7 2 2 4 3 2 4 4 3 6 5 6 8 7
25 26 25 25 23 21 19 17 18 18 17 17 15 9 7 9 11 9 10 10 7 12 2 8 8 8 6 2 7 6 4 5 3 1 6 4 4 4 3 3 6 4 4
28 27 26 25 24 24 21 21 21 19 18 14 13 12 11 13 12 10 9 8 6 7 4 3 4 6 5 1 7 5 3 7 5 8 4 3 4 5 5 5 4 5 5
30 29 29 28 26 25 25 21 17 12 12 10 14 13 11 12 11 10 6 7 2 2 6 3 3 2 8 1 1 6 3 3 6 8 7 4 2 3 4 2 3 3 4
31 30 27 28 27 26 25 22 21 18 17 17 14 16 14 13 11 10 8 6 4 5 1 3 3 4 3 4 2 5 1 5 5 1 7 7 3 2 3 5 3 1 2
31 31 31 28 28 27 27 26 21 21 19 15 14 8 10 9 10 10 8 6 4 4 5 3 3 4 3 5 2 3 5 4 4 4 6 1 4 3 3 4 4 7 3
32 32 31 31 30 29 27 26 23 21 21 15 15 13 12 14 11 11 11 9 6 5 5 5 4 5 6 3 6 2 3 3 2 3 4 7 7 7 4 4 7 5 7

GFSSE_925_spd_012.txt.gz
Wind_Speed
18 21 20 21 23 23 23 25 24 23 24 23 22 21 21 20 19 19 19 17 17 16 15 15 16 15 14 13 11 11 11 10 10 11 10 10 11 12 12 10 11 10 13
20 18 20 22 22 20 23 23 23 23 22 22 21 20 19 18 18 18 16 15 14 14 13 14 15 14 13 12 11 9 8 7 9 7 8 10 11 13 12 15 14 12 13
22 20 19 22 21 21 22 22 22 21 20 19 20 19 17 16 16 15 14 12 12 11 11 13 13 12 12 10 9 8 6 5 4 5 6 9 11 15 12 13 13 16 13
24 21 20 22 21 21 20 20 19 18 17 17 17 16 15 15 14 13 11 10 10 9 10 11 11 11 10 9 7 7 7 5 4 3 4 14 12 15 15 15 14 14 14
27 22 21 21 20 19 18 18 17 16 15 14 14 12 13 13 12 11 10 8 7 8 9 10 10 9 8 7 6 5 4 6 6 8 11 16 13 13 15 15 13 15 13
24 21 21 20 19 17 17 18 15 14 14 13 12 11 11 11 10 9 8 6 6 7 8 9 9 8 7 6 6 5 5 4 5 3 15 15 12 16 16 15 15 15 11
21 20 19 18 17 17 17 17 14 13 12 12 10 10 10 8 7 7 6 6 6 7 7 7 7 7 6 6 6 5 4 4 4 5 7 11 11 13 15 14 13 13 13
22 20 18 17 17 17 17 16 14 13 12 11 9 9 8 6 5 5 4 5 5 6 6 7 7 7 7 5 6 6 4 2 3 12 10 12 11 12 14 14 13 14 12
23 20 17 16 16 17 17 16 13 12 11 10 9 8 6 5 5 4 3 4 5 5 5 5 6 6 6 6 9 8 6 2 4 10 7 10 9 10 14 13 12 12 11
26 20 20 18 17 17 16 15 12 11 10 9 8 7 6 5 5 4 2 2 5 2 4 5 4 4 5 7 12 12 10 9 9 13 4 12 10 11 12 11 11 10 11
20 23 21 20 18 19 17 14 11 9 9 8 7 6 7 5 7 4 2 5 4 2 3 4 4 5 5 5 8 11 11 11 10 12 5 8 6 10 12 11 10 11 11
20 22 23 22 22 21 16 15 10 9 7 6 6 7 4 6 10 3 1 6 8 6 2 2 5 7 9 9 11 15 10 12 10 13 8 3 3 8 10 11 12 10 12
21 16 23 19 22 19 22 16 15 13 14 9 12 11 4 3 2 8 4 8 6 2 6 6 3 2 7 8 14 15 13 14 9 9 10 9 6 6 11 10 10 11 11
28 24 23 23 22 12 19 14 21 21 18 18 16 13 10 4 5 8 0 8 2 10 1 1 4 5 8 8 11 8 9 12 12 5 7 7 3 3 9 11 11 12 12
27 25 26 23 21 16 18 15 15 18 13 16 17 14 9 10 2 1 2 3 9 7 6 7 5 6 6 10 6 5 10 9 5 7 4 1 5 1 6 10 11 12 13
25 26 28 27 22 16 15 11 4 13 7 7 5 16 10 8 4 3 6 7 6 3 1 4 7 7 9 10 11 4 9 9 8 3 6 5 2 2 4 7 9 11 12
23 25 32 26 24 22 14 13 6 11 9 12 10 8 7 6 4 6 7 6 6 4 5 4 6 7 14 14 6 6 7 8 3 5 4 8 6 5 3 7 9 10 10
24 23 24 22 25 23 18 13 12 11 11 12 9 11 9 9 9 6 8 9 4 2 1 5 4 6 10 9 9 5 6 5 7 2 3 2 3 6 7 7 7 8 9
22 24 22 21 26 28 24 18 17 18 14 14 13 10 10 14 9 8 7 8 4 4 7 3 4 5 10 9 8 5 2 2 5 7 3 10 4 8 8 6 2 5 9
26 26 26 22 19 27 25 20 21 18 16 14 10 12 14 12 9 8 10 9 6 7 4 4 1 6 6 5 6 8 0 2 4 4 4 8 5 6 10 5 2 8 4
28 27 29 27 24 21 22 20 16 13 17 16 17 17 15 9 7 9 11 8 7 4 3 1 2 5 9 1 6 12 14 5 5 6 9 6 6 5 4 6 10 6 4
27 31 30 30 25 24 20 19 17 19 19 20 19 17 15 12 9 10 9 9 12 5 6 4 1 5 9 3 3 12 1 8 8 11 8 7 4 9 9 6 5 7 4
31 32 32 31 28 26 21 20 22 21 18 15 19 14 15 12 9 10 6 7 3 2 1 5 3 1 8 0 2 2 4 1 1 11 11 8 6 5 4 4 2 5 5
30 32 32 32 30 28 30 24 24 21 14 17 17 20 19 18 15 14 10 10 8 4 8 3 3 2 4 7 6 4 2 1 2 2 10 11 9 10 6 1 3 3 4
30 33 34 34 33 31 31 29 27 19 19 18 16 15 21 15 13 17 12 11 8 6 7 7 4 3 2 5 10 5 6 3 3 1 1 5 9 14 7 7 6 3 6
32 34 35 34 34 33 32 36 25 26 25 21 21 20 17 19 19 15 16 14 12 9 10 8 7 5 5 2 5 6 7 2 6 5 3 7 6 6 9 8 7 7 7

GFSSE_925_spd_015.txt.gz
Wind_Speed
16 18 23 25 26 25 26 25 26 24 25 25 24 23 23 22 21 21 21 20 18 16 15 14 12 12 11 11 10 11 11 12 13 13 11 11 12 14 13 15 15 16 16
22 22 25 26 25 25 24 25 25 25 24 23 22 22 20 20 20 19 18 17 16 14 14 12 11 11 10 9 8 8 9 9 10 9 9 10 11 12 13 15 16 16 17
22 25 25 25 24 24 24 25 24 24 23 22 21 20 18 17 17 16 15 15 14 13 12 10 10 10 9 8 6 6 7 6 6 5 8 8 13 12 18 17 18 18 18
25 26 25 24 25 24 24 24 23 21 21 21 21 18 17 15 15 15 14 13 11 11 9 8 8 8 8 7 6 6 7 6 4 2 6 12 10 12 15 17 17 17 19
24 26 25 24 24 23 23 22 20 19 18 17 17 16 14 14 13 13 12 10 10 9 7 7 7 6 7 6 6 6 6 6 8 6 14 12 11 11 13 15 17 17 18
27 28 24 24 23 22 22 20 19 18 16 15 13 13 12 12 12 11 10 9 8 7 6 6 6 6 6 6 7 7 7 7 11 14 14 10 11 13 11 12 14 15 17
27 27 24 23 22 22 21 19 18 16 15 13 12 11 10 10 10 9 9 8 6 5 5 5 6 8 8 7 8 7 7 10 11 7 12 9 13 14 12 12 12 13 15
28 27 24 22 22 22 21 17 16 15 14 13 11 10 9 8 8 8 7 6 5 5 4 6 7 8 8 9 8 8 10 6 18 16 7 5 12 12 13 11 12 12 13
26 26 23 22 21 21 20 18 16 15 14 12 10 9 6 6 5 4 4 5 5 6 6 6 6 7 7 7 8 8 10 8 16 15 13 10 8 13 14 12 13 11 12
28 24 23 23 23 22 20 17 15 14 13 12 10 8 6 5 2 2 2 3 7 5 7 7 6 5 7 7 10 15 9 3 11 7 11 14 9 12 13 14 13 12 12
27 24 22 23 23 22 21 17 15 14 13 11 10 9 6 3 1 3 3 5 7 5 8 6 6 6 8 10 11 12 7 2 12 9 12 15 14 13 13 13 12 13 12
29 30 25 23 23 22 21 19 15 13 12 11 10 8 5 2 2 3 1 2 1 1 6 1 5 4 8 13 12 10 11 8 7 8 6 12 11 12 16 14 13 13 12
31 30 30 26 25 25 21 18 14 14 12 12 11 7 5 2 1 10 3 3 1 3 2 7 4 2 5 7 9 5 10 14 8 6 11 14 9 9 15 14 14 14 14
27 30 33 30 26 27 25 20 18 17 18 16 14 13 13 6 8 2 3 2 2 1 5 4 4 3 1 6 6 5 5 3 8 8 11 5 5 8 12 12 14 13 13
30 36 32 32 26 23 27 20 20 20 21 21 18 16 13 9 4 5 4 2 0 1 1 2 1 3 7 6 5 2 8 5 3 4 4 2 2 5 10 13 13 13 13
33 38 34 32 31 23 25 19 18 20 24 22 22 20 12 10 7 6 3 3 2 1 4 2 5 4 8 10 10 5 6 4 3 4 5 3 4 3 7 9 11 13 13
36 38 36 33 32 27 23 19 12 10 10 8 16 17 16 15 7 6 4 2 2 5 2 3 3 5 6 12 7 2 6 5 3 8 3 4 8 4 4 6 9 10 12
38 37 39 35 33 30 25 15 15 11 8 7 2 11 15 12 9 7 4 4 5 3 4 2 2 3 7 9 8 6 3 3 4 5 5 7 3 5 7 6 6 7 8
37 40 39 36 37 32 27 19 16 15 11 8 9 11 16 13 8 6 6 3 4 3 3 4 2 0 5 5 3 9 5 4 7 5 9 9 9 3 7 5 3 2 7
36 40 41 39 38 33 30 26 20 20 16 13 13 13 15 11 9 8 5 4 4 5 2 2 3 3 2 7 7 7 2 2 3 6 13 9 12 14 10 5 1 4 3
36 39 39 31 34 34 34 29 23 24 20 19 19 13 16 16 15 13 11 9 7 5 7 6 2 3 3 4 2 7 7 3 7 12 12 9 12 13 12 10 9 10 6
37 40 39 35 26 37 36 32 27 23 15 22 19 18 18 19 18 14 11 7 8 10 8 7 2 3 2 4 2 1 2 2 5 11 5 8 13 11 8 5 6 7 6
36 40 42 40 33 33 32 30 25 22 20 14 22 20 20 24 18 12 11 8 6 8 13 8 7 2 2 3 4 4 3 1 1 9 10 11 9 6 6 4 5 9 7
34 42 41 42 42 33 30 32 30 23 23 19 19 26 27 23 18 16 14 12 12 8 13 9 10 7 3 2 1 5 4 3 2 1 7 9 9 7 10 7 8 7 6
38 42 45 45 42 40 34 31 28 24 29 23 23 24 29 25 20 17 16 15 16 11 11 14 13 12 12 8 3 4 7 4 3 3 2 4 11 11 8 10 11 6 9
36 39 40 42 43 41 40 33 31 29 28 29 24 17 26 28 20 21 20 19 18 13 14 12 9 10 9 5 6 6 5 2 6 3 2 2 3 7 15 12 12 8 10

GFSSE_925_spd_018.txt.gz
Wind_Speed
17 20 25 21 24 25 25 24 28 29 28 27 27 25 24 23 22 20 17 16 15 14 14 14 13 10 9 11 12 12 12 12 13 12 12 11 12 13 13 13 13 13 15
20 24 24 24 25 25 25 25 26 27 25 25 24 23 22 21 20 17 16 14 13 12 13 13 12 10 9 10 9 10 9 11 11 12 11 11 11 11 11 12 11 13 14
24 26 26 25 26 25 25 25 25 25 24 22 20 20 19 19 16 15 13 12 12 11 11 11 10 9 8 8 9 8 7 8 10 9 10 13 11 12 13 12 13 11 13
29 27 26 26 25 24 25 25 23 24 24 20 18 18 17 16 14 12 11 11 11 10 10 9 7 7 7 8 8 8 8 9 8 6 8 12 9 14 14 14 13 12 12
29 26 25 26 25 24 24 23 23 23 22 19 17 16 15 14 12 10 10 10 10 10 9 7 6 6 6 8 8 9 10 11 10 6 8 9 13 14 14 15 14 14 14
29 27 25 24 24 23 22 21 21 20 19 17 15 14 13 12 10 9 9 9 9 9 8 6 6 6 7 9 10 12 9 13 16 12 9 7 14 14 14 15 14 14 14
29 27 25 25 24 24 22 20 19 18 16 14 13 12 11 10 8 8 8 8 9 8 6 5 6 6 7 9 10 7 7 13 18 17 9 8 12 14 15 14 14 15 12
31 27 25 24 24 22 20 19 19 17 15 13 12 11 10 9 8 8 8 8 8 7 6 5 6 7 8 9 10 7 7 10 16 13 15 13 12 13 14 14 14 14 13
29 28 25 23 21 20 20 18 17 16 14 13 11 10 8 7 6 6 7 8 7 7 6 5 6 7 9 10 9 4 5 9 7 12 12 16 14 12 13 14 14 14 14
29 27 26 24 22 22 19 18 17 16 15 13 12 10 7 5 5 5 4 5 6 3 6 6 7 8 9 8 5 3 0 3 6 2 4 13 14 13 14 15 13 14 14
29 27 26 26 25 23 21 18 17 16 16 14 13 9 8 6 4 2 1 3 3 5 5 4 6 9 10 5 7 5 2 3 5 5 7 12 14 14 15 15 14 14 14
26 28 28 27 27 25 23 20 19 18 16 15 13 11 9 6 5 4 2 3 3 2 0 3 3 6 6 9 8 7 3 5 5 7 10 11 13 14 15 14 15 15 15
32 30 30 30 29 27 25 22 20 18 16 15 14 13 10 6 8 6 5 1 4 3 5 6 3 4 7 8 7 6 7 9 7 6 8 8 9 12 16 16 15 16 14
30 32 30 31 31 29 26 24 21 20 19 19 19 14 11 9 8 6 3 3 4 4 5 5 4 2 3 5 4 4 3 6 8 9 9 8 7 10 13 16 16 16 16
32 32 33 32 33 31 28 26 23 23 22 20 18 16 15 10 7 8 7 3 1 3 5 4 3 2 3 1 1 3 2 1 6 9 9 6 6 8 11 14 15 16 17
33 36 35 35 34 31 29 26 23 22 21 20 19 18 19 15 10 9 7 4 3 4 4 3 2 0 4 4 3 5 6 3 5 7 7 8 4 3 9 11 13 14 16
36 39 41 38 36 33 28 27 24 22 22 21 22 23 21 15 11 8 6 5 0 5 5 3 1 2 4 5 5 3 7 2 7 7 7 7 9 5 6 10 11 12 13
33 36 41 38 38 34 28 29 17 14 17 20 17 23 25 19 14 10 8 7 2 5 5 4 3 2 1 4 6 6 4 3 8 7 4 4 10 10 8 6 7 8 8
40 38 38 38 40 36 31 28 23 17 14 14 13 18 26 20 16 11 9 6 4 6 5 6 5 2 1 0 1 4 5 7 5 7 8 8 4 8 8 7 6 6 7
40 42 43 42 42 38 33 28 25 22 18 12 12 13 22 20 17 10 11 9 8 9 8 7 5 2 1 2 2 2 3 4 10 12 12 12 13 12 10 7 7 7 6
36 40 41 38 41 40 37 30 26 27 24 18 15 19 21 21 17 13 13 10 10 8 8 8 5 3 4 2 1 2 3 6 14 16 12 15 13 10 10 5 2 10 7
39 41 39 42 44 43 39 36 29 28 26 24 20 21 19 20 19 17 16 15 13 10 11 9 5 5 5 4 4 3 2 4 7 10 13 17 14 10 8 7 6 7 6
38 41 42 46 46 44 42 36 31 26 23 22 25 25 24 22 21 20 17 16 14 13 13 12 9 11 7 4 2 4 2 3 2 6 11 13 13 8 7 5 5 8 7
39 43 42 44 46 46 44 39 36 28 24 26 22 25 23 24 23 21 20 16 12 13 15 16 12 10 7 4 2 1 2 5 3 0 6 10 11 8 8 9 7 7 7
40 41 45 45 46 45 45 41 40 35 34 30 26 19 24 26 26 24 21 18 17 16 17 17 14 13 9 5 4 6 4 4 5 3 2 3 9 10 11 11 13 11 9
38 40 41 43 43 44 43 43 43 38 36 30 30 22 23 29 30 26 24 21 19 18 19 17 14 12 13 12 10 9 8 5 5 4 2 1 4 7 12 13 14 17 14

GFSSE_925_spd_021.txt.gz
Wind_Speed
24 24 20 21 24 24 25 27 28 30 29 27 24 23 22 21 20 18 16 15 14 14 12 12 13 14 11 11 12 12 12 12 11 10 10 10 11 14 12 12 11 12 13
25 24 21 22 24 24 25 26 27 28 26 25 23 22 21 19 17 16 15 14 13 12 11 11 13 12 11 11 11 12 10 10 11 11 11 9 11 11 12 11 10 12 11
25 25 23 22 24 24 24 24 25 25 24 23 21 19 17 16 15 14 13 11 11 10 9 10 10 10 10 9 10 10 10 10 10 11 13 10 11 11 11 12 12 11 12
28 26 25 23 24 23 23 23 24 22 22 20 19 17 16 14 13 12 11 10 9 8 7 9 8 8 9 9 8 8 8 8 9 11 13 11 13 11 11 12 12 13 11
28 25 24 24 24 23 21 21 22 20 19 18 17 16 14 13 11 10 9 8 7 7 8 8 7 8 10 9 7 7 6 8 10 12 11 10 11 12 11 11 12 12 12
29 25 24 24 22 22 20 20 19 19 18 17 16 14 13 11 10 8 8 7 6 7 8 9 8 9 10 10 9 6 5 9 11 11 13 11 14 12 12 12 12 13 13
28 25 24 23 23 21 19 18 18 16 16 15 14 13 12 10 8 8 7 6 6 7 7 8 9 9 11 9 9 6 6 6 13 10 9 13 13 12 13 13 12 13 13
29 26 24 22 23 21 19 18 16 15 14 13 12 11 10 9 9 8 6 6 6 5 6 8 9 10 10 8 6 5 4 7 8 3 10 13 14 12 13 14 13 12 13
28 26 24 22 21 20 20 18 16 14 13 11 11 10 9 8 7 7 6 5 5 4 5 7 9 10 9 7 4 2 3 6 4 7 10 12 14 13 12 11 13 12 13
28 26 26 24 22 22 20 18 17 14 13 11 11 9 9 8 6 4 3 4 3 4 5 8 7 7 6 4 2 0 1 3 5 7 8 12 13 12 12 12 13 13 13
27 27 26 26 25 23 21 18 17 16 15 13 12 10 8 7 5 2 1 2 3 4 4 5 8 7 5 6 1 2 2 3 6 4 7 12 12 12 12 13 13 13 12
25 29 28 27 26 25 22 20 20 18 17 15 14 11 9 6 4 3 2 2 3 1 2 3 3 4 4 6 4 2 4 5 5 4 8 11 13 13 13 12 11 13 12
32 30 31 29 27 26 25 23 21 20 18 16 15 13 10 6 6 5 4 2 4 1 4 5 3 1 5 7 7 6 4 7 6 5 8 9 11 12 13 13 12 11 12
27 33 32 31 30 28 26 24 23 21 20 18 16 14 12 10 5 9 4 5 4 4 5 3 2 1 2 6 3 4 3 6 5 6 8 7 8 9 11 14 14 13 12
29 32 34 33 33 30 28 25 24 23 21 19 17 15 13 10 8 9 8 6 3 4 4 3 3 2 0 2 1 1 1 5 11 9 7 7 5 7 8 12 14 14 14
32 33 34 35 34 32 30 28 26 23 21 20 19 18 16 12 10 10 9 6 4 5 3 2 4 3 2 2 5 3 5 6 8 11 10 7 4 3 8 9 13 13 14
33 35 34 36 36 35 33 30 26 23 21 21 21 20 19 17 14 13 10 8 5 7 6 4 4 1 2 3 4 2 4 2 3 7 8 8 7 4 4 7 9 11 12
33 34 37 35 36 36 35 30 25 23 23 22 23 23 20 18 16 14 10 10 6 7 8 7 5 4 2 2 4 2 4 4 6 5 6 5 10 8 4 4 6 7 8
37 37 37 36 37 36 35 30 26 22 24 24 22 23 24 21 19 13 11 9 7 8 7 5 5 3 4 1 0 3 4 3 10 6 5 5 7 7 7 5 5 6 7
37 39 40 40 39 38 36 32 30 21 18 18 17 17 19 24 22 17 12 11 8 8 7 7 5 4 3 2 3 2 5 4 9 9 7 5 6 8 8 7 7 7 6
31 34 39 38 38 39 36 34 34 30 24 21 20 19 20 25 23 20 15 14 11 10 9 8 7 7 5 3 1 4 4 3 11 11 10 9 9 9 6 5 7 9 6
38 39 38 42 42 41 38 37 33 35 31 26 20 18 20 25 23 22 19 16 14 13 12 12 10 6 5 3 1 4 2 3 8 8 12 10 9 8 7 3 3 7 6
34 39 43 46 44 44 40 38 31 30 30 29 25 22 20 24 26 24 21 18 17 16 16 14 11 7 6 2 3 2 2 3 1 4 9 13 10 9 6 4 4 5 5
40 41 41 41 43 46 44 39 36 29 24 30 30 25 23 25 26 24 22 19 18 18 19 16 12 10 9 9 5 3 3 4 3 0 6 12 10 10 8 6 5 6 6
40 41 42 44 44 45 46 41 37 29 32 29 28 27 25 24 25 26 25 22 20 18 17 16 15 12 12 11 9 5 3 2 3 3 2 5 10 11 10 11 9 9 9
35 38 41 42 44 45 49 47 41 35 33 33 30 27 24 24 26 25 27 24 22 20 18 18 17 14 13 13 11 11 7 3 4 3 2 2 5 6 13 13 14 14 13

GFSSE_925_spd_024.txt.gz
Wind_Speed
19 21 22 23 23 24 26 26 26 27 27 26 23 21 20 19 16 15 14 14 14 13 13 12 11 11 11 12 12 12 11 9 9 10 11 11 14 12 12 12 14 13 14
28 20 22 23 23 25 26 26 28 27 25 23 22 21 18 17 15 14 13 14 13 12 12 11 10 9 9 9 9 9 9 9 9 11 11 13 12 13 12 12 13 12 14
25 21 21 22 24 25 26 28 26 24 22 21 21 19 17 15 13 12 12 12 11 11 10 10 9 8 8 7 8 8 8 8 8 10 10 13 12 12 11 13 13 13 12
26 23 22 23 25 25 26 25 23 21 20 19 19 17 15 13 12 11 11 10 10 9 9 8 9 7 7 6 6 6 7 8 8 9 11 13 12 12 13 12 13 12 14
25 25 23 24 25 23 24 22 20 20 18 17 16 14 13 11 10 10 9 9 9 9 8 8 8 8 6 6 6 5 6 8 9 9 10 14 13 13 13 13 13 12 11
26 24 23 23 22 21 22 20 19 18 16 15 15 13 11 10 10 9 8 7 8 8 8 8 8 8 7 6 5 4 4 7 6 8 8 11 14 12 12 14 12 12 11
27 25 23 23 22 20 20 19 18 16 15 14 13 12 10 9 8 8 8 8 8 7 8 8 9 8 6 5 4 3 6 5 7 9 8 12 12 13 11 13 13 12 11
27 25 24 23 21 19 19 18 17 15 13 13 12 11 10 9 8 7 7 7 7 7 8 10 10 9 7 6 5 5 4 8 6 8 8 11 10 13 11 11 12 12 11
26 26 24 23 20 18 17 16 15 14 12 12 10 10 9 7 7 6 6 6 7 7 9 10 9 8 7 7 6 5 4 3 2 8 10 11 11 11 11 10 10 11 11
26 26 24 23 21 20 17 16 15 14 12 11 10 8 7 6 4 3 3 4 6 8 8 8 8 7 5 6 7 5 3 1 2 4 7 10 11 10 10 9 9 9 9
25 26 24 24 22 21 19 17 15 13 12 10 9 7 6 5 3 1 2 3 5 6 5 7 7 7 4 4 4 3 3 0 1 2 5 10 12 11 11 10 9 9 9
24 27 26 25 24 22 21 19 17 15 13 12 11 9 7 4 3 1 2 2 3 2 1 4 3 5 4 3 4 2 2 1 2 1 4 8 10 10 10 10 11 11 9
29 29 28 27 26 24 23 21 19 17 15 14 12 10 8 6 5 3 3 1 2 0 1 2 2 3 5 7 8 8 3 3 2 2 5 6 9 9 10 10 10 11 10
26 32 31 29 28 27 25 22 20 19 17 16 15 12 10 7 4 4 3 2 3 2 1 1 3 4 3 4 5 5 3 3 2 3 3 4 6 6 10 11 11 10 10
28 32 32 31 30 29 27 23 22 21 19 17 16 14 11 9 6 6 6 4 3 3 3 1 4 4 1 2 1 3 2 3 5 4 3 3 2 3 5 9 11 10 12
31 33 33 32 31 30 28 26 24 22 20 18 17 16 14 10 7 7 8 6 5 4 3 1 2 3 3 4 5 3 3 4 5 6 5 3 2 3 5 7 10 12 11
31 33 34 34 33 32 30 28 25 23 21 19 19 17 16 13 10 8 9 8 6 6 6 3 3 2 2 3 4 2 1 3 3 4 5 5 4 1 1 4 5 8 10
31 33 33 34 34 33 32 30 27 24 21 20 19 19 18 16 14 12 13 10 8 6 8 6 4 3 4 1 3 3 2 2 2 2 4 5 6 4 2 1 2 4 6
35 34 32 33 34 35 34 32 28 25 23 21 20 20 19 17 16 13 14 11 11 9 7 6 4 2 2 2 3 2 3 1 5 2 1 2 3 4 4 3 2 2 3
36 36 35 34 33 33 34 32 29 25 22 21 23 23 22 21 20 19 16 13 11 9 7 5 4 3 0 3 2 2 4 3 8 4 3 0 2 4 3 2 4 3 4
32 34 37 37 36 32 33 32 31 28 24 20 18 17 16 17 20 22 18 14 12 10 8 6 4 4 1 1 2 4 6 4 6 5 4 4 5 4 2 2 4 4 3
35 39 39 42 40 38 36 35 30 31 29 22 19 20 18 18 20 23 21 17 14 12 10 8 7 3 1 3 3 3 2 3 4 3 5 4 5 4 2 2 2 2 2
34 38 42 45 44 43 40 35 30 24 28 28 25 23 22 20 23 25 23 19 15 13 12 11 9 7 5 4 4 3 2 2 1 2 4 5 5 5 3 3 4 4 3
37 40 41 40 40 42 43 36 34 28 25 31 33 29 24 21 23 25 24 20 17 15 13 13 12 9 8 7 4 4 4 4 2 0 3 8 7 6 3 3 2 2 3
36 37 41 44 45 43 45 43 41 32 31 31 34 32 29 25 24 23 23 22 21 18 14 16 15 12 10 10 9 5 4 4 5 3 2 5 11 10 8 8 6 6 6
33 34 36 38 43 44 45 46 42 37 32 32 30 30 31 30 27 25 25 25 23 19 16 15 17 14 11 12 11 9 6 3 4 3 2 3 6 7 12 11 11 11 12

GFSSE_925_spd_027.txt.gz
Wind_Speed
21 23 25 21 23 24 23 22 22 24 22 21 20 17 16 15 14 13 13 12 11 10 11 9 9 10 9 10 11 11 10 9 9 10 10 12 11 11 12 14 13 12 14
23 23 21 23 23 24 24 23 24 24 23 20 19 17 15 14 13 13 12 11 11 11 10 9 8 8 8 8 9 9 9 9 9 9 10 11 11 12 12 14 13 14 14
22 26 21 24 24 24 24 24 25 24 20 19 18 15 14 13 12 12 11 11 11 10 9 8 7 7 7 6 7 6 8 8 9 9 11 9 9 10 11 12 13 14 14
22 23 19 23 24 24 24 25 23 20 20 19 16 14 13 12 11 10 10 11 10 10 9 8 7 6 6 5 4 5 6 8 10 8 8 9 9 10 11 13 13 13 13
21 21 21 23 24 24 24 23 21 19 19 17 15 12 12 11 10 9 10 12 10 9 9 8 7 6 4 3 3 4 4 7 8 7 7 10 10 10 11 13 13 13 12
23 21 23 23 23 22 21 20 18 18 16 15 13 11 11 10 9 9 9 10 9 9 8 8 8 7 5 4 4 4 4 6 7 7 8 8 10 11 12 13 13 12 14
23 21 22 23 23 21 20 18 17 16 15 14 12 10 10 8 8 8 7 9 9 8 8 9 9 8 7 7 7 5 5 6 7 7 8 8 8 11 11 13 12 13 13
24 23 22 22 21 20 18 17 17 15 14 13 11 10 9 9 8 7 7 8 8 7 9 9 9 10 8 8 8 5 4 8 6 6 7 7 8 11 11 12 11 11 12
22 23 22 21 19 18 17 17 16 14 13 11 10 9 8 8 7 7 7 7 8 8 9 8 8 7 8 8 7 7 5 3 4 6 7 7 9 8 11 9 11 9 9
21 22 22 21 19 17 16 15 13 12 11 10 9 7 6 6 4 4 5 5 7 7 8 7 6 6 6 6 7 6 4 4 5 5 6 7 9 8 9 9 9 10 8
22 22 22 22 20 18 15 13 12 10 9 8 7 6 4 2 1 2 3 5 6 6 5 7 5 6 5 6 5 3 4 3 5 4 4 8 8 8 9 6 7 9 8
25 24 23 22 20 18 15 13 11 10 8 7 6 5 3 2 1 1 2 3 4 2 2 4 3 2 4 6 7 5 2 3 4 2 2 8 8 8 8 10 7 7 7
26 24 23 21 19 18 16 14 12 11 10 8 9 7 5 4 2 0 1 1 2 1 2 2 4 2 4 6 7 8 4 4 3 2 3 4 7 7 7 7 8 8 7
26 25 23 22 20 18 15 15 13 13 11 10 9 10 7 4 2 1 1 0 1 1 2 2 3 3 3 4 3 6 4 2 2 2 2 3 3 3 8 9 8 7 8
26 25 23 22 21 19 18 15 15 14 13 11 11 12 9 6 5 2 2 2 1 1 0 1 2 1 0 3 0 1 2 1 1 2 2 3 2 2 3 8 8 8 8
25 25 24 23 22 20 19 18 16 14 13 12 11 12 11 8 5 3 4 4 4 4 4 2 3 3 2 2 3 1 2 2 3 4 3 2 2 1 2 3 7 9 9
27 25 25 24 23 21 21 20 17 15 13 13 12 14 14 11 8 6 5 6 5 5 6 3 2 4 4 5 3 3 2 4 4 4 3 3 1 2 4 2 4 7 9
25 26 24 23 23 23 21 20 18 15 14 14 13 15 15 13 11 9 8 8 6 5 5 3 3 3 2 4 4 2 2 3 3 3 1 1 2 2 4 5 3 3 5
26 25 25 24 24 24 22 19 19 17 17 15 14 15 17 14 13 13 10 8 8 6 4 4 1 2 2 2 3 3 2 2 4 3 2 0 2 3 2 2 3 2 1
26 25 24 24 24 23 20 20 17 16 17 16 16 16 17 16 16 16 13 11 8 6 5 3 2 1 1 2 2 3 3 4 4 3 4 4 2 3 2 2 1 1 1
27 27 26 25 26 24 23 22 20 20 18 17 17 20 21 20 20 19 15 14 11 8 6 5 3 3 2 0 4 4 5 5 5 4 4 6 6 4 4 3 2 0 1
31 32 30 30 28 29 25 24 20 20 18 18 17 19 19 17 17 17 18 14 11 8 9 7 5 3 0 3 2 2 3 3 3 4 4 4 4 5 5 6 5 5 5
32 33 33 34 33 32 29 22 18 13 14 16 17 15 18 17 16 17 18 16 13 10 9 7 7 6 2 3 3 1 3 2 3 2 3 3 3 3 4 5 5 4 5
36 33 33 32 32 30 31 25 26 24 23 24 22 19 18 20 19 19 19 18 17 11 11 8 8 7 4 6 4 2 1 2 3 3 4 5 5 4 3 2 3 3 4
33 34 34 34 33 33 34 33 30 27 25 21 20 22 26 22 22 20 20 20 19 16 13 11 9 9 7 6 5 4 3 3 2 2 4 7 8 8 6 5 4 4 4
32 32 31 32 35 34 35 35 31 28 26 22 21 20 23 23 21 24 21 21 19 17 16 12 11 11 9 7 8 6 5 4 5 5 4 5 8 7 9 8 9 8 8

GFSSE_925_spd_030.txt.gz
Wind_Speed
30 23 18 19 17 16 18 19 19 19 19 17 15 14 13 13 12 11 12 11 12 12 11 10 10 10 9 10 10 10 10 9 9 9 10 11 10 10 11 13 13 11 14
29 23 20 18 17 19 18 19 20 20 18 16 15 14 13 12 12 12 11 12 12 12 11 10 9 8 7 9 8 9 10 10 9 9 11 10 10 10 11 8 13 13 13
31 22 19 21 21 21 20 21 20 19 16 15 14 13 13 12 11 11 11 11 12 11 10 8 7 7 7 6 7 8 9 9 9 8 9 10 9 8 9 11 13 14 15
23 21 20 23 22 21 20 20 20 17 16 14 13 12 12 11 11 10 11 11 11 10 9 8 7 7 6 5 5 5 7 8 7 9 3 9 9 9 9 11 12 13 14
26 20 20 22 22 21 20 20 18 16 15 13 12 11 10 10 10 11 11 10 9 9 9 8 8 7 6 6 5 4 4 6 7 6 5 7 9 7 10 12 12 12 10
23 23 22 22 22 21 20 18 17 15 14 12 11 11 10 10 9 10 9 9 9 9 9 9 9 9 8 6 5 3 5 4 7 6 8 6 9 8 9 9 11 10 11
25 24 22 23 22 20 19 17 16 15 13 12 11 10 10 9 8 9 9 9 8 9 10 10 10 10 9 8 6 6 6 6 5 6 8 7 8 10 10 11 10 11 11
26 25 23 23 21 19 18 16 15 14 13 12 11 10 9 9 8 8 7 7 8 8 9 10 10 10 10 9 7 7 9 7 6 7 8 9 9 10 11 11 11 10 10
25 25 23 22 19 19 16 15 14 13 12 11 11 10 9 9 8 7 7 7 7 7 8 8 8 8 8 8 8 6 7 7 6 7 7 7 9 10 10 10 10 10 10
25 24 24 22 19 17 15 14 13 12 11 10 9 9 8 7 7 6 7 6 7 6 7 8 7 7 6 7 5 6 6 10 7 6 6 6 8 9 8 9 8 8 9
24 24 24 23 19 17 15 13 12 11 10 9 7 7 5 5 4 4 4 6 6 5 6 6 6 6 4 8 6 4 6 6 6 6 6 6 7 8 7 6 9 6 8
25 26 25 23 20 18 16 14 11 10 8 7 6 5 4 4 4 4 4 6 5 3 4 3 4 5 6 7 6 4 3 6 5 4 4 8 7 7 7 6 6 6 6
27 26 25 22 20 18 16 14 12 11 9 8 7 5 3 2 2 2 4 4 3 2 3 2 0 3 6 8 9 9 6 3 5 5 5 7 7 7 6 8 7 6 5
27 26 25 23 21 19 16 15 12 11 10 8 7 6 4 3 2 1 2 2 2 2 2 1 7 4 2 4 6 8 5 3 4 5 7 6 5 6 7 7 6 7 7
27 26 24 23 21 19 16 14 13 12 11 9 8 7 5 3 1 1 2 1 1 1 2 1 3 3 1 1 1 3 4 5 3 3 7 6 5 4 6 9 8 7 7
26 26 24 23 21 19 18 14 13 12 11 10 9 8 7 5 3 1 2 1 1 1 1 3 2 3 2 2 1 3 4 4 5 3 7 6 4 3 4 5 9 9 8
27 25 25 23 22 21 19 16 14 13 12 11 11 10 8 7 5 3 0 1 1 1 3 1 1 3 3 4 5 4 4 3 8 6 4 6 8 6 4 4 6 7 8
26 26 25 24 23 22 19 17 16 14 13 12 12 11 10 9 8 5 2 2 1 0 1 1 2 2 3 3 3 1 2 7 5 6 5 1 2 8 7 5 4 5 6
26 26 25 24 24 23 20 18 17 15 15 14 13 13 11 10 9 8 5 3 1 1 1 1 1 1 3 2 4 1 2 5 3 9 5 3 3 1 5 4 4 4 3
26 25 25 25 24 23 20 19 17 17 16 15 15 14 12 11 10 8 8 5 3 2 1 2 1 1 0 1 4 3 4 6 4 5 5 6 6 5 3 2 3 6 3
27 27 27 27 26 25 24 23 21 20 18 17 16 15 14 12 10 11 10 7 6 4 1 3 2 2 2 2 6 7 7 6 5 4 4 7 5 3 2 2 3 2 7
30 29 28 28 28 28 25 23 21 20 19 18 17 16 15 14 13 12 12 8 6 4 3 3 3 1 1 3 2 4 6 7 7 3 4 5 4 6 5 4 4 4 4
32 32 32 30 28 26 24 22 19 18 17 18 20 18 16 14 13 12 10 9 8 6 5 4 4 3 1 5 3 4 3 2 9 7 6 4 4 4 5 5 5 5 4
35 33 32 31 29 26 26 24 24 23 22 21 21 19 16 15 14 12 11 11 11 7 5 4 5 4 4 6 6 6 4 5 4 6 8 7 7 5 4 3 5 5 5
33 33 32 31 31 29 28 26 25 23 22 20 20 19 20 16 16 14 13 13 12 10 8 6 6 7 7 6 7 6 6 7 6 6 4 10 9 9 7 6 4 5 5
32 31 31 31 32 32 31 31 28 26 24 22 20 20 21 21 19 18 16 15 14 12 11 9 9 10 9 7 8 7 7 6 6 7 5 4 5 9 9 9 8 8 7

GFSSE_925_spd_033.txt.gz
Wind_Speed
21 13 10 12 14 18 17 16 16 16 15 14 14 13 15 15 14 14 13 14 12 11 10 11 11 10 10 10 11 10 9 9 10 10 11 10 10 10 10 7 10 11 12
26 16 12 13 14 16 17 16 16 16 15 14 14 14 14 15 13 14 14 13 12 11 10 10 10 9 9 8 9 9 9 9 8 10 11 12 9 9 7 9 13 14 13
23 17 15 16 15 15 16 17 17 15 14 14 13 13 14 14 13 13 13 11 11 10 10 9 8 8 7 7 8 9 8 8 8 8 7 10 8 7 8 10 13 14 13
28 19 19 18 17 16 17 17 16 14 14 13 12 13 12 12 11 12 11 11 10 10 9 8 7 6 6 6 6 7 8 7 8 6 5 8 10 8 7 12 13 12 12
25 21 20 20 17 17 17 16 15 14 13 12 12 12 12 12 13 11 10 10 10 10 9 8 7 7 6 6 6 6 8 8 7 5 9 5 8 8 7 8 10 11 9
23 24 22 20 18 18 17 16 14 14 12 11 11 11 11 11 10 10 9 10 10 9 9 9 9 8 7 7 5 5 5 7 5 10 12 11 15 11 10 10 10 9 7
25 24 22 21 20 19 17 15 14 13 12 11 10 10 10 9 9 9 10 9 9 9 9 9 9 9 8 7 7 6 7 7 4 12 10 9 11 10 10 9 11 10 10
25 26 23 22 21 18 16 14 13 12 11 11 10 9 9 9 8 8 9 8 8 8 9 9 9 9 9 9 8 8 6 5 5 7 10 11 11 12 10 10 10 10 10
27 27 24 22 19 17 15 14 12 12 11 10 9 9 8 8 8 8 8 8 7 7 7 8 8 8 8 8 8 8 7 9 9 8 8 11 11 11 10 9 10 9 9
28 26 25 23 20 16 14 13 12 11 10 9 8 8 9 9 10 10 9 7 7 6 6 6 5 5 6 7 7 7 12 10 9 8 9 9 9 10 9 9 8 8 9
25 26 25 24 20 17 15 13 12 10 9 8 7 8 9 8 7 9 7 6 6 5 5 4 4 5 6 7 8 7 8 7 5 9 10 9 10 9 8 9 8 8 8
26 28 26 24 21 18 16 13 11 10 9 8 9 8 5 6 7 7 7 6 5 4 4 5 2 4 9 10 6 6 3 3 7 12 10 8 10 10 8 8 8 8 8
27 26 25 24 21 19 18 14 12 11 11 7 4 6 7 5 3 5 7 7 7 5 7 3 7 7 9 10 9 8 6 7 6 15 10 8 8 8 8 8 7 7 7
23 24 24 23 21 19 15 15 14 12 9 9 8 4 1 1 2 5 6 7 4 3 3 4 7 9 6 7 5 6 3 9 5 12 11 7 9 9 8 9 7 7 6
27 25 24 22 21 18 13 15 12 11 10 9 7 7 5 3 3 3 2 2 2 3 1 4 6 4 4 1 3 8 4 2 2 13 12 8 8 9 10 9 9 8 8
28 27 25 23 21 18 17 12 12 12 11 9 9 8 6 4 3 3 3 6 2 3 4 3 1 3 6 3 3 4 5 5 2 5 13 12 9 8 9 11 10 10 9
27 26 26 24 23 22 19 16 14 13 12 11 9 8 8 6 4 2 1 2 1 2 1 1 2 7 6 9 3 2 6 4 5 3 12 10 9 9 9 8 10 11 10
27 27 25 25 24 23 21 18 16 14 14 12 11 9 10 9 5 5 3 3 3 2 0 2 2 1 7 1 3 2 6 4 5 5 5 6 9 10 10 8 7 7 7
28 28 27 26 25 24 21 19 17 16 14 13 12 12 12 10 8 7 7 0 0 4 3 1 5 3 3 5 8 4 7 5 3 7 3 5 7 11 10 9 7 6 5
29 28 27 26 24 24 22 20 18 18 16 15 14 14 13 12 10 8 6 3 2 2 2 2 5 2 3 3 7 4 6 3 2 6 7 9 6 3 11 8 7 5 5
30 29 29 28 26 25 24 23 21 20 18 17 16 14 14 13 11 10 8 5 5 3 3 3 5 5 4 1 7 9 5 3 3 3 6 8 4 12 1 4 7 10 5
32 31 30 29 27 27 25 22 21 19 18 17 16 15 16 15 13 11 10 7 7 6 7 4 4 6 2 5 5 10 6 7 7 4 6 6 4 7 6 3 5 4 9
33 32 32 31 29 29 26 23 19 18 16 18 18 17 17 16 14 14 10 10 7 7 11 7 5 6 3 5 7 7 1 3 11 6 3 9 3 6 4 6 6 3 6
35 34 32 32 30 30 29 25 24 23 22 21 19 19 19 18 16 15 13 11 11 10 9 6 7 5 3 8 6 6 4 7 4 2 8 7 3 4 5 4 7 7 5
35 35 34 33 32 30 31 28 26 24 23 20 20 20 20 18 17 17 15 15 14 12 9 8 7 7 6 6 7 6 2 3 2 2 3 8 9 8 8 3 2 9 6
35 35 33 32 32 32 31 35 26 27 24 22 22 20 20 21 18 20 19 17 17 14 10 9 10 8 9 7 6 5 6 7 8 7 5 11 11 13 8 8 7 8 7

GFSSE_925_spd_036.txt.gz
Wind_Speed
14 11 16 12 16 17 15 16 17 17 19 16 17 17 16 17 17 17 17 16 14 13 13 13 13 13 12 12 12 11 10 11 11 11 12 14 13 11 9 8 14 14 14
21 14 16 13 16 15 15 16 16 18 16 17 16 16 16 17 16 16 16 16 13 12 12 12 11 11 11 12 11 10 10 9 10 10 11 12 11 10 11 9 14 15 14
21 16 16 16 15 16 16 16 16 16 15 16 16 16 14 15 15 15 14 13 12 11 11 10 10 10 10 10 10 9 10 10 11 10 11 9 10 11 12 15 15 15 15
20 20 17 17 15 16 16 16 15 15 15 15 15 14 12 14 14 13 14 12 12 11 10 9 8 8 8 8 8 10 9 10 11 10 6 9 10 10 11 14 14 15 15
21 22 19 18 16 17 16 15 15 14 14 14 13 12 13 13 12 12 12 12 12 11 11 10 9 7 6 6 6 9 10 10 7 8 10 10 14 11 11 13 13 12 13
19 19 21 19 17 17 16 15 14 13 12 12 11 12 12 11 11 11 12 12 12 12 11 10 9 8 8 6 5 8 9 7 6 13 16 17 14 14 12 13 12 12 12
18 18 22 19 18 17 15 14 13 12 11 11 10 10 10 9 10 11 11 12 12 12 12 11 10 10 8 7 6 9 8 9 9 14 15 12 15 13 11 11 11 11 13
20 21 20 19 18 17 15 13 12 11 10 10 9 9 9 9 9 10 11 11 12 12 11 10 9 9 9 8 9 10 8 7 11 16 14 14 15 14 12 11 11 12 11
25 24 21 18 16 16 14 13 11 10 9 8 8 8 8 8 9 10 11 11 11 10 8 8 7 5 6 9 10 10 11 13 12 9 13 15 15 13 11 11 11 11 10
29 23 23 20 17 15 13 12 11 9 8 8 7 5 5 5 5 9 10 10 9 8 7 6 4 1 0 5 9 11 12 7 9 17 15 13 12 11 11 11 11 11 11
30 26 24 21 19 17 15 12 11 9 9 8 6 5 7 7 5 6 7 6 8 7 6 4 2 0 3 2 6 8 8 9 13 11 10 12 12 11 10 9 9 10 10
29 29 26 24 21 18 15 14 11 9 9 8 7 1 8 8 9 5 5 6 7 7 4 2 2 3 8 8 8 8 8 10 16 12 13 12 12 11 10 10 8 9 9
27 29 28 26 23 19 20 15 13 13 14 11 9 5 9 9 12 10 3 6 6 9 5 7 2 6 14 8 14 7 7 7 21 14 13 12 12 11 10 9 8 8 7
30 30 30 29 23 19 21 15 18 17 15 16 11 6 13 3 9 7 9 8 5 12 7 5 6 9 4 9 11 5 5 17 15 12 13 10 11 11 10 8 8 7 6
25 29 31 31 26 20 17 16 18 15 10 11 9 1 1 6 8 2 8 6 7 10 3 4 6 5 4 5 3 6 7 13 13 10 10 9 10 11 10 10 8 7 7
24 27 30 30 28 16 14 11 9 12 11 5 11 10 5 3 7 1 4 3 8 7 6 5 4 2 4 4 1 5 8 8 13 7 10 10 9 9 10 9 8 7 6
25 27 30 29 26 18 19 10 8 7 9 10 3 11 9 6 6 3 4 6 5 3 6 6 4 4 5 8 6 3 5 8 9 13 7 9 10 9 8 9 10 9 8
32 29 31 26 25 25 18 15 11 11 11 9 11 9 9 8 3 3 1 6 4 1 6 3 9 9 4 9 1 4 9 7 6 18 11 13 10 9 8 8 9 10 9
31 31 29 27 29 28 21 18 18 15 12 12 9 10 11 11 7 3 2 4 4 2 1 5 2 3 8 6 3 10 7 6 5 8 11 11 14 9 9 10 10 8 7
28 30 27 26 25 29 24 22 19 17 15 13 10 10 15 13 9 7 7 5 1 4 2 2 4 3 6 6 7 9 8 4 6 9 8 11 18 14 9 9 12 8 8
29 30 31 27 25 29 26 23 19 20 17 16 13 12 13 10 10 11 5 5 7 4 5 6 2 2 3 2 4 9 5 4 1 4 14 14 17 11 9 11 11 8 9
33 32 33 31 30 29 27 25 23 19 19 19 17 14 14 12 12 11 10 7 6 6 6 6 4 4 5 5 1 7 3 7 6 5 13 10 4 14 9 10 8 12 11
33 34 35 34 30 29 26 24 22 19 19 21 20 18 19 16 16 15 10 10 7 6 9 5 5 2 4 6 2 3 2 2 6 6 7 13 7 10 6 11 12 8 13
33 36 36 35 33 30 30 26 23 20 19 18 20 19 20 20 20 18 15 11 10 8 13 9 6 2 4 6 1 1 1 3 2 1 8 12 8 7 10 12 13 11 11
34 37 37 37 35 31 34 26 29 24 22 23 19 21 23 25 22 19 17 16 14 14 12 10 8 8 4 4 7 7 4 5 3 3 1 6 8 11 12 8 15 12 13
33 35 35 36 36 33 33 38 26 29 24 22 24 20 20 20 23 21 19 20 18 16 12 11 12 8 9 7 7 9 8 5 7 6 3 8 14 13 15 11 8 13 12

GFSSE_925_spd_039.txt.gz
Wind_Speed
18 18 19 21 20 18 18 19 19 19 18 18 19 20 20 20 20 19 17 16 18 16 17 16 15 15 15 15 14 13 14 14 15 16 16 17 17 16 14 16 16 16 17
24 22 20 21 19 19 19 19 20 18 17 18 20 19 18 19 18 19 17 17 17 15 15 14 14 13 14 15 14 13 13 14 15 16 16 15 16 14 11 13 16 17 17
24 25 22 21 20 20 19 19 18 17 17 19 19 16 17 17 16 15 15 15 15 14 14 13 12 12 13 13 14 14 15 14 14 16 15 12 15 15 17 17 18 17 17
27 24 24 21 20 21 19 18 17 16 18 17 16 14 17 16 15 14 14 14 14 13 12 12 11 10 10 12 13 14 14 13 12 9 9 14 14 16 16 16 17 17 17
26 23 24 22 21 21 18 17 17 15 16 14 13 15 15 15 13 13 13 13 13 13 12 11 10 9 8 9 12 13 12 12 13 12 20 12 16 15 16 16 16 16 15
28 23 22 22 21 19 17 18 15 14 14 13 14 13 14 13 12 12 13 13 13 13 12 12 10 10 8 8 11 11 11 12 18 20 20 15 18 16 15 16 15 14 15
29 25 22 21 21 19 16 16 15 13 13 13 13 11 11 12 11 11 12 13 13 12 12 12 11 10 9 10 12 11 13 12 13 16 14 18 18 16 15 14 14 14 14
23 26 23 21 20 18 16 16 14 12 12 12 12 11 10 10 11 11 11 12 12 11 10 10 11 9 8 10 11 12 11 12 15 15 17 18 16 16 15 14 14 14 14
26 26 25 22 19 17 15 14 14 12 11 11 10 10 9 9 9 10 10 10 10 10 9 8 8 8 8 9 9 11 15 16 16 15 18 17 16 15 14 14 13 13 13
30 26 26 23 21 18 16 14 13 12 11 11 10 9 8 7 7 8 9 8 8 9 8 8 8 5 5 8 10 12 16 16 13 15 17 16 15 16 14 13 13 13 12
30 26 25 22 20 16 15 14 13 12 12 11 10 8 6 5 3 4 5 5 7 6 7 6 5 4 2 2 9 12 8 10 19 14 15 15 15 15 13 13 13 12 12
31 28 26 23 22 17 14 15 13 12 12 12 8 6 10 6 5 4 4 4 4 4 4 5 4 7 2 3 6 8 9 10 13 11 14 15 15 15 13 12 13 13 12
33 32 29 25 24 20 18 15 13 13 13 12 13 9 10 4 6 5 5 5 4 1 3 4 3 4 7 4 3 5 8 10 10 11 14 14 13 14 13 11 11 11 11
33 33 33 30 25 26 21 16 16 15 16 15 9 7 6 6 8 8 8 7 5 3 2 6 4 6 6 7 11 1 7 18 13 10 12 12 13 13 12 11 11 10 10
34 35 38 34 29 26 24 15 16 16 19 20 12 8 3 7 7 7 10 8 8 7 3 3 3 4 6 9 13 18 22 21 13 12 12 11 12 12 12 10 10 9 9
32 35 40 38 34 26 24 19 16 16 15 22 20 15 9 7 8 6 6 9 9 2 8 4 5 4 3 8 12 12 20 15 13 13 10 10 12 11 10 11 10 10 9
27 36 43 39 34 29 21 14 14 7 13 19 19 17 14 9 7 7 6 8 6 4 5 4 3 7 4 5 7 8 14 16 13 16 7 10 11 11 11 11 10 9 8
28 41 45 38 35 29 24 16 15 11 7 7 16 17 12 13 8 7 7 10 8 5 7 5 1 5 7 7 5 10 11 14 13 9 12 12 11 10 8 10 11 9 8
33 42 41 37 38 31 29 22 18 14 9 7 18 16 9 14 11 8 6 7 7 4 6 5 3 3 7 4 7 14 11 11 13 13 13 12 11 8 7 8 7 7 7
34 46 43 39 38 34 28 24 21 18 13 11 7 18 13 12 14 11 6 9 4 4 6 6 6 5 7 10 8 11 10 7 12 16 16 17 12 10 9 9 9 7 5
32 43 43 38 38 34 32 27 22 23 19 16 14 12 17 17 14 12 8 8 6 7 5 4 5 5 6 7 11 12 7 5 5 12 20 15 12 11 9 6 8 9 8
39 41 43 37 39 37 35 33 29 25 22 19 17 12 17 18 14 12 11 8 8 10 7 6 6 3 2 6 6 1 2 1 7 16 14 15 15 15 11 7 8 8 8
36 40 43 42 38 39 36 32 28 23 22 23 23 20 23 20 17 14 13 12 11 10 11 8 9 7 7 8 4 3 2 2 2 12 13 17 17 14 11 12 12 9 8
36 41 43 42 39 37 36 32 30 26 22 22 28 24 22 21 18 16 17 14 12 12 11 9 10 8 8 9 7 4 4 5 3 1 11 11 15 12 10 13 14 14 10
35 38 42 45 41 37 38 36 34 30 27 23 23 27 25 24 22 21 20 15 15 13 13 11 12 10 9 7 8 11 7 4 5 3 2 7 11 12 16 15 14 16 14
36 37 38 41 40 39 40 36 37 32 30 23 26 27 27 27 26 24 22 21 19 18 17 14 13 13 11 9 7 11 12 8 9 5 2 7 14 12 17 19 19 16 17

GFSSE_925_spd_042.txt.gz
Wind_Speed
17 18 23 20 20 20 21 21 22 21 20 21 21 21 22 21 21 20 20 19 19 18 17 16 15 14 14 15 15 15 15 16 16 17 17 17 17 17 16 16 16 17 17
25 24 25 21 21 22 21 22 22 19 21 20 20 20 20 21 19 19 19 17 17 16 15 15 14 14 14 14 15 15 16 16 17 16 16 16 15 16 16 15 17 17 16
27 27 25 22 23 22 20 22 19 21 20 18 19 20 19 18 18 17 16 15 14 14 14 13 13 13 13 13 15 16 17 18 18 16 16 17 17 16 16 17 17 16 16
29 28 26 23 24 22 20 20 20 18 17 16 18 19 18 18 17 16 15 14 13 13 12 11 11 12 12 14 16 16 17 15 12 13 16 17 16 17 18 17 17 16 15
29 28 24 24 24 21 19 18 19 17 16 15 18 18 16 17 16 15 14 13 12 11 11 10 10 10 12 13 15 14 13 12 11 14 15 18 19 17 17 17 16 15 15
30 27 25 25 24 20 21 17 17 16 15 16 17 17 15 15 15 15 14 13 12 11 10 9 9 10 11 13 13 14 13 14 16 19 15 17 18 16 16 17 14 15 15
30 27 26 24 22 20 19 16 16 15 15 16 15 15 14 14 14 14 13 12 12 12 10 10 8 9 11 13 12 15 13 12 18 16 18 18 18 16 16 15 15 15 15
30 27 26 24 21 19 18 16 14 15 15 14 13 14 14 13 13 13 13 12 12 12 11 10 9 9 12 13 13 13 12 13 14 16 18 17 16 17 16 16 15 14 14
29 28 26 23 20 18 18 15 14 15 14 14 13 12 13 12 12 12 11 11 11 11 9 9 9 9 11 12 11 12 12 14 14 18 17 18 16 16 15 15 15 14 14
30 28 27 24 21 19 18 15 14 14 13 13 12 12 11 11 10 10 9 9 9 10 8 8 9 8 7 10 12 12 12 13 14 17 18 18 17 16 15 14 14 14 13
29 28 27 25 22 20 18 15 14 14 13 13 12 12 12 13 11 10 7 7 8 7 6 5 6 7 6 9 10 10 9 10 12 15 16 16 18 16 15 14 14 13 12
27 29 28 25 23 20 18 17 15 15 15 12 10 10 9 11 8 8 7 5 5 5 6 5 5 5 3 6 8 9 9 9 12 14 15 15 15 15 14 14 13 12 12
32 30 28 26 23 21 19 18 17 16 15 11 9 12 11 10 8 5 7 5 3 1 2 3 4 5 7 8 10 12 9 8 10 14 14 14 14 14 14 13 13 12 10
30 31 28 26 25 21 19 19 19 17 17 14 13 10 12 10 9 8 7 6 4 1 3 5 6 5 6 8 10 12 11 10 11 13 14 13 12 13 12 12 11 10 9
29 33 30 28 27 24 21 20 20 19 16 14 11 10 8 12 11 7 6 5 3 5 3 3 4 5 5 7 9 12 14 13 12 13 13 14 12 12 11 10 10 9 8
32 36 33 31 29 27 23 22 20 16 15 15 15 11 10 11 10 8 5 5 6 2 4 1 1 3 4 11 15 16 16 16 13 13 11 12 12 11 9 9 9 8 8
33 38 38 35 32 29 27 21 18 14 20 21 18 15 10 10 10 7 9 8 4 4 4 3 2 2 4 13 14 16 17 16 13 13 11 9 12 11 10 8 7 7 8
32 35 39 38 36 32 27 21 16 12 18 18 22 17 14 12 10 9 8 9 8 6 4 7 2 3 3 4 4 14 16 14 14 9 10 7 8 10 10 8 8 7 6
33 39 39 36 39 35 30 25 19 15 11 17 23 20 16 14 13 10 7 10 9 6 6 5 3 6 6 5 4 12 15 13 14 9 10 8 7 7 7 7 6 7 7
35 43 44 40 42 38 34 28 23 18 13 9 19 23 19 18 15 11 7 10 7 5 5 8 6 6 8 11 9 10 14 14 14 9 11 10 7 7 7 8 8 6 4
32 41 42 41 44 41 36 32 27 24 20 14 10 21 20 18 16 14 11 11 7 7 6 7 7 9 8 8 14 8 6 9 17 14 11 12 10 9 7 7 6 6 6
34 40 41 43 46 44 40 37 32 30 24 20 12 14 23 20 17 15 15 13 11 8 8 7 6 7 6 7 6 3 2 3 7 19 15 16 12 10 9 8 6 6 6
34 40 41 44 48 46 41 36 31 26 25 22 20 18 17 24 19 16 15 13 12 11 10 9 8 6 6 8 5 4 2 2 3 10 16 18 15 14 12 11 8 7 6
36 41 41 44 48 46 43 37 33 28 23 30 28 22 19 24 23 19 15 15 12 14 12 12 10 9 10 12 6 4 3 10 3 0 6 15 18 16 17 16 11 10 10
40 40 42 45 46 45 44 40 37 31 32 26 28 26 23 26 26 23 18 18 17 16 16 12 14 12 11 13 12 9 6 6 6 3 3 5 15 16 17 16 14 12 14
43 41 41 42 43 45 46 43 40 37 36 33 26 29 30 28 30 27 21 20 18 19 17 16 16 16 13 12 12 12 11 6 7 4 2 6 13 14 17 19 17 16 16

GFSSE_925_spd_045.txt.gz
Wind_Speed
17 23 21 21 22 21 22 23 23 23 22 22 22 21 20 20 21 20 19 17 16 15 12 12 12 12 12 12 12 13 13 13 14 14 13 14 15 15 15 16 16 17 17
24 24 21 21 21 22 23 22 23 21 22 22 21 19 20 20 20 19 18 16 15 14 13 12 12 12 12 12 13 14 15 15 14 13 12 11 13 15 14 15 15 16 16
28 25 23 22 21 21 22 21 21 20 20 21 19 18 18 19 19 18 16 15 14 13 13 13 13 12 12 12 14 15 16 15 15 14 14 14 12 14 15 15 15 16 15
31 26 24 23 21 21 21 21 20 18 20 19 19 18 18 17 17 16 15 14 12 11 11 12 13 12 13 14 14 15 15 16 15 15 16 16 16 15 15 15 15 15 15
30 27 24 23 21 20 19 19 18 18 17 18 18 18 16 17 16 15 15 13 11 9 9 11 11 11 11 14 15 14 11 11 12 13 15 17 17 15 15 15 15 15 14
30 27 24 22 20 20 18 18 17 17 17 18 16 17 16 16 16 15 14 14 12 10 9 9 10 10 12 13 13 12 13 14 14 13 16 16 18 15 14 13 14 14 14
29 27 24 22 20 19 17 17 16 16 16 16 16 15 16 15 15 15 15 14 12 11 10 10 11 11 12 12 13 12 13 15 14 15 15 16 15 14 13 13 13 14 13
30 27 25 21 20 18 16 16 16 16 15 15 16 15 14 13 13 14 14 13 12 12 12 13 13 11 13 12 11 11 11 13 13 16 15 15 13 12 13 12 12 13 13
29 27 25 21 18 17 15 15 15 15 14 14 14 15 13 13 12 12 12 11 11 11 11 13 13 13 12 9 9 10 12 11 14 16 15 15 14 13 12 12 12 12 12
28 27 25 22 20 19 16 14 14 14 14 13 13 14 12 12 10 12 12 11 10 10 10 11 13 10 11 9 9 11 11 10 13 14 15 14 14 12 12 11 11 12 11
26 27 25 23 21 19 17 14 13 14 13 13 12 12 13 12 12 10 9 10 9 8 8 8 11 9 10 11 9 9 9 9 11 12 13 13 12 12 12 11 11 10 10
22 27 25 23 21 19 17 15 15 14 14 13 13 12 11 10 9 9 8 7 7 7 8 7 7 8 9 11 10 7 6 8 9 11 13 13 12 11 11 11 10 10 11
25 27 27 24 22 20 19 17 16 15 14 12 11 10 10 9 8 7 7 7 5 5 5 6 7 6 7 10 10 9 6 8 10 11 13 12 10 11 11 11 10 10 9
28 30 28 25 23 20 18 18 17 16 14 12 11 12 12 10 8 6 6 6 4 4 5 5 7 6 5 9 10 10 9 8 9 11 12 12 11 10 11 11 11 9 9
27 30 30 27 24 22 20 19 18 17 14 12 11 10 12 10 9 7 6 5 4 3 4 4 6 6 5 4 9 14 9 9 8 10 12 11 11 10 9 9 9 9 8
29 32 31 29 26 23 22 21 20 18 15 13 11 9 9 10 9 6 6 4 5 3 4 3 5 6 8 4 10 11 11 10 8 9 11 12 10 9 9 8 8 7 6
32 34 33 30 27 26 24 22 20 17 15 13 12 11 11 12 10 7 6 6 6 4 2 3 3 8 6 9 11 11 11 10 9 10 10 10 10 8 8 7 7 6 5
33 34 35 32 30 28 25 22 20 17 17 18 17 15 14 13 11 9 6 6 6 4 2 3 2 4 10 9 7 10 11 10 10 9 8 8 8 9 8 9 7 6 6
34 36 37 35 33 32 27 23 19 17 16 16 20 20 17 14 10 8 7 8 6 3 2 3 2 2 3 3 6 12 11 11 9 8 7 6 6 6 7 5 5 4 5
35 37 38 37 34 33 29 24 20 18 12 15 18 21 19 16 14 10 6 6 7 5 5 5 4 5 7 4 7 9 12 10 11 6 8 6 5 4 5 5 6 5 3
34 36 38 39 37 36 34 29 27 23 17 13 15 20 20 18 16 12 8 10 8 6 4 6 4 5 5 8 12 5 4 5 12 11 9 7 5 5 5 5 3 3 3
35 38 39 42 42 40 38 36 33 29 22 16 13 17 21 19 17 14 11 11 10 8 7 8 6 6 4 7 6 5 2 1 4 14 9 10 9 7 7 4 4 3 3
35 39 39 43 43 45 42 38 30 28 25 20 17 16 19 20 18 16 13 13 12 11 8 8 8 8 6 6 8 5 2 2 1 5 11 12 12 11 10 7 6 4 5
33 39 42 42 41 45 43 40 35 30 26 30 25 19 17 19 22 20 16 14 13 12 11 9 9 8 7 10 7 4 3 6 3 1 5 11 15 15 14 12 9 7 7
34 36 42 43 41 40 45 40 41 32 32 27 30 23 19 20 23 23 19 15 16 13 12 10 10 11 9 12 8 7 4 6 5 3 3 5 14 18 16 16 15 12 10
36 35 37 40 42 42 44 44 41 37 35 32 28 27 23 23 25 26 23 20 17 16 14 14 11 13 10 10 12 10 9 6 7 4 2 5 9 12 18 17 18 17 15

GFSSE_925_spd_048.txt.gz
Wind_Speed
19 20 21 20 20 21 20 20 19 18 18 18 19 18 17 16 15 14 13 12 11 11 9 9 9 10 11 11 11 12 13 13 13 14 15 15 15 16 16 17 16 16 16
25 21 23 20 20 21 20 20 19 19 18 18 17 17 17 16 15 14 13 13 12 11 10 9 10 11 12 12 13 13 13 13 13 13 14 14 14 14 16 15 16 15 16
26 23 23 20 21 20 21 20 19 19 18 17 17 16 16 16 16 15 14 13 12 12 11 10 10 11 12 11 12 13 13 13 13 13 13 15 14 14 15 15 15 15 15
27 24 23 21 22 20 20 19 18 18 16 17 15 17 16 15 16 14 12 12 11 12 11 11 11 12 12 13 13 14 13 13 13 14 14 14 14 13 14 15 14 14 14
28 25 23 21 21 20 20 18 19 17 17 17 15 15 15 15 15 13 12 10 11 12 11 11 11 11 12 12 12 11 12 12 12 13 14 15 15 14 13 13 13 13 14
27 26 23 21 19 19 17 19 16 17 16 15 15 15 15 15 14 13 11 10 11 11 11 10 11 11 11 10 10 10 10 10 12 14 14 15 16 13 13 12 12 12 13
28 25 23 20 20 18 16 17 16 16 15 15 16 16 15 15 14 13 13 12 12 12 11 11 11 11 10 10 12 11 13 12 11 14 15 14 13 13 12 12 12 12 13
29 24 22 19 18 17 16 16 16 15 15 15 15 16 16 14 14 12 11 12 11 13 12 12 13 11 11 9 10 9 12 11 12 13 13 14 12 12 12 12 12 12 12
27 25 22 20 17 16 15 15 15 14 14 15 15 15 15 13 13 11 10 11 12 12 12 13 13 11 10 9 8 8 9 10 13 13 12 12 11 11 11 11 11 11 10
26 26 22 20 18 16 15 14 14 14 13 13 14 13 13 11 10 11 10 10 10 13 13 13 11 10 7 8 8 11 9 11 11 12 13 13 11 10 9 10 11 10 10
26 25 22 21 19 18 16 15 14 13 13 12 12 12 13 12 11 10 9 7 10 11 10 10 12 9 7 9 8 8 8 9 9 10 12 11 10 9 9 9 9 9 9
25 26 23 21 20 19 17 16 15 14 13 12 12 11 11 10 8 7 8 6 6 8 10 10 9 10 8 8 6 6 4 7 7 9 12 10 9 9 8 8 7 8 7
25 24 25 22 21 20 18 16 16 15 13 12 12 11 10 8 6 6 7 6 3 5 7 8 8 7 8 7 6 3 4 6 6 8 11 8 8 8 8 7 7 7 7
25 24 28 24 22 20 17 17 16 16 14 12 10 9 10 8 6 5 5 4 4 6 6 7 7 6 7 8 7 5 3 5 7 8 10 9 7 8 8 7 6 6 6
24 27 30 26 24 21 18 17 17 15 14 12 11 11 9 8 6 6 6 5 4 4 6 7 6 4 5 7 9 8 6 4 7 8 9 10 8 6 7 7 7 5 5
28 31 31 28 25 22 20 18 17 15 13 11 10 9 11 9 7 6 5 4 4 4 5 5 5 4 4 4 7 9 5 6 5 7 8 8 7 6 5 6 5 5 4
31 32 32 30 26 24 21 19 18 16 14 12 10 9 9 9 8 5 4 4 6 6 5 6 8 6 4 6 6 7 6 6 5 7 8 7 7 8 6 5 4 4 4
30 32 32 31 28 25 23 21 19 17 14 12 11 11 9 9 9 7 6 5 6 6 6 5 7 6 6 4 5 7 6 5 5 6 6 6 7 5 6 6 5 5 4
35 33 33 32 30 27 25 22 19 16 15 14 14 14 12 11 10 8 7 7 5 4 5 6 5 6 7 5 7 7 5 5 5 5 4 4 5 4 5 4 3 4 5
35 34 34 34 31 29 26 22 19 16 16 16 14 16 16 14 12 9 7 9 7 4 2 2 3 4 6 6 8 7 5 4 4 3 3 2 2 2 3 4 3 4 5
33 35 35 36 34 30 30 26 22 20 16 13 15 14 17 15 14 12 9 8 8 5 4 5 2 3 7 8 9 6 4 4 7 6 5 4 2 2 2 3 3 3 3
33 37 38 38 37 33 33 29 25 24 20 14 13 15 18 17 15 14 11 10 9 7 5 6 3 2 5 8 4 4 2 1 1 9 7 7 5 5 5 4 3 4 4
32 36 39 39 39 36 34 30 23 22 20 18 15 15 18 18 16 16 14 10 10 8 7 6 6 6 5 6 8 3 2 2 1 3 8 8 9 9 8 6 5 3 3
32 35 39 41 40 39 37 34 31 27 23 26 23 17 16 18 19 17 16 12 10 9 8 7 6 6 6 9 8 4 3 3 2 0 4 8 10 11 11 10 9 6 4
29 33 38 40 41 41 40 38 36 33 27 25 25 21 18 17 18 19 17 13 11 11 10 8 8 8 9 11 8 6 4 3 3 2 1 4 10 15 15 14 12 10 8
32 33 36 40 42 42 42 42 41 37 34 28 24 26 24 21 19 19 19 17 14 13 11 9 9 8 10 9 11 7 6 4 6 3 2 5 7 6 16 17 16 15 14

GFSSE_925_spd_051.txt.gz
Wind_Speed
15 19 21 19 19 18 18 17 16 16 16 18 19 18 13 11 11 10 10 8 10 10 9 10 10 10 10 11 12 13 13 13 14 14 15 15 15 17 17 17 17 15 17
21 20 20 19 18 18 18 18 17 16 16 16 16 14 13 12 11 10 9 10 9 10 10 11 10 12 11 11 12 11 12 13 13 13 14 15 15 15 16 16 16 15 17
22 20 17 19 18 18 18 17 17 17 16 15 14 13 13 12 11 10 10 9 10 10 10 9 11 11 11 12 13 13 12 12 12 12 14 12 13 14 16 15 16 16 15
23 20 18 20 17 18 18 18 17 16 15 15 13 14 12 12 11 10 10 10 10 10 10 10 11 11 12 12 13 12 13 13 11 13 10 12 13 14 15 15 15 15 16
21 20 19 19 19 16 17 18 16 16 15 14 14 13 12 13 12 10 11 10 10 9 11 10 11 11 11 11 13 13 11 12 13 12 11 12 13 14 15 15 14 15 15
22 21 21 19 18 17 16 18 16 16 15 14 14 14 14 13 12 11 10 10 10 9 9 10 10 12 10 9 9 9 10 11 12 12 12 13 12 13 13 14 13 14 14
24 21 19 19 17 17 17 16 16 15 14 15 15 16 15 15 13 12 12 11 10 9 9 10 11 10 11 10 10 9 9 11 11 12 11 11 12 13 13 13 13 13 13
24 22 19 19 18 16 16 16 15 15 14 15 16 17 16 14 13 12 12 11 10 9 9 11 12 10 11 10 11 11 11 11 11 11 11 11 10 12 12 12 12 12 11
22 21 19 17 16 15 15 16 14 15 15 15 16 15 14 14 13 12 11 11 11 11 10 11 12 11 11 10 9 10 9 11 10 10 9 8 11 11 11 11 11 11 11
22 20 19 16 16 15 14 14 13 14 14 15 15 14 13 13 13 13 12 11 11 10 10 10 11 10 10 10 12 9 10 12 9 9 9 8 8 10 10 10 10 10 10
21 19 19 16 16 15 15 14 13 13 14 14 13 13 13 11 11 11 12 10 9 10 10 10 10 10 11 11 10 9 10 8 8 8 7 9 8 8 8 8 8 9 8
23 20 19 18 17 15 14 14 13 12 12 11 10 13 11 10 10 9 8 9 9 8 8 9 9 8 10 9 8 6 6 7 7 7 6 8 7 8 7 7 7 7 7
24 21 20 18 17 15 14 14 12 11 10 11 12 12 11 9 7 6 6 7 6 6 5 6 6 5 6 6 5 5 6 5 5 6 5 6 5 7 6 5 7 6 7
24 22 21 18 17 15 14 14 12 11 10 10 12 11 10 8 7 5 5 5 6 5 5 6 5 5 5 5 4 5 5 4 5 5 5 5 5 6 5 5 5 5 5
24 23 21 19 18 16 15 13 12 11 10 9 10 10 9 8 6 6 4 4 5 5 5 5 5 5 3 4 4 3 3 3 4 4 4 5 2 3 4 4 4 4 4
24 23 22 21 19 18 15 15 13 11 9 8 8 9 8 7 6 5 4 4 5 6 5 4 3 4 3 3 4 4 3 3 4 4 4 4 5 2 2 3 2 2 2
26 23 24 21 19 19 17 16 13 11 9 8 7 6 7 7 6 5 4 5 6 8 6 5 4 4 5 6 6 6 4 3 3 3 3 3 2 3 3 1 2 2 2
24 24 24 21 20 20 18 18 14 12 10 8 6 6 5 5 6 5 5 6 8 8 8 6 6 6 6 6 6 6 4 4 3 3 2 2 2 1 2 3 3 4 3
26 25 25 23 21 21 20 17 16 14 12 10 8 7 7 5 4 5 5 7 8 8 7 6 5 6 5 5 6 6 4 3 2 2 1 1 1 1 1 3 2 4 4
25 24 24 24 22 22 18 18 15 14 13 11 10 11 10 8 7 6 6 7 7 6 5 5 7 7 4 5 6 5 3 2 2 1 1 1 1 1 1 1 2 3 5
25 24 25 25 25 22 19 18 15 15 12 10 11 11 12 11 9 8 5 6 7 8 8 7 7 6 7 8 7 5 2 2 4 3 1 1 1 1 1 1 2 2 3
29 28 25 27 26 28 22 20 14 15 11 8 10 12 13 13 10 10 8 7 6 5 5 6 6 6 6 8 3 4 2 3 2 5 4 4 3 2 1 2 2 3 3
32 30 28 28 29 30 24 21 18 14 11 10 8 11 14 15 13 11 9 7 7 7 5 6 5 4 5 4 5 1 2 2 1 3 6 5 5 5 4 3 3 3 3
33 30 30 31 29 29 31 23 23 20 18 16 13 11 13 16 15 13 12 11 9 8 7 6 6 5 6 5 3 4 3 1 2 2 4 6 7 7 6 5 4 4 4
32 32 31 31 35 31 31 28 27 23 20 15 15 16 15 16 17 16 14 13 11 9 8 8 7 8 7 6 7 5 3 2 1 2 0 2 6 8 8 8 7 7 7
32 32 31 32 36 37 34 35 33 27 22 19 18 18 17 15 16 17 16 16 13 9 9 9 8 8 8 8 9 6 5 3 3 4 3 2 4 4 6 10 11 10 10

GFSSE_925_spd_054.txt.gz
Wind_Speed
17 18 17 17 18 16 13 12 11 11 12 13 12 11 11 10 10 10 10 12 11 11 12 11 10 10 11 11 11 10 11 12 14 15 14 15 15 17 17 14 16 15 16
23 19 19 18 17 15 13 13 12 12 13 14 14 11 10 9 9 9 11 11 11 12 12 11 11 10 10 11 11 11 11 12 13 14 15 15 14 14 14 14 17 15 16
24 19 18 18 18 17 15 14 12 13 13 13 12 10 10 10 9 9 10 11 11 12 10 11 10 9 13 12 11 11 11 12 12 12 11 13 12 14 14 15 16 16 16
24 20 19 17 18 17 16 15 14 13 12 12 12 11 10 11 9 10 10 10 11 11 11 12 11 11 12 12 12 12 11 10 12 10 12 14 13 13 14 16 15 15 16
23 21 19 18 18 17 16 15 14 13 13 13 13 11 11 11 11 11 10 10 10 12 11 11 11 11 12 13 12 11 11 13 13 9 11 12 14 13 15 15 15 13 15
23 21 18 20 16 17 16 15 14 13 13 13 13 11 12 11 11 10 10 10 10 10 11 10 11 11 10 10 11 11 10 14 10 11 11 11 13 12 13 13 15 14 14
24 22 18 19 17 16 16 15 14 13 13 14 13 13 13 13 11 11 11 10 9 10 10 10 10 12 11 10 10 11 11 12 11 11 11 13 12 14 13 13 13 14 14
23 22 19 16 16 16 16 15 15 13 14 15 15 13 14 14 13 12 11 11 10 10 11 10 11 12 12 12 13 11 13 10 10 10 13 12 11 13 13 13 13 13 13
23 22 19 16 14 14 15 14 15 14 15 16 15 14 14 15 13 12 11 10 10 10 10 10 11 11 12 11 12 11 14 11 10 9 10 10 11 11 12 12 12 12 11
22 21 20 17 15 14 14 13 15 14 15 15 15 13 14 15 13 14 13 11 9 10 10 10 10 10 12 13 11 12 15 12 10 9 10 9 10 11 11 10 10 10 11
21 21 19 18 16 14 14 11 12 13 14 14 13 14 12 12 12 12 12 10 9 9 9 10 9 11 13 12 12 11 10 8 8 8 11 10 9 10 9 9 8 9 9
23 22 20 18 16 15 15 13 12 12 13 12 11 10 10 11 9 10 8 8 9 9 9 9 9 11 9 11 7 7 8 8 8 8 9 9 7 8 8 7 7 7 7
24 22 19 18 16 15 14 14 13 12 12 11 10 9 9 10 9 7 7 7 7 7 7 8 7 6 6 7 6 8 7 6 8 8 7 7 8 7 7 7 7 7 6
25 22 20 18 16 14 14 14 13 12 12 11 10 9 8 8 8 6 5 5 6 6 6 6 6 6 5 4 7 7 7 6 7 6 6 6 8 5 5 5 6 6 5
25 23 21 19 17 15 14 13 13 11 12 10 10 8 7 6 6 7 5 4 4 5 6 6 7 6 5 5 5 5 6 7 6 5 7 5 6 4 4 5 3 4 3
25 24 22 19 17 16 14 13 12 11 10 10 9 8 6 6 6 6 5 5 5 5 6 5 5 6 6 6 5 5 5 7 6 4 6 4 4 3 2 2 1 1 1
25 24 23 20 18 16 14 14 12 11 11 10 9 7 6 5 5 5 5 4 5 4 5 5 5 5 8 7 6 6 6 7 8 5 5 5 3 2 1 1 0 0 1
24 24 23 21 20 17 15 14 13 12 11 9 9 8 7 6 5 4 4 6 6 5 5 6 7 7 7 5 7 6 6 6 7 5 4 2 3 3 1 1 2 2 2
24 24 24 22 21 19 15 13 12 12 10 10 9 8 7 5 6 6 5 5 6 6 6 9 7 6 7 7 8 7 6 6 4 7 4 3 2 2 2 2 1 1 2
25 23 23 22 21 19 16 14 13 13 11 10 9 7 6 6 6 6 6 6 5 7 7 6 6 3 5 5 9 7 5 4 4 4 4 4 3 2 2 1 2 4 3
26 25 24 24 22 21 19 19 17 15 13 11 9 9 8 7 6 6 5 7 6 6 4 6 6 5 6 6 7 6 2 2 3 1 2 2 4 2 2 0 1 1 1
29 28 26 25 23 22 21 19 17 16 13 11 10 10 10 9 8 7 6 8 8 7 6 6 6 7 6 8 4 4 5 8 4 3 2 1 0 1 1 1 0 1 1
31 31 29 28 26 24 21 19 15 14 10 11 11 11 11 11 10 8 7 5 8 7 9 9 8 7 10 7 5 6 2 1 2 4 5 3 2 3 1 1 1 2 1
34 31 30 29 28 26 24 23 22 21 18 16 14 12 11 12 12 10 9 8 7 5 4 7 6 7 6 9 6 7 4 6 3 3 5 4 4 5 4 4 3 4 4
34 34 32 30 28 28 28 25 25 22 19 16 15 12 11 11 12 12 10 7 6 6 7 5 5 6 7 5 7 6 4 3 2 7 2 5 4 5 6 6 5 4 5
34 34 34 33 31 30 30 29 26 24 21 19 18 16 15 14 13 13 12 10 8 7 7 8 7 6 7 6 6 5 6 4 4 4 3 3 3 1 3 6 7 7 7

GFSSE_925_spd_057.txt.gz
Wind_Speed
16 14 12 15 15 13 10 10 9 11 11 13 12 12 12 12 11 10 12 11 11 10 10 10 10 10 10 10 11 12 12 13 14 15 16 16 16 15 13 12 16 15 16
21 17 17 16 15 12 11 10 10 12 12 12 12 12 12 10 10 10 9 11 11 11 11 12 11 10 10 11 12 11 11 11 12 14 16 15 15 15 17 16 18 16 16
23 18 16 17 14 12 10 10 10 11 12 12 11 10 10 10 10 10 11 11 12 11 13 12 11 11 11 11 11 11 10 11 12 11 11 16 13 15 15 16 17 16 16
24 21 17 17 15 13 12 10 11 11 11 11 10 10 11 10 10 10 9 10 12 13 13 13 13 13 13 13 12 11 10 11 10 10 15 15 14 14 15 16 14 15 16
23 22 18 18 16 14 13 13 13 12 11 11 11 11 11 11 11 10 10 11 12 12 13 13 13 13 13 12 12 11 13 12 8 10 14 14 14 13 13 14 15 14 16
24 21 19 17 16 14 14 13 13 12 12 12 11 12 11 11 10 10 10 10 10 11 13 13 12 11 10 12 11 14 15 13 12 12 13 14 14 13 14 15 15 15 15
26 20 19 17 17 14 14 13 13 12 12 13 12 12 11 10 11 11 10 10 9 10 12 12 12 11 9 10 10 13 14 12 11 12 15 14 12 14 14 15 15 14 14
23 22 18 17 16 15 14 14 12 13 13 13 13 14 13 12 11 11 10 10 10 10 11 12 13 12 12 11 10 15 12 5 16 15 14 14 12 13 14 14 13 13 14
24 22 19 16 15 15 14 14 13 13 13 14 14 14 13 12 11 11 11 11 10 10 11 11 11 11 12 12 12 14 13 14 12 11 17 12 12 13 13 13 13 12 13
24 21 19 17 15 15 13 14 14 13 13 13 14 14 13 12 14 13 14 12 10 10 10 10 10 10 12 12 15 19 16 12 11 14 13 11 12 12 12 12 12 12 11
23 21 20 20 16 15 13 13 14 14 14 14 12 13 16 11 11 11 11 10 9 10 9 8 10 13 15 15 14 10 6 4 10 15 12 11 11 11 11 11 11 10 10
24 22 21 18 17 16 16 14 13 12 12 13 13 6 8 11 9 10 9 10 10 11 10 10 11 10 14 10 6 8 5 9 10 15 12 10 11 10 10 10 9 9 9
24 20 21 18 16 16 19 15 13 15 13 12 9 6 10 7 8 8 7 8 8 9 10 8 4 7 2 4 4 10 8 10 10 14 12 10 9 10 9 9 9 9 8
24 20 22 19 16 15 14 16 13 15 14 10 10 6 8 8 6 8 6 10 5 13 8 4 8 6 10 9 11 7 7 6 10 14 10 11 10 9 8 8 8 8 7
23 22 21 19 17 10 13 10 14 11 11 13 10 8 8 6 5 3 2 3 7 5 7 8 7 7 3 7 5 8 7 9 5 14 11 9 7 7 7 7 6 6 5
23 23 21 19 17 14 12 7 10 9 9 10 11 9 5 1 6 5 2 3 1 4 7 5 6 6 5 7 5 6 10 9 7 14 12 9 6 5 5 5 5 4 4
23 23 23 20 19 16 11 11 12 12 11 9 11 9 7 2 3 4 5 4 5 2 5 6 4 4 6 10 8 4 10 9 8 8 8 7 4 5 4 4 4 3 3
24 24 23 21 20 18 15 14 12 12 14 12 9 9 7 4 3 2 6 5 7 5 9 8 5 4 4 8 8 14 10 10 6 6 9 4 3 6 5 3 2 3 3
24 24 23 21 21 19 15 15 12 12 10 10 11 11 10 6 5 4 0 5 5 3 4 5 7 2 5 4 13 9 8 6 6 8 4 4 4 8 9 4 3 3 1
25 25 23 22 21 19 17 14 14 14 10 10 12 13 11 9 6 5 5 3 3 2 8 5 3 3 2 4 7 10 5 5 3 6 5 6 5 4 11 1 5 4 3
27 26 25 23 22 21 19 18 16 17 14 14 12 8 8 9 7 6 9 5 5 7 3 8 5 1 2 4 6 9 4 3 5 3 3 7 4 4 1 2 4 6 4
29 28 27 25 22 23 20 19 16 15 15 12 11 11 9 9 9 8 7 7 6 3 5 5 5 8 4 4 5 10 4 7 7 3 3 3 3 1 5 4 1 2 1
32 31 29 28 25 24 21 19 15 14 11 12 13 11 12 11 10 8 7 6 7 4 9 7 5 10 3 7 8 5 3 1 8 6 5 4 3 5 2 3 3 3 3
34 32 30 29 27 26 24 22 20 18 17 16 14 15 16 13 11 10 9 7 9 6 7 8 9 11 8 9 5 6 3 5 3 3 6 4 4 4 5 5 7 6 5
35 34 32 31 29 27 28 23 24 21 19 17 16 16 11 15 13 12 11 9 8 7 6 5 4 8 7 10 8 7 3 3 4 4 5 10 6 3 4 4 4 4 6
36 35 34 33 32 30 30 30 24 25 21 19 17 16 15 15 14 13 12 11 10 8 8 8 6 6 8 6 6 5 11 9 9 6 1 5 4 3 2 4 5 6 6

GFSSE_925_spd_060.txt.gz
Wind_Speed
13 14 12 9 11 11 10 11 11 11 13 14 13 13 13 13 13 15 14 13 13 12 11 11 11 12 13 14 15 15 16 16 18 20 20 18 18 17 13 18 19 17 18
18 14 15 15 14 11 13 13 13 13 14 14 13 13 13 13 13 13 13 13 13 13 12 11 11 12 14 14 14 13 14 16 16 17 18 18 18 17 19 17 18 18 18
21 18 17 16 13 12 12 12 13 14 14 14 13 13 13 13 12 14 13 13 12 13 13 11 13 12 13 13 13 14 14 14 15 15 17 16 16 16 18 18 17 17 18
22 20 17 16 13 13 11 12 13 14 13 13 13 13 13 12 11 12 13 13 13 13 14 14 14 14 14 13 12 14 14 13 13 14 17 17 15 15 16 18 16 17 17
24 20 17 15 15 14 12 13 12 13 13 13 13 13 12 12 12 12 13 13 13 14 14 14 15 14 13 12 13 15 14 12 13 18 18 18 15 14 15 15 16 16 16
25 20 19 16 15 15 14 13 14 13 14 12 13 13 13 12 11 11 12 12 13 13 13 13 12 13 13 12 15 17 16 14 13 17 17 17 15 17 16 15 16 16 16
26 22 17 16 15 16 15 14 14 14 13 13 14 13 12 12 12 10 12 12 12 13 12 13 11 11 11 12 16 16 14 14 17 19 19 15 16 16 15 15 15 15 15
25 22 18 17 15 15 14 15 14 14 15 15 14 13 13 13 12 11 11 12 12 12 12 12 12 12 12 13 16 15 14 15 18 20 18 15 15 15 15 14 15 15 14
28 21 17 16 15 14 14 14 15 15 15 15 14 14 14 13 12 12 12 13 13 13 12 12 12 12 13 14 15 15 14 18 16 17 16 15 15 15 14 14 14 14 14
27 22 22 18 15 14 13 14 15 14 15 15 14 14 16 16 14 13 14 13 12 12 12 12 13 15 18 18 18 16 14 15 21 17 16 15 14 14 13 13 13 13 13
26 25 21 21 17 16 13 14 15 14 14 13 13 14 14 12 12 11 12 14 13 12 11 10 10 11 14 17 16 9 5 10 21 16 18 15 13 13 13 12 11 11 11
25 26 25 25 20 19 15 16 13 13 12 12 12 10 7 8 12 10 11 12 12 11 10 9 8 5 4 3 5 7 7 25 21 17 18 13 13 12 11 10 10 10 9
25 25 27 28 20 22 16 19 14 14 14 10 9 5 10 11 12 8 6 9 11 13 9 6 10 8 6 5 10 5 8 25 24 19 16 13 13 10 11 10 10 8 8
22 27 26 21 15 23 17 18 13 15 18 12 8 4 9 9 8 4 1 6 7 11 8 6 4 7 5 8 9 13 8 22 17 18 16 13 11 10 10 10 9 7 7
22 28 26 23 16 18 17 17 15 21 18 16 9 4 5 2 6 6 7 8 4 8 9 9 6 16 7 10 10 12 12 19 18 17 15 11 11 10 9 8 7 6 5
24 25 26 22 14 14 14 6 17 18 21 12 9 8 4 3 4 6 2 4 7 6 10 8 7 11 12 11 9 12 10 15 16 12 14 10 8 8 7 6 6 5 4
24 22 25 22 16 12 10 9 7 7 7 9 14 10 6 2 4 2 4 2 3 9 6 5 1 7 10 10 12 10 12 11 12 12 8 7 7 7 6 5 4 5 5
25 24 25 21 20 14 10 9 8 13 5 10 8 6 7 4 4 2 0 4 7 7 3 6 1 5 11 16 13 10 10 10 9 8 10 8 6 6 5 3 4 3 4
24 26 25 20 21 18 16 14 9 10 10 13 12 10 8 6 6 9 6 6 6 1 9 3 2 2 8 9 12 16 8 12 11 8 8 7 10 7 5 3 4 3 2
26 27 26 21 23 20 17 15 14 8 10 6 13 13 10 6 4 1 7 5 4 4 1 9 6 4 3 10 14 13 8 7 10 8 8 12 7 10 8 2 4 4 2
30 29 24 22 28 24 18 16 15 15 10 9 14 7 11 9 6 4 4 6 2 3 8 4 5 2 5 8 5 11 4 4 5 11 11 10 4 14 7 3 5 3 4
30 31 25 23 29 26 21 19 16 19 19 16 16 16 12 10 6 6 7 5 6 7 7 2 4 5 4 1 4 11 1 6 12 5 9 6 5 8 11 6 2 5 5
32 33 30 27 29 28 20 20 16 15 17 20 24 16 12 11 6 8 6 6 5 5 9 7 6 4 7 4 1 2 2 0 3 6 3 7 3 2 10 5 7 5 4
33 33 33 28 28 31 25 22 17 13 12 16 20 17 18 15 12 9 8 5 5 4 5 5 5 4 4 3 4 4 2 2 1 2 9 14 5 7 6 7 12 11 8
35 35 34 33 28 28 31 23 23 18 17 16 18 22 22 18 14 14 12 10 8 7 7 8 6 3 6 13 5 8 5 7 7 6 2 7 8 10 10 2 8 14 10
34 36 35 36 34 31 36 28 25 26 18 14 16 25 22 21 18 14 14 12 10 8 8 8 6 7 4 2 2 5 8 4 3 8 5 4 14 10 8 8 8 6 10

GFSSE_925_spd_063.txt.gz
Wind_Speed
16 19 16 14 13 12 13 12 14 14 17 15 17 17 15 16 16 15 15 15 14 14 14 15 15 14 15 16 17 18 20 21 22 23 22 21 19 22 21 21 21 21 22
22 21 16 16 16 14 14 15 16 16 17 16 17 15 14 15 16 16 15 15 16 14 14 15 14 14 14 15 16 17 19 21 21 21 21 21 21 21 19 22 21 21 20
22 20 18 18 16 15 16 17 18 17 16 16 16 14 14 14 15 16 15 16 15 14 15 14 14 14 14 15 15 16 17 17 18 19 21 21 21 19 20 20 19 20 19
24 24 22 18 16 15 16 16 17 16 15 15 14 14 15 14 15 15 15 16 16 16 16 15 15 15 14 15 16 17 16 15 16 18 21 20 19 18 19 19 18 18 18
28 24 21 19 17 15 16 16 15 15 15 15 14 14 14 14 14 15 15 16 16 16 16 16 15 14 14 16 18 17 17 21 20 20 20 18 19 17 17 17 16 16 16
31 24 22 20 18 16 17 16 16 16 15 15 14 14 14 14 14 14 14 14 15 15 14 14 15 13 16 19 18 17 18 15 21 18 18 18 19 17 17 16 15 16 16
28 26 22 19 18 17 16 17 16 16 16 15 14 13 13 13 13 14 14 14 14 13 13 11 11 13 15 17 18 17 15 19 20 18 17 19 17 17 15 16 15 15 14
31 26 21 20 18 18 17 17 16 16 16 16 14 13 14 13 14 14 14 14 14 14 13 12 12 14 16 17 18 20 20 19 16 17 18 18 16 16 15 14 14 14 14
30 27 23 21 19 17 17 16 17 17 17 16 14 15 14 14 14 14 14 14 13 12 11 12 14 15 17 17 15 15 18 15 14 17 17 17 15 15 14 14 13 13 12
29 27 22 21 20 19 18 17 17 17 16 16 15 14 15 15 14 14 15 14 12 11 10 9 10 11 11 10 11 16 12 14 16 15 18 17 15 14 13 13 12 12 12
30 27 23 22 20 19 19 17 17 16 16 17 17 17 15 16 14 10 13 13 11 10 10 11 12 12 10 8 10 10 12 13 14 18 18 17 14 13 12 12 11 10 10
32 30 27 24 24 19 17 18 18 18 18 17 17 14 12 12 11 11 12 11 10 11 11 12 14 12 6 4 2 4 13 18 16 18 18 15 13 11 11 11 10 9 8
35 32 31 28 24 24 21 18 18 17 15 14 10 12 15 19 12 12 13 9 9 10 12 11 12 8 18 2 5 3 18 16 18 17 16 14 10 11 10 10 8 8 8
32 37 31 29 29 22 23 20 18 16 16 14 10 7 9 11 8 9 9 9 6 8 8 10 10 7 9 9 7 11 24 17 15 17 15 13 11 11 9 9 8 7 6
32 36 32 33 30 24 22 18 17 18 18 15 14 10 11 5 7 13 11 6 7 8 7 10 10 8 9 10 20 21 18 15 16 14 12 9 10 8 8 7 6 6 5
36 37 32 30 27 22 22 18 15 18 20 20 15 11 11 6 7 9 9 7 7 9 8 10 9 8 10 8 13 21 19 16 13 12 12 10 8 7 6 6 6 5 5
34 38 31 28 23 19 21 17 12 12 17 22 16 12 9 7 9 7 10 10 11 8 6 5 3 11 10 15 15 19 17 14 8 10 11 10 8 7 5 5 5 5 4
37 36 30 26 22 18 16 10 12 17 19 21 20 15 13 8 7 8 6 10 7 7 5 5 8 13 12 14 15 16 14 8 6 8 8 8 7 7 4 5 4 4 4
41 37 30 27 25 21 19 12 10 13 14 17 12 15 13 8 7 9 12 10 6 6 5 5 4 10 15 15 14 17 15 11 10 9 8 8 5 4 4 4 5 3 2
41 35 28 30 24 22 17 14 10 10 10 14 11 13 11 8 7 8 11 10 7 10 3 7 3 6 11 15 12 12 12 13 12 11 11 11 9 8 6 5 5 2 1
39 35 30 33 27 23 20 19 14 13 14 15 20 14 13 9 9 7 9 8 5 7 9 5 6 5 7 20 10 7 8 9 11 13 12 13 13 11 10 6 4 2 3
38 37 33 33 32 29 25 22 17 16 14 14 18 8 13 13 10 9 10 8 5 9 6 5 3 4 5 7 5 4 2 2 6 7 16 14 12 10 11 8 4 5 3
35 40 37 34 36 32 27 25 16 19 18 16 17 16 16 16 8 9 8 7 7 8 7 4 5 4 4 1 5 3 2 2 1 5 15 10 6 11 10 10 6 5 6
35 40 39 33 38 34 28 29 21 18 18 19 23 20 20 17 11 10 10 10 10 7 11 7 4 2 3 2 2 4 3 3 2 1 6 8 8 7 11 12 10 10 7
38 37 41 36 37 36 31 28 25 19 20 25 25 27 24 19 14 12 11 11 9 8 11 9 5 8 3 3 5 4 7 7 4 1 1 7 13 12 13 10 12 13 11
36 36 39 40 41 39 36 30 28 24 20 16 31 27 24 21 19 17 15 11 10 9 9 9 8 7 6 4 4 2 4 2 1 6 4 6 10 10 15 12 10 10 9

GFSSE_925_spd_066.txt.gz
Wind_Speed
24 20 17 16 16 14 16 16 17 18 18 20 19 16 17 15 14 14 13 13 14 13 14 13 15 16 18 18 18 19 21 22 22 21 20 20 19 20 21 19 19 19 18
28 21 18 17 16 15 16 17 18 17 18 19 16 16 15 14 15 14 14 14 12 13 13 14 15 16 17 17 18 19 20 21 22 21 22 21 19 20 19 18 18 18 17
27 23 19 19 17 17 17 18 18 17 18 16 15 16 15 15 14 13 13 14 13 13 13 15 15 15 16 17 17 18 19 20 20 20 21 21 19 19 18 18 18 18 16
29 25 23 19 19 18 18 19 18 17 17 16 15 16 15 14 14 14 14 14 14 13 14 14 14 15 15 17 18 17 15 16 18 19 20 19 18 18 17 17 17 16 16
28 27 23 21 19 19 18 18 17 17 16 16 16 15 14 14 16 15 15 15 15 15 14 15 14 14 14 15 15 18 17 20 18 17 18 19 19 17 17 16 15 15 15
29 26 23 21 19 19 19 18 17 17 16 14 15 15 14 13 14 15 14 14 14 14 15 14 14 14 15 16 17 19 17 18 17 17 18 18 19 16 15 15 15 14 14
29 26 22 21 19 19 18 17 16 16 17 16 15 14 14 13 13 13 14 13 13 13 12 13 14 15 16 16 14 15 17 16 15 17 18 17 15 14 14 14 13 13 13
30 26 22 21 20 19 18 17 17 17 17 16 15 14 13 14 13 13 12 12 12 12 11 11 13 16 18 16 17 16 16 13 15 18 17 17 15 14 13 13 12 13 12
29 27 24 21 19 19 19 17 17 17 17 16 15 14 13 13 14 13 12 12 11 11 11 11 13 14 14 15 16 14 13 10 14 17 17 16 13 13 12 12 11 11 10
29 26 24 22 20 20 19 18 17 17 17 16 16 15 14 14 14 13 13 12 11 10 10 11 14 14 14 13 14 13 9 12 12 14 16 15 14 12 11 10 9 10 8
28 26 23 21 21 20 20 18 18 17 17 18 17 17 17 16 15 14 14 12 11 11 11 11 12 13 13 12 11 9 7 10 10 13 15 14 12 11 10 9 8 9 8
28 26 24 22 21 21 20 20 19 19 20 19 17 16 13 13 13 15 14 12 12 12 13 13 11 10 11 10 7 7 7 8 11 13 14 13 11 10 8 7 7 7 7
34 30 27 24 21 23 23 22 21 21 20 18 15 10 10 12 13 14 14 13 12 12 12 10 9 10 10 6 7 5 13 11 13 13 13 12 10 9 8 6 5 6 6
32 31 29 24 24 24 24 25 24 21 18 16 18 13 14 14 13 15 13 13 11 9 8 8 10 11 11 10 12 14 13 12 12 13 12 10 10 9 8 6 5 5 5
29 32 31 28 25 26 27 25 22 19 16 14 16 16 13 11 13 11 12 10 10 8 8 12 10 9 10 10 12 16 16 12 13 11 11 8 8 8 7 6 5 4 4
32 32 34 31 26 27 25 21 19 17 17 15 18 16 12 12 13 11 12 10 11 9 8 6 6 6 8 12 17 18 16 13 13 10 10 8 7 6 5 5 5 5 3
36 36 36 33 28 25 20 17 19 20 17 19 16 14 12 14 11 10 12 13 10 9 8 7 6 7 5 16 20 15 14 13 13 10 9 8 7 5 4 4 4 4 3
35 37 36 31 28 24 20 17 17 21 20 19 17 15 10 12 12 11 13 12 10 7 9 7 8 12 10 17 15 14 11 11 9 7 8 6 6 5 4 3 3 3 4
44 39 37 33 28 24 17 15 15 16 22 24 18 16 13 11 9 12 12 13 9 8 5 9 9 14 13 13 12 12 12 10 9 7 7 7 5 5 4 4 3 2 3
45 42 37 32 28 24 18 14 16 18 21 24 19 16 14 12 10 13 14 9 8 9 7 11 11 13 15 14 14 13 11 12 11 9 8 8 8 6 5 6 6 4 3
41 39 36 33 29 26 22 17 18 18 21 21 18 16 15 14 13 13 13 9 8 8 10 10 10 8 15 13 10 9 9 11 14 15 12 13 12 10 9 8 8 7 6
39 41 39 36 31 29 27 21 19 14 15 17 21 18 15 14 14 14 14 12 8 11 8 9 8 8 8 14 6 3 2 4 11 18 17 17 16 13 13 11 9 9 6
36 40 41 37 32 30 26 21 17 13 17 21 21 17 16 14 13 13 14 12 8 12 11 8 7 9 7 7 6 2 2 3 3 3 8 18 14 17 14 11 9 8 6
36 42 40 39 35 30 28 26 24 20 18 21 24 17 18 16 13 15 14 13 12 12 11 8 7 7 5 4 3 3 3 1 2 3 3 10 12 12 12 13 11 9 7
37 39 41 41 38 34 31 30 27 17 23 22 22 22 20 20 17 17 15 14 13 11 10 8 9 7 4 4 3 3 3 2 2 2 2 4 10 12 12 14 12 14 13
35 36 40 41 41 38 34 31 32 26 21 22 25 25 23 22 21 18 17 16 14 13 14 11 9 7 7 4 2 2 2 3 2 3 2 6 7 8 13 16 16 15 14

GFSSE_925_spd_069.txt.gz
Wind_Speed
20 19 16 15 16 15 15 15 14 15 16 15 14 14 13 13 13 12 13 13 13 13 13 14 14 15 15 16 17 18 18 18 18 17 18 18 18 17 18 18 17 18 18
28 21 17 16 16 16 14 15 14 15 15 13 13 13 12 13 13 12 12 12 13 13 13 14 14 15 15 17 18 17 18 18 18 18 18 17 16 17 17 17 16 17 17
27 22 19 17 16 17 16 15 14 14 14 12 13 12 13 13 12 12 12 11 13 12 12 13 14 14 16 16 17 17 17 16 17 17 18 18 17 16 16 16 16 16 16
27 22 20 18 16 17 17 16 14 13 13 12 13 12 12 11 11 11 12 11 11 12 13 13 13 13 14 14 15 16 17 16 16 18 19 16 15 14 15 16 15 15 15
27 23 20 19 17 18 18 16 14 13 12 12 12 12 12 12 12 11 12 12 12 12 13 14 13 13 14 14 13 12 13 14 15 16 17 16 16 15 15 14 13 14 15
26 24 20 18 18 18 17 16 15 14 13 13 12 11 11 12 12 12 12 11 12 12 13 12 12 13 13 15 15 17 16 14 15 16 17 16 15 13 13 14 13 13 13
27 22 20 18 18 18 17 16 15 14 13 13 12 12 11 11 12 12 12 11 11 11 12 12 11 14 16 15 12 13 12 12 14 17 17 15 14 13 13 12 13 13 12
27 23 19 17 17 18 17 16 15 14 13 13 12 11 11 11 11 12 11 11 11 11 11 12 11 14 13 12 14 13 11 11 15 15 15 14 13 13 12 11 11 12 10
26 23 20 18 16 16 16 15 15 14 13 12 12 10 11 11 12 12 12 12 12 12 11 11 14 14 15 13 13 11 9 11 14 14 14 14 13 11 11 11 11 11 10
26 23 21 18 17 15 15 14 14 14 13 12 11 10 11 12 12 12 13 12 12 11 12 13 14 13 13 12 12 8 8 11 11 13 12 12 11 11 9 10 9 9 8
24 23 22 20 19 18 17 15 14 13 13 12 11 11 12 13 12 12 12 11 11 11 12 14 14 12 12 12 8 6 6 7 9 11 11 11 9 9 8 9 8 7 8
24 24 22 21 20 19 18 16 16 16 15 15 14 13 13 11 12 11 10 9 10 12 13 13 12 11 11 8 6 5 5 6 8 10 11 10 8 7 7 6 7 5 5
30 26 23 22 21 21 20 19 19 19 17 16 14 12 12 11 11 11 12 11 10 12 14 12 11 10 8 5 6 6 6 5 8 10 9 7 8 7 6 6 4 5 4
30 27 25 23 23 21 21 20 21 19 17 16 13 10 12 12 11 11 10 11 10 9 9 8 10 11 5 5 7 8 7 7 9 9 10 7 7 6 5 4 4 4 3
27 28 28 25 24 22 22 22 21 18 15 14 13 11 12 11 12 11 11 9 8 6 7 8 8 7 5 6 9 11 8 7 8 8 9 6 7 5 5 4 3 2 2
27 29 28 26 24 24 24 24 21 16 13 13 13 14 12 7 12 12 11 9 7 7 6 4 2 3 4 4 12 11 9 6 8 7 7 7 6 5 4 4 3 3 2
30 30 29 28 25 25 24 21 18 16 13 12 14 14 14 11 13 10 11 9 8 6 6 5 3 5 3 6 12 11 10 8 8 7 6 6 5 4 3 4 3 3 3
30 32 30 27 26 25 23 19 18 17 16 14 15 14 12 14 11 12 11 10 7 6 5 4 6 7 5 9 12 10 9 7 7 7 5 5 4 3 3 3 3 3 4
37 34 32 29 28 27 22 17 18 21 19 15 16 14 12 12 13 12 12 9 7 6 6 5 8 10 9 9 10 10 8 7 6 7 6 5 4 5 4 4 4 4 5
38 38 37 33 29 27 22 17 16 20 23 19 19 15 12 11 10 14 12 11 8 8 7 7 8 11 8 10 7 7 9 8 8 9 7 7 6 6 6 6 6 6 6
33 37 38 35 32 30 23 21 15 14 19 22 19 14 14 12 9 11 14 10 9 10 9 9 6 7 7 7 7 9 8 10 13 14 12 10 10 9 10 9 8 8 7
38 40 40 37 36 34 27 21 18 16 18 20 20 17 13 12 12 12 13 11 10 11 12 11 8 8 8 11 5 2 2 4 11 15 15 15 14 13 13 12 11 9 9
32 35 42 41 37 33 28 22 17 17 18 21 20 18 15 13 13 13 12 11 7 10 10 9 6 7 7 13 8 2 1 2 3 3 10 17 17 15 15 14 13 10 10
36 41 44 42 39 34 31 27 22 20 18 16 19 20 16 14 13 13 12 12 9 12 10 8 7 7 6 8 5 4 2 1 1 3 3 6 9 14 14 13 13 11 11
39 39 43 43 40 36 34 31 27 22 20 18 21 21 16 17 14 14 14 14 12 11 12 10 9 8 6 6 3 1 1 1 2 1 2 3 7 10 9 10 12 12 12
37 38 40 43 43 37 37 33 30 27 22 21 19 22 20 18 18 16 15 15 15 14 12 12 11 9 8 6 3 2 2 1 1 1 1 2 4 5 7 11 13 14 13

GFSSE_925_spd_075.txt.gz
Wind_Speed
15 14 16 13 14 14 15 16 15 15 15 14 13 12 11 11 12 11 11 12 12 13 13 14 14 14 14 13 14 14 16 18 18 17 18 19 19 18 19 20 18 19 19
21 16 18 15 14 14 14 14 15 14 15 12 12 12 12 11 11 12 10 10 11 12 12 11 13 13 13 13 13 14 15 16 18 18 17 18 18 18 18 19 17 18 19
21 17 16 15 14 14 13 14 15 12 14 11 12 13 13 11 12 10 11 11 10 11 11 12 12 13 12 13 13 15 15 17 17 18 17 15 17 18 17 17 18 17 18
20 17 15 16 13 13 13 13 13 11 12 11 12 11 11 11 10 11 10 11 11 11 11 10 12 10 12 14 14 15 14 14 17 14 14 16 15 16 17 17 17 18 17
18 16 15 16 13 12 12 12 12 10 11 10 10 11 11 10 12 13 11 11 11 11 11 11 10 10 12 14 14 14 15 15 14 14 15 14 14 14 16 16 15 16 15
17 15 15 14 13 11 11 11 10 9 9 9 9 12 11 12 12 13 13 11 12 11 11 11 10 10 10 12 13 14 13 15 14 13 14 14 13 14 15 14 15 14 15
18 15 14 14 13 11 10 9 9 9 9 9 9 10 11 12 13 12 13 12 12 12 12 12 10 13 14 15 13 13 13 13 12 12 12 12 13 13 14 13 13 14 14
18 16 14 14 13 12 11 9 9 8 8 9 11 10 10 11 12 12 12 12 12 12 12 12 12 11 13 14 12 12 12 12 11 11 11 12 13 13 12 12 11 11 13
15 15 14 12 11 12 9 9 9 9 9 8 9 11 10 12 12 11 12 13 11 12 12 12 12 14 13 13 12 11 11 11 11 11 10 10 11 12 11 11 10 10 11
14 13 13 12 10 10 9 10 9 9 9 8 10 11 11 13 12 12 13 13 12 12 11 11 12 13 13 10 11 12 11 11 9 8 9 9 10 9 9 9 9 10 10
14 13 13 12 11 10 10 10 9 9 9 10 10 11 11 11 11 11 13 12 11 11 11 11 11 11 10 11 9 9 10 7 7 7 8 7 7 8 7 7 8 8 9
16 15 13 12 12 12 10 11 9 9 8 9 9 10 10 11 11 11 11 11 10 10 10 9 8 7 8 6 7 7 7 6 6 6 6 7 6 6 5 6 6 6 7
16 15 14 14 12 12 11 11 10 10 9 9 10 10 10 10 10 9 9 10 9 9 7 5 5 4 5 4 3 4 5 5 5 5 4 5 4 4 4 4 5 5 5
17 15 15 14 14 12 11 11 11 11 10 9 8 9 10 8 9 8 8 8 8 6 5 3 3 3 5 5 2 2 4 4 4 4 3 4 1 3 4 5 4 3 2
17 16 16 15 15 13 12 11 11 10 9 8 7 6 7 7 9 8 8 7 6 5 4 4 4 4 6 5 4 4 4 4 4 3 3 1 2 3 1 3 4 4 4
18 17 17 16 15 14 13 14 11 9 8 6 5 6 7 7 7 8 7 5 4 4 5 3 4 5 6 5 5 5 4 4 3 2 2 3 2 1 3 3 5 3 5
18 18 18 17 16 16 17 15 11 9 7 5 4 4 4 3 5 4 4 3 2 2 2 2 3 4 5 7 6 4 3 3 2 2 2 2 3 5 3 3 4 4 5
18 19 18 17 17 16 17 16 12 10 6 4 3 3 3 3 4 3 2 3 3 3 2 2 2 3 5 6 5 4 3 2 2 2 2 3 4 3 6 5 4 5 5
20 20 20 19 19 18 19 16 12 10 8 5 4 3 3 3 5 4 3 4 4 3 2 3 4 4 5 5 4 3 2 2 2 2 3 4 4 4 5 7 7 7 7
20 19 19 19 18 19 18 16 11 9 9 8 5 5 3 2 5 4 4 5 3 2 1 2 2 4 3 2 3 3 3 4 4 5 5 5 6 6 6 7 7 7 8
18 20 21 20 20 20 18 15 11 11 11 10 9 7 5 2 4 5 6 6 5 4 2 2 3 3 2 2 2 4 5 6 6 7 6 7 7 7 7 8 8 8 8
25 23 21 21 23 23 18 16 10 11 10 11 13 10 7 5 6 5 9 7 6 5 5 4 2 2 2 3 1 2 3 1 3 2 4 5 6 7 8 8 9 10 9
24 25 26 27 23 25 19 14 13 10 7 9 11 11 11 7 5 5 6 7 6 5 4 6 3 3 3 4 2 3 2 3 6 2 2 3 4 5 7 8 9 8 9
29 27 25 27 28 25 25 18 15 14 12 10 11 13 10 10 7 7 7 8 6 5 5 5 5 2 3 3 2 2 2 2 3 4 3 2 2 4 5 6 6 7 9
29 27 28 28 29 28 26 24 20 17 13 10 10 12 11 10 9 8 9 9 9 8 8 6 5 4 3 3 3 1 1 2 2 3 3 4 2 3 4 5 5 6 7
28 26 24 25 28 31 29 26 25 20 16 13 11 11 11 10 8 10 9 9 10 8 9 7 7 6 5 3 3 1 1 2 3 3 2 3 4 3 4 6 5 5 7

GFSSE_925_spd_078.txt.gz
Wind_Speed
16 17 16 16 16 16 15 14 14 13 13 12 11 11 11 12 12 12 12 13 15 15 15 15 16 15 16 17 17 19 18 17 19 21 20 19 19 18 15 17 20 18 19
22 18 17 17 16 16 16 14 14 14 13 12 11 11 11 12 12 11 11 12 13 12 12 14 15 14 15 15 17 17 18 18 19 19 21 19 18 19 17 19 20 17 18
22 19 16 17 16 15 16 15 14 13 12 13 13 12 10 12 11 11 12 11 11 12 12 12 13 15 15 16 17 18 18 18 19 17 17 17 17 17 18 17 17 18 17
22 19 17 16 16 15 15 14 13 12 13 13 12 12 12 10 12 11 11 11 11 11 12 13 13 14 16 16 16 15 17 16 17 12 17 16 16 15 16 16 16 16 16
20 19 17 16 15 14 14 13 12 12 12 13 13 12 11 13 12 11 12 12 11 12 13 12 12 15 15 16 15 16 16 17 18 16 14 15 14 14 15 14 15 15 15
19 18 18 15 14 13 13 12 12 11 12 12 14 13 14 14 13 13 13 12 12 13 14 13 12 13 14 15 15 14 16 15 14 15 15 15 14 13 14 14 15 15 14
18 16 15 15 14 13 12 11 12 11 12 12 13 13 14 14 14 14 14 13 13 13 13 15 15 17 15 14 14 14 15 13 14 13 14 13 13 14 13 14 13 14 14
17 17 14 14 13 11 11 10 11 11 11 12 12 13 13 14 13 13 14 14 14 13 14 16 15 16 15 14 15 13 12 11 13 13 13 12 12 13 12 12 13 13 12
16 16 14 12 11 11 11 10 11 11 11 12 13 13 14 14 13 13 13 14 14 14 15 16 17 17 15 14 14 13 14 14 12 10 13 11 12 11 12 12 11 11 11
14 14 12 12 11 10 9 11 11 11 12 12 13 14 14 15 15 15 14 14 13 15 14 15 16 16 15 14 14 14 15 13 11 10 11 9 10 11 10 10 10 10 11
13 12 12 11 11 10 11 10 10 10 12 12 13 14 11 12 13 14 13 14 13 14 13 13 16 13 12 14 14 13 10 9 10 10 11 9 8 10 9 9 9 9 9
14 13 12 11 11 11 10 10 10 9 9 10 12 12 12 11 12 14 13 13 13 12 12 13 11 12 7 10 7 9 10 9 9 9 9 9 9 9 8 8 7 8 8
15 13 12 11 12 11 11 10 10 10 10 11 11 11 12 11 10 12 12 12 11 8 9 9 8 8 8 8 8 9 8 8 9 9 7 8 7 7 7 6 6 5 6
15 13 13 12 11 9 11 10 10 11 11 11 10 10 10 11 11 11 11 10 9 9 7 6 7 6 6 7 8 8 8 8 8 8 6 6 5 6 4 6 5 5 4
16 14 14 13 12 11 11 12 11 11 11 11 9 9 9 10 11 10 10 9 8 7 7 7 7 7 6 7 8 8 8 8 7 7 6 5 5 4 3 4 4 4 5
15 15 14 13 12 12 10 12 12 11 11 10 10 9 9 9 9 8 7 6 5 6 6 5 6 6 7 7 7 7 7 7 7 6 6 5 6 3 2 1 3 3 3
16 15 15 14 13 13 12 11 9 10 9 10 9 8 7 6 6 5 4 4 5 5 4 4 4 5 7 7 7 6 6 6 6 5 5 4 3 5 6 4 3 4 4
15 17 16 15 15 14 12 11 9 9 8 6 6 6 5 4 5 4 2 3 4 4 4 4 4 7 6 8 7 6 6 5 4 4 5 4 3 2 4 7 6 6 6
16 16 16 15 16 14 12 10 9 8 7 6 5 5 5 4 4 3 2 4 4 4 4 4 5 4 6 7 9 6 5 4 3 4 3 3 2 2 3 5 8 7 8
16 16 16 15 16 15 13 10 9 7 7 6 5 5 4 4 5 3 4 4 4 4 4 4 4 4 3 3 3 5 2 1 1 1 2 1 1 2 2 3 4 5 9
17 17 17 16 15 16 15 13 11 9 8 7 6 5 4 3 3 4 5 5 3 2 3 3 4 3 5 2 3 2 3 3 2 1 1 1 1 1 2 3 3 3 4
20 19 19 18 18 17 15 13 10 9 8 7 7 6 5 4 4 3 5 5 3 3 3 3 1 3 3 1 5 4 2 8 6 3 2 0 0 1 1 2 3 3 3
20 21 20 19 18 18 15 14 9 8 6 8 8 8 6 5 4 4 5 6 4 4 6 4 2 3 5 2 2 8 4 5 2 4 3 2 0 1 1 1 1 2 2
22 21 19 19 18 18 17 15 12 11 9 9 9 8 8 6 4 5 6 6 5 5 4 4 2 1 3 5 2 2 5 5 5 3 7 4 3 2 3 1 2 2 2
23 22 21 20 19 19 19 16 14 13 10 7 7 8 8 8 6 6 6 6 6 6 4 3 3 2 2 3 2 1 2 1 1 6 4 6 7 4 4 2 3 2 3
25 24 22 21 21 20 19 19 17 14 13 9 10 9 9 9 7 8 8 8 7 7 6 6 5 4 4 3 3 3 3 5 5 3 1 4 3 5 4 4 4 4 5

GFSSE_925_spd_081.txt.gz
Wind_Speed
17 17 17 17 16 15 14 14 13 12 11 11 11 11 10 11 12 14 15 16 18 16 17 17 16 18 18 19 19 19 20 20 20 20 20 19 17 15 16 15 18 17 17
23 19 17 17 16 15 13 13 13 12 12 11 10 10 11 11 12 12 14 15 14 14 16 16 17 17 17 18 19 18 18 19 19 20 21 19 17 17 18 18 18 16 16
24 20 17 16 16 16 13 13 12 14 14 12 12 11 11 11 12 13 13 13 14 14 14 16 16 17 17 17 18 18 19 17 15 14 19 17 16 16 17 17 16 16 16
24 22 18 16 16 16 13 12 13 14 13 12 11 13 11 12 12 12 13 13 13 14 16 15 16 16 16 17 16 16 18 16 15 12 18 17 15 15 14 15 14 15 16
24 22 19 17 16 16 13 13 13 13 13 13 13 12 14 14 13 13 13 13 14 14 14 16 16 16 16 17 16 19 21 19 17 17 15 14 14 12 14 13 13 13 15
23 22 18 17 15 14 13 13 13 13 14 14 14 15 15 15 14 13 13 13 13 13 14 13 14 16 16 15 16 16 13 12 14 16 14 14 13 13 14 14 15 14 15
25 19 16 16 14 13 12 12 12 13 14 14 14 15 14 15 14 14 13 13 13 14 16 16 17 16 15 15 16 15 14 12 15 15 15 14 13 13 13 13 14 14 14
21 21 15 13 13 13 11 13 12 13 13 13 14 14 13 13 14 14 13 14 14 14 16 17 16 15 15 15 15 15 11 9 15 14 14 13 13 13 14 13 13 13 12
26 19 15 13 13 13 12 12 12 13 13 13 13 14 13 12 13 13 14 14 15 15 16 17 16 16 15 15 15 16 15 14 14 14 14 12 11 13 13 12 12 11 13
18 17 21 15 13 14 12 13 12 12 12 13 12 13 16 16 14 14 15 15 15 17 16 15 15 15 17 16 17 16 15 12 14 14 12 10 12 11 11 11 11 11 11
13 15 19 17 18 15 14 11 12 11 13 15 13 12 13 14 14 13 16 15 14 17 16 14 13 13 20 22 14 7 2 2 19 16 11 9 11 10 10 11 10 10 9
16 14 14 18 13 15 15 10 13 9 12 11 7 6 10 15 16 15 14 15 14 16 15 13 7 8 9 10 10 6 7 8 11 13 9 10 9 9 8 8 8 8 8
16 19 20 16 12 15 12 14 15 13 16 13 6 11 11 15 17 15 14 12 10 10 8 6 7 6 5 7 9 10 8 7 11 10 8 8 8 7 6 6 6 6 6
14 14 21 13 9 14 13 13 11 15 12 13 12 9 8 12 10 6 12 11 9 10 7 5 10 8 8 8 10 9 7 7 9 10 7 5 6 5 4 5 5 5 5
15 14 16 14 10 11 6 11 12 12 14 11 11 5 9 13 11 11 6 9 5 9 8 8 7 7 7 8 8 9 8 7 5 10 8 7 5 4 3 4 4 4 4
14 15 16 15 13 11 9 11 10 12 12 12 11 9 6 11 11 9 6 5 7 8 8 5 8 5 11 8 7 6 7 7 6 6 9 8 9 7 5 4 3 4 4
16 15 16 16 15 12 13 12 9 12 11 13 11 10 8 8 3 5 5 7 8 6 5 4 3 4 6 7 7 4 8 5 7 3 4 6 3 6 9 8 7 7 6
16 16 15 16 16 15 13 9 8 10 9 8 13 9 7 6 5 2 2 5 7 4 5 6 4 6 4 9 6 6 5 8 4 3 5 3 3 3 5 9 8 8 8
17 17 16 15 15 14 13 10 9 7 9 7 7 10 7 5 4 1 2 5 4 3 5 9 6 4 3 3 7 7 3 4 4 8 4 2 4 3 3 6 6 6 9
18 17 17 16 16 13 13 9 10 8 5 8 4 12 7 7 4 3 5 3 2 1 7 8 6 7 5 2 4 6 1 1 1 3 5 6 5 2 3 2 4 1 7
18 18 17 17 17 16 14 13 10 10 9 7 10 7 5 4 4 5 8 5 5 4 5 5 6 2 2 1 11 5 6 8 6 2 2 2 5 2 2 3 1 2 1
20 19 18 17 17 16 14 11 8 5 9 10 11 7 4 5 4 5 1 6 4 3 5 1 2 6 6 6 10 11 1 10 8 7 3 2 2 2 3 3 2 1 0
20 20 20 18 17 16 12 10 6 3 2 6 9 8 7 5 4 2 5 0 2 3 8 4 2 7 12 5 3 6 3 3 7 9 5 5 2 3 2 3 3 2 1
22 21 20 19 18 18 14 14 13 11 13 11 10 10 11 6 5 4 5 4 4 1 6 6 3 4 5 7 2 6 5 7 4 3 8 5 5 7 2 3 4 4 1
23 22 20 19 18 19 18 12 14 14 8 11 8 11 7 9 6 7 6 6 5 6 5 4 2 4 1 8 3 2 3 0 2 7 5 9 5 4 6 2 3 2 1
26 23 22 21 19 18 18 15 12 9 12 9 11 10 12 11 8 8 8 8 8 7 4 5 5 3 5 6 9 5 9 9 17 11 5 2 7 3 4 4 2 2 2

GFSSE_925_spd_084.txt.gz
Wind_Speed
18 16 18 17 16 14 13 13 12 12 12 12 13 13 14 15 15 16 16 16 18 19 19 19 19 20 18 19 20 19 21 22 24 22 21 21 21 19 18 20 19 18 19
22 19 19 18 16 14 14 13 12 11 11 12 12 14 13 14 14 13 14 14 16 17 18 18 18 18 18 18 18 18 21 23 23 24 21 21 20 19 17 19 17 18 17
23 20 17 18 16 16 15 14 13 13 12 13 13 13 14 13 13 13 12 14 15 16 17 17 17 17 17 17 16 17 16 16 19 20 20 18 19 18 19 18 17 17 17
24 21 18 19 17 16 16 16 14 13 13 13 14 12 12 12 13 13 13 14 15 17 16 16 16 17 15 16 16 19 17 14 12 14 18 18 16 17 17 16 16 17 18
26 22 19 20 17 17 16 16 13 13 14 14 13 14 13 13 13 13 14 16 15 17 17 17 16 16 15 17 18 18 17 18 20 18 20 19 13 15 14 15 16 15 15
28 22 19 20 16 17 15 15 14 14 14 14 15 15 15 14 13 14 15 16 16 15 15 16 16 15 13 17 18 17 15 12 16 17 16 15 15 15 15 15 15 15 15
25 23 18 19 16 17 15 15 14 14 14 15 14 15 14 15 14 14 16 16 16 15 18 16 16 14 15 16 15 12 11 18 19 17 15 14 15 14 15 15 14 14 14
27 23 18 16 16 16 15 15 15 14 14 14 15 14 15 15 14 15 16 16 17 15 15 17 14 15 15 16 16 14 13 11 15 20 16 13 14 14 13 13 13 13 13
27 24 17 15 15 15 14 14 15 14 13 13 14 15 16 15 14 15 16 17 16 16 15 15 15 15 16 17 17 18 19 14 14 19 15 11 12 13 12 12 11 12 12
29 24 24 19 15 15 13 13 13 13 13 13 14 14 17 16 15 16 18 17 17 17 15 15 16 17 21 21 17 15 13 14 18 12 12 13 10 10 11 10 10 11 10
21 25 24 22 20 18 15 13 12 10 12 16 16 14 14 17 14 13 15 16 17 16 15 14 14 12 12 13 10 8 8 10 17 14 13 11 9 9 10 9 9 9 9
29 25 22 20 22 19 14 19 16 13 8 7 10 10 15 18 15 14 15 16 15 13 12 12 14 11 7 4 10 7 6 19 18 12 13 8 8 8 7 8 7 7 7
35 29 20 23 18 16 15 20 14 18 11 7 6 11 11 15 18 16 17 15 12 7 4 3 8 4 7 12 8 8 9 21 19 12 9 8 7 6 7 6 5 5 5
26 23 20 17 12 17 17 21 21 20 16 12 11 13 16 13 8 11 8 12 14 13 6 4 8 7 9 13 11 9 12 19 12 12 9 6 6 5 5 5 4 4 4
29 23 22 19 17 13 10 17 19 17 16 16 9 7 13 10 13 13 9 8 9 13 6 11 9 6 3 11 12 8 7 10 11 9 11 8 6 5 4 4 3 2 2
31 24 21 15 13 8 11 17 16 14 14 16 13 9 13 13 10 10 3 7 6 13 6 8 11 8 6 10 6 8 11 3 7 6 8 11 9 8 7 5 4 3 2
22 25 22 15 11 9 14 15 6 10 8 17 13 8 11 11 9 12 6 8 6 3 5 4 5 3 0 7 6 6 8 8 3 3 4 6 8 9 10 8 6 5 4
19 24 20 20 16 12 12 7 18 8 13 13 16 10 5 7 7 4 5 7 9 3 5 5 4 5 8 11 9 10 8 6 5 6 3 3 3 7 8 9 7 7 5
22 23 16 23 20 17 11 10 11 17 7 12 16 12 9 5 3 5 5 4 5 2 7 7 4 3 4 6 5 6 10 8 7 9 4 6 7 5 4 3 4 5 7
22 22 15 21 19 19 13 10 12 14 10 13 12 12 10 7 4 5 2 3 5 8 10 8 3 5 3 8 6 5 2 3 2 6 9 12 4 7 6 2 5 1 5
22 23 16 23 20 16 13 16 13 14 13 12 13 11 7 9 5 6 5 8 5 1 7 4 3 5 3 4 7 9 7 7 7 6 4 15 5 8 3 2 3 2 2
25 22 19 23 24 16 16 13 8 9 18 14 13 9 9 7 5 3 5 9 6 7 3 2 2 10 3 9 7 4 3 8 8 6 5 4 0 4 8 4 2 2 4
27 24 22 23 24 20 17 11 4 5 14 19 10 11 9 8 6 2 5 4 5 5 4 4 1 5 9 3 6 4 1 2 5 8 9 7 7 4 3 3 6 2 3
28 26 24 22 24 22 12 13 11 9 10 16 17 16 9 9 8 6 5 6 11 5 9 5 0 4 3 7 4 3 6 2 0 2 10 2 6 6 5 8 8 6 3
29 28 27 23 24 21 17 10 15 11 2 2 16 13 13 8 7 8 8 6 7 6 8 5 3 1 6 7 12 4 6 6 2 2 2 6 10 13 4 3 3 8 3
31 30 28 26 24 22 21 14 17 9 7 2 11 14 13 12 10 12 10 8 5 6 11 4 3 1 4 4 8 10 14 3 9 5 3 2 10 5 7 4 3 1 2

GFSSE_925_spd_087.txt.gz
Wind_Speed
14 15 17 16 14 13 13 13 13 13 14 16 15 17 16 17 20 21 20 20 19 19 20 21 21 21 21 22 23 23 24 26 24 23 23 23 23 23 21 20 19 20 20
22 20 19 17 14 13 12 12 12 13 13 14 15 15 15 16 18 18 18 18 19 19 19 19 20 19 20 21 22 22 21 24 23 23 22 22 20 19 20 19 19 20 20
24 22 19 16 15 14 13 12 13 14 14 15 14 15 15 16 16 16 17 17 18 19 19 18 19 18 19 21 20 20 19 21 20 25 22 23 21 20 19 18 19 19 18
26 22 20 18 17 14 15 14 15 14 14 14 13 14 14 15 15 15 16 16 17 18 18 18 18 18 20 20 17 15 15 18 15 19 20 21 19 18 17 17 18 18 16
25 24 22 20 17 17 16 14 15 15 14 13 15 14 15 15 15 15 14 16 16 18 17 17 16 17 19 18 16 18 18 16 21 22 19 18 19 17 17 16 16 16 15
26 25 22 19 17 17 16 16 15 15 15 15 15 15 14 15 14 15 14 16 15 16 15 16 16 17 19 17 15 17 21 19 20 18 18 19 17 16 16 16 16 15 14
28 26 21 19 18 16 16 15 15 14 15 16 15 15 15 14 14 14 14 15 15 15 14 13 16 18 20 19 16 20 20 18 18 18 18 17 17 16 14 15 15 15 14
31 26 21 19 18 15 15 15 14 15 14 15 15 16 15 15 15 13 14 16 15 16 14 14 17 18 19 19 16 14 16 15 17 16 16 17 14 14 14 13 14 13 13
29 27 22 20 18 17 15 15 14 14 13 14 14 15 16 15 15 13 14 14 14 13 13 14 16 17 19 17 16 18 18 14 15 16 16 15 14 13 12 12 11 11 11
28 26 24 21 20 18 16 15 14 14 14 14 14 14 17 16 15 16 15 14 13 12 11 13 14 14 17 16 14 15 19 16 15 13 15 13 13 12 11 10 10 9 8
27 28 23 22 20 18 18 15 15 16 15 15 17 18 20 18 18 14 16 16 14 13 11 12 15 16 16 17 12 11 13 14 10 13 13 11 11 10 9 9 8 7 7
28 27 26 24 21 20 17 18 20 20 19 13 14 15 16 14 16 16 15 14 15 11 5 4 9 11 6 7 11 9 10 12 8 13 11 10 10 8 8 6 5 5 5
36 30 26 23 23 21 20 20 19 17 14 10 12 17 14 16 13 15 15 14 16 15 8 6 8 4 4 3 3 1 17 14 12 11 10 10 9 7 7 6 4 3 3
24 30 26 23 23 20 18 17 19 19 16 12 13 13 18 17 11 15 10 6 10 10 10 5 2 4 6 4 6 15 21 14 11 11 10 8 7 6 5 4 3 2 2
30 29 27 23 22 18 21 16 20 19 16 16 14 18 13 9 15 11 11 9 4 5 6 9 4 8 10 13 10 14 16 9 7 10 11 8 6 5 4 3 2 1 0
32 30 24 22 15 16 22 18 17 15 20 17 14 14 20 15 13 15 8 8 4 8 6 5 7 6 7 9 10 10 9 10 4 6 10 9 8 5 4 3 2 2 1
33 34 25 21 17 16 20 21 14 17 19 18 13 16 14 14 10 11 10 13 7 8 5 6 3 3 7 9 9 11 7 10 7 4 6 6 8 6 6 5 4 4 4
36 30 25 24 19 16 16 10 18 19 22 20 19 12 9 9 9 8 10 10 6 6 8 9 2 2 4 6 9 9 10 6 11 5 5 5 5 3 6 6 6 5 4
33 28 27 21 19 15 12 11 17 19 16 19 15 14 11 10 6 5 9 8 3 6 6 5 3 8 7 6 10 10 12 8 9 10 10 5 6 5 2 2 3 4 5
29 25 30 23 18 18 15 15 16 15 11 15 17 12 9 8 6 5 6 8 4 9 5 3 2 3 3 7 2 5 7 14 12 14 11 10 7 7 3 4 2 0 3
26 27 29 29 19 19 16 18 16 15 16 15 15 13 8 11 7 7 6 8 6 9 3 0 0 4 5 3 4 4 3 6 10 16 13 8 11 9 7 3 1 1 2
27 23 23 28 25 21 17 19 19 14 19 18 18 14 10 9 9 9 8 6 3 8 2 3 2 6 4 3 3 3 3 2 7 9 16 13 10 11 11 6 3 2 3
31 26 25 29 26 23 20 13 9 11 18 19 18 14 11 9 11 9 8 7 6 6 5 2 2 4 6 4 3 3 2 2 2 3 9 9 7 6 12 7 6 4 1
34 31 26 28 26 22 18 13 11 16 24 18 19 16 15 10 8 8 6 7 9 9 6 3 2 5 5 9 6 5 2 2 2 3 6 8 7 8 11 8 10 9 1
37 36 30 29 26 26 19 12 14 11 12 8 16 17 15 12 10 9 10 8 7 4 8 5 1 3 5 6 12 12 6 4 2 2 2 3 10 11 9 8 11 14 5
32 32 32 29 27 28 21 14 12 9 9 6 18 19 17 12 10 10 11 11 7 8 8 5 2 1 2 3 6 7 10 6 11 4 1 3 7 15 10 4 4 4 7

GFSSE_925_spd_090.txt.gz
Wind_Speed
15 17 16 15 16 16 15 14 16 18 16 17 17 17 18 19 19 19 19 19 20 22 21 20 21 21 22 23 23 23 22 22 22 22 21 20 18 19 18 18 18 19 17
23 20 18 15 14 14 13 13 14 15 18 15 17 17 16 16 16 17 17 17 19 20 19 19 20 21 22 22 21 21 21 21 22 21 19 18 17 18 17 16 17 18 17
24 21 18 15 15 14 14 13 14 15 16 18 17 16 16 16 16 16 16 17 18 18 17 17 19 19 21 20 19 19 19 21 21 20 20 20 17 16 17 16 16 16 18
24 22 18 17 17 15 16 15 15 14 14 16 16 16 16 16 16 16 17 17 17 17 16 17 18 18 18 16 15 16 17 19 17 18 19 17 14 15 15 16 15 17 17
24 21 18 17 17 16 15 14 14 15 14 15 15 15 15 15 17 16 16 17 17 16 15 15 17 16 16 15 14 15 14 19 17 16 17 16 16 15 14 15 14 15 15
25 21 19 18 16 15 14 14 14 15 15 15 15 15 15 15 16 16 15 16 15 15 14 15 17 16 17 17 20 19 20 18 17 16 16 16 15 13 14 14 13 14 14
27 22 20 17 16 15 15 16 15 15 15 15 15 15 15 15 15 16 15 13 14 13 14 15 19 17 16 17 19 16 16 14 14 16 16 16 15 14 13 12 12 13 13
29 22 21 17 16 16 15 15 15 15 15 15 15 14 15 15 15 15 15 14 12 12 12 14 17 15 16 18 13 13 14 16 16 16 15 14 14 13 11 11 12 11 12
27 22 21 18 15 15 15 15 15 14 14 14 14 14 14 15 14 15 15 13 12 10 11 14 16 16 13 14 13 13 12 13 15 15 13 13 13 11 10 9 10 10 9
25 23 20 18 16 15 15 14 15 14 14 13 14 13 14 14 14 14 15 13 11 10 11 14 15 16 13 12 13 11 11 11 11 13 13 12 11 10 9 8 7 7 7
22 21 21 18 16 15 16 15 15 15 15 14 13 13 14 15 15 16 15 12 11 12 12 12 13 14 13 12 11 11 7 7 9 10 11 10 8 8 7 6 6 5 5
24 22 21 19 17 16 17 17 18 18 17 17 17 17 14 13 14 16 14 13 11 11 12 11 10 9 7 5 6 7 6 4 7 8 9 9 9 6 6 5 4 4 4
26 24 21 18 17 16 18 21 20 18 16 14 15 13 12 11 13 15 14 11 13 13 10 8 8 2 1 3 5 8 7 7 6 7 7 6 6 5 4 3 3 2 2
26 24 24 20 16 14 19 18 17 15 14 13 14 12 14 10 11 12 11 7 4 2 2 3 3 4 3 3 5 10 12 7 6 6 6 5 4 4 3 2 1 0 1
27 26 26 23 16 15 15 14 15 13 10 14 12 14 15 11 13 9 7 5 6 3 3 4 5 3 4 7 9 15 13 7 7 6 5 3 2 2 2 2 2 2 2
29 27 27 24 15 17 15 15 15 11 14 16 19 16 13 12 11 7 6 4 5 2 5 2 3 1 4 9 17 15 12 9 6 6 5 4 3 2 2 1 1 1 2
29 29 25 23 19 18 16 16 13 9 16 15 15 14 11 13 11 12 9 8 6 3 2 2 2 3 3 5 10 9 9 7 7 5 4 3 3 3 2 2 1 1 2
32 28 28 22 15 17 22 18 12 16 14 15 17 13 11 9 11 6 10 7 7 4 3 4 2 2 1 3 3 7 8 7 7 4 5 4 3 2 3 3 3 2 2
35 31 26 23 19 20 19 17 18 19 17 15 17 12 11 9 8 5 9 8 2 5 5 4 1 0 4 5 5 6 9 9 8 8 8 5 5 4 1 0 2 3 3
34 30 27 25 19 17 19 20 19 19 16 16 14 11 12 9 6 3 7 7 0 8 5 3 1 1 3 1 3 8 9 15 13 11 9 8 6 5 4 2 2 2 3
34 33 29 25 21 17 16 21 18 18 16 18 15 12 12 12 9 7 8 6 3 5 5 1 1 4 1 3 4 2 0 7 15 16 14 12 10 6 5 4 3 3 4
35 33 29 26 23 18 14 17 15 14 17 17 14 13 10 12 9 9 7 8 6 6 4 2 1 2 0 4 2 1 3 1 3 11 17 17 15 12 9 8 7 5 5
35 37 33 27 24 22 17 15 12 11 14 13 15 13 10 10 10 11 9 8 6 7 4 1 3 3 4 5 3 2 2 1 4 1 8 18 14 15 11 9 7 7 7
37 36 32 31 27 23 19 16 11 16 19 18 19 13 11 9 12 8 10 8 8 9 6 3 1 3 3 11 7 9 4 2 1 3 3 7 11 10 11 12 11 8 10
36 36 34 33 30 26 21 17 12 13 21 21 16 16 14 12 11 10 10 12 8 10 9 5 2 1 4 7 9 9 8 10 15 2 2 4 10 11 12 14 15 14 10
30 33 35 34 30 25 22 16 10 12 18 15 21 18 15 13 11 11 10 11 8 8 7 7 4 1 2 3 5 6 9 6 7 5 2 2 4 8 13 13 11 7 7

GFSSE_925_spd_093.txt.gz
Wind_Speed
15 15 15 15 15 15 15 14 13 14 15 15 16 16 16 17 17 17 18 18 18 19 19 19 20 22 22 21 19 18 19 19 19 17 16 16 15 16 16 17 16 17 16
21 17 16 15 14 14 13 14 14 13 13 13 14 14 14 15 16 16 17 17 19 19 20 20 21 21 20 18 19 19 20 19 18 17 15 15 15 14 17 17 16 15 16
22 18 15 14 13 12 12 12 13 12 13 14 14 13 13 14 14 15 15 16 18 18 19 20 20 20 19 18 18 17 17 17 16 15 16 15 16 15 15 15 15 15 15
23 18 16 14 13 12 12 13 12 12 14 13 14 13 13 14 14 14 15 16 16 17 18 18 18 17 15 15 14 16 17 14 14 16 15 14 13 15 15 14 14 14 14
22 18 15 16 14 15 14 12 14 12 13 12 13 12 13 13 14 14 14 14 15 15 16 16 16 14 12 13 12 12 11 13 13 14 15 15 14 13 13 12 14 13 12
21 17 15 15 14 13 14 13 14 13 13 13 13 13 14 14 14 13 14 13 13 13 14 15 14 13 13 12 12 13 16 12 14 14 14 12 13 11 11 12 13 12 11
21 18 16 14 13 13 13 12 14 14 14 14 14 14 14 14 14 14 13 12 13 12 13 14 13 13 13 14 14 13 12 11 12 12 13 12 13 10 11 11 11 11 10
22 18 15 12 12 12 12 12 12 12 13 13 13 13 14 14 13 12 12 12 12 11 12 15 12 12 15 11 9 10 10 11 11 11 11 11 11 9 9 10 10 10 10
20 19 16 13 11 11 11 11 11 11 11 12 13 14 13 12 13 12 12 11 10 11 12 14 13 11 9 8 8 9 7 9 9 9 9 10 9 9 7 8 8 7 7
18 18 16 14 12 10 10 10 10 10 10 11 12 12 12 12 12 12 12 11 9 9 10 11 12 9 9 8 10 7 8 6 7 7 9 8 8 8 5 6 6 5 4
16 16 15 14 13 13 11 9 9 10 10 10 11 13 12 13 13 13 13 11 9 9 9 9 9 7 6 7 8 5 4 2 4 5 6 6 5 4 4 4 4 3 3
18 16 15 14 13 13 13 10 12 11 12 11 12 12 13 12 13 11 11 9 9 10 11 10 7 6 5 5 5 1 2 1 3 3 4 4 3 3 2 2 2 2 2
21 17 16 15 14 13 13 13 12 12 12 12 12 12 11 11 12 10 10 9 9 8 8 9 9 5 3 4 5 6 6 6 4 3 4 4 3 2 1 1 1 2 2
21 19 16 15 14 15 16 14 12 11 9 9 8 7 9 10 10 9 7 6 4 3 4 2 2 0 3 7 9 7 6 6 3 3 3 3 3 2 2 2 2 3 4
23 20 19 17 16 16 16 13 11 9 8 8 8 9 9 10 9 7 4 2 4 5 3 5 4 7 5 2 4 9 8 6 3 1 1 1 2 2 2 3 4 4 5
25 23 22 20 17 16 14 12 10 7 7 9 9 11 10 6 6 3 2 2 2 3 2 4 3 7 5 4 7 8 8 5 4 1 1 2 2 2 2 3 4 5 6
27 26 24 20 14 17 14 13 11 6 10 10 11 8 6 8 6 4 3 2 2 2 2 4 3 4 5 4 6 6 6 5 5 3 3 3 4 3 3 3 4 5 6
29 28 25 20 17 17 17 15 11 6 10 10 11 8 6 7 4 4 5 1 1 2 1 3 4 4 4 4 1 3 5 7 7 6 6 6 5 3 4 5 6 6 6
30 29 25 22 18 19 18 15 11 13 10 10 13 10 7 6 6 3 4 2 2 0 1 4 6 5 4 4 4 5 7 7 8 9 9 7 6 6 6 6 6 6 7
29 27 26 22 18 18 18 16 15 17 15 12 12 9 9 5 3 2 5 3 2 2 1 3 4 4 5 5 4 8 9 10 12 11 10 10 9 8 7 6 7 6 8
30 30 27 25 20 20 20 17 15 19 19 16 12 9 9 7 7 4 5 5 1 2 2 3 4 7 4 4 6 6 4 4 6 13 13 12 11 9 9 8 9 9 9
36 32 30 27 24 20 20 19 18 16 15 15 12 11 8 7 7 6 4 4 1 2 2 4 6 6 5 6 4 3 4 3 3 7 13 16 14 12 12 12 11 9 9
32 34 34 31 27 22 19 19 12 7 7 9 13 11 10 11 10 7 6 5 2 3 1 2 5 7 7 5 6 3 2 1 5 3 4 8 14 14 13 12 9 8 9
36 37 33 30 28 23 18 16 12 10 8 13 13 12 8 7 9 7 6 7 6 6 3 1 3 5 5 9 5 7 3 3 0 4 3 4 7 13 10 10 11 12 12
30 38 35 32 29 24 20 16 12 9 12 15 12 11 9 10 8 8 7 8 8 7 6 3 1 2 4 7 9 8 5 5 9 2 2 5 6 9 12 11 13 16 16
27 29 35 32 29 26 22 19 14 9 12 15 16 13 13 10 10 10 10 8 7 6 4 7 4 2 1 3 5 7 10 6 6 5 2 3 5 5 8 9 10 11 12

GFSSE_925_spd_096.txt.gz
Wind_Speed
13 14 13 14 15 14 14 12 11 12 13 14 14 14 14 14 14 15 15 15 17 19 18 19 20 19 19 18 18 18 18 17 17 18 17 18 18 17 17 16 17 16 16
19 16 14 13 13 13 13 12 11 12 13 12 12 13 13 13 13 14 14 15 18 19 18 18 19 18 17 17 18 18 17 17 17 17 16 17 16 17 16 16 17 15 15
19 15 15 14 13 12 12 12 11 11 13 11 12 12 11 13 13 13 15 16 17 19 18 18 17 18 18 17 16 15 14 14 16 16 19 17 16 15 15 15 14 14 14
20 16 14 12 11 10 10 10 11 11 11 12 11 11 12 12 13 13 15 16 17 17 19 17 16 15 15 15 15 14 13 13 13 15 15 13 14 13 14 12 14 14 14
19 15 12 11 10 10 11 10 11 11 12 11 11 12 12 13 13 14 14 16 16 17 16 15 14 12 11 11 11 12 11 11 12 13 14 14 14 12 12 12 12 12 12
18 14 13 11 11 10 9 11 10 10 10 11 10 11 12 12 12 14 14 14 15 16 15 14 14 11 9 8 6 6 9 10 11 11 12 12 12 11 12 12 11 11 12
18 14 11 10 10 9 8 9 10 11 10 10 11 11 12 12 12 13 14 15 14 14 13 12 12 11 13 12 11 9 8 8 9 11 12 12 10 10 11 11 10 9 9
20 16 12 10 10 10 10 11 10 10 9 11 11 10 12 11 12 11 12 13 14 13 12 11 11 13 10 9 8 7 7 8 8 8 10 11 9 8 9 9 9 10 8
17 15 13 10 10 9 9 10 10 10 10 10 10 10 11 10 12 12 11 12 12 11 11 10 12 9 9 6 8 8 6 6 6 7 8 9 8 5 6 7 6 6 6
17 14 13 10 9 10 9 9 10 10 10 10 11 11 10 12 12 13 13 11 11 10 10 9 8 8 7 8 7 6 6 5 4 5 6 7 6 3 4 4 4 4 4
14 13 12 11 10 10 9 8 10 9 10 11 10 10 10 12 12 13 12 11 11 9 8 8 7 7 6 6 4 5 3 5 3 4 4 4 2 2 3 3 3 4 5
15 13 11 11 11 12 10 8 11 11 10 10 10 10 11 12 12 13 11 10 11 10 8 5 4 2 2 3 1 2 2 4 2 2 1 1 2 2 3 4 4 5 5
15 13 11 11 11 12 11 10 12 12 11 11 11 11 11 12 11 11 10 9 10 7 6 5 3 2 2 3 4 5 5 6 3 2 0 0 1 2 3 4 5 6 6
16 14 12 11 11 11 12 11 12 12 13 12 10 9 10 10 10 10 9 6 6 4 3 1 1 3 4 7 7 5 5 4 4 3 2 1 2 2 3 4 5 6 6
17 15 15 13 13 12 13 12 11 10 10 9 8 9 8 9 7 6 6 6 6 6 5 5 6 6 4 3 2 5 4 4 4 4 3 3 2 3 3 4 5 6 6
18 18 17 16 15 13 12 10 9 7 7 8 8 10 9 7 5 2 3 3 4 5 6 6 8 9 5 6 5 2 1 3 5 4 5 5 5 5 5 5 5 6 7
20 19 19 18 14 13 11 10 9 7 7 8 9 8 4 2 3 2 4 5 4 5 6 6 6 7 5 5 2 1 3 4 5 6 6 7 7 7 7 7 7 7 8
21 22 20 18 14 13 12 11 8 6 6 7 7 6 3 5 2 1 3 4 4 4 6 7 7 6 5 5 4 4 4 5 6 6 7 7 7 8 8 8 8 9 9
24 23 21 18 15 15 13 10 8 6 7 5 7 6 4 5 3 1 2 2 5 4 5 7 8 7 7 6 7 6 6 7 8 8 8 7 7 8 8 8 8 9 10
24 23 21 18 16 16 15 12 9 9 8 8 8 6 5 4 3 2 1 2 6 4 5 7 7 8 8 8 9 10 8 8 8 8 8 8 8 8 9 8 8 9 10
26 25 23 19 17 18 20 16 12 13 13 9 9 7 5 3 2 1 1 1 3 4 4 5 7 7 8 9 7 8 5 6 5 5 8 10 9 9 9 9 10 10 10
29 28 25 21 19 20 19 17 11 14 13 10 10 7 5 6 4 2 2 2 1 4 4 5 9 7 7 8 5 3 4 4 6 5 6 7 9 10 10 10 10 9 11
31 30 29 26 23 21 19 16 12 11 9 11 11 9 7 6 6 5 4 3 1 2 2 4 8 8 9 6 9 4 2 1 6 4 5 5 5 7 7 9 9 9 12
33 32 31 30 26 21 20 19 15 12 10 11 9 8 6 4 7 6 5 4 2 2 0 2 5 7 8 10 4 9 7 5 1 3 5 5 6 6 8 10 11 11 14
31 35 32 31 27 24 21 19 16 11 8 6 7 6 7 6 4 5 3 3 4 4 4 1 2 4 6 8 10 7 3 5 9 3 2 8 7 6 7 8 8 11 13
24 30 30 31 30 27 23 19 16 12 8 8 11 9 7 6 7 7 6 5 6 4 4 5 3 1 3 4 5 7 9 5 6 4 1 3 6 8 9 6 6 8 11

GFSSE_925_spd_099.txt.gz
Wind_Speed
13 13 13 11 10 9 8 10 13 13 12 13 13 13 14 15 15 15 16 18 18 19 19 19 19 17 17 17 17 17 17 18 18 19 19 19 18 17 17 17 18 16 17
16 13 13 12 10 10 9 10 12 11 11 11 11 12 13 13 14 15 16 17 18 18 18 17 16 17 17 17 17 17 17 16 17 17 17 18 17 17 18 18 17 15 16
17 14 11 12 10 9 10 9 10 9 9 10 10 12 12 13 13 14 16 18 19 17 16 17 17 16 16 16 16 15 15 15 15 16 17 15 15 16 18 16 15 15 16
17 14 12 12 10 9 9 9 9 8 8 9 9 10 11 12 13 14 16 16 17 17 16 15 15 15 16 16 15 14 13 13 14 14 13 14 14 15 14 16 14 16 16
17 14 12 11 10 10 10 10 9 10 9 9 10 10 11 13 14 14 15 16 16 15 15 13 12 12 13 12 14 12 12 12 13 13 13 12 13 13 13 13 14 15 13
16 13 11 11 12 9 11 10 10 11 9 10 10 10 11 13 15 15 15 15 15 14 13 13 12 9 8 8 7 10 11 11 11 11 12 13 13 13 13 13 13 12 14
15 13 11 10 11 10 9 11 10 10 11 10 10 11 12 14 14 15 15 14 14 13 13 13 13 14 12 11 10 9 9 10 10 10 11 11 11 11 12 11 12 11 11
15 13 11 11 11 9 10 12 12 10 11 10 10 11 12 14 14 14 16 14 13 12 12 13 13 11 10 10 9 10 9 8 8 9 9 10 9 11 10 10 12 11 12
14 13 11 11 10 11 10 11 12 12 12 11 10 11 12 13 14 14 15 14 13 12 12 11 11 10 9 10 11 10 8 8 7 7 8 9 7 9 9 9 8 8 7
13 12 12 11 10 11 10 11 11 12 11 11 11 11 13 14 15 14 14 13 11 11 10 9 10 9 9 8 8 8 10 8 6 6 6 6 8 7 8 8 7 7 7
12 11 10 10 10 12 11 11 11 12 12 12 12 13 13 13 14 13 13 12 10 9 8 8 7 8 8 7 8 7 8 6 5 4 5 5 6 7 7 7 7 7 7
13 11 10 10 10 10 10 11 11 10 10 11 12 13 13 14 14 13 13 12 12 9 6 5 4 4 5 3 3 5 5 5 4 4 3 5 6 5 6 7 7 6 7
14 11 10 10 10 10 10 10 8 9 9 10 12 12 12 12 12 11 12 10 8 7 5 4 3 4 5 4 4 4 4 5 4 4 3 4 4 4 5 6 6 7 7
13 12 11 11 10 10 12 10 11 11 10 10 10 12 12 10 9 11 8 8 8 6 4 4 4 5 5 5 4 3 4 3 4 4 4 4 4 4 4 5 6 7 7
12 12 12 11 11 13 12 11 10 10 9 8 9 11 10 9 9 7 9 8 7 7 6 6 7 7 8 7 5 3 2 4 4 4 5 7 5 5 4 5 6 6 7
12 12 12 12 13 13 12 13 11 8 9 8 9 10 9 8 6 6 5 6 7 6 6 7 8 8 7 8 9 6 4 2 5 6 4 5 8 7 7 7 7 7 7
13 13 13 13 13 13 11 11 9 7 8 8 10 10 7 5 6 6 7 7 7 6 7 8 7 7 6 6 5 4 3 3 3 5 4 4 4 8 8 8 8 8 9
13 13 13 13 12 12 11 10 8 8 9 9 9 7 4 5 4 5 6 6 6 6 6 6 6 6 5 4 4 4 3 4 4 4 4 5 5 4 6 8 7 8 9
15 14 14 13 12 12 11 9 7 6 7 7 7 6 5 6 4 4 5 6 6 6 6 5 6 6 5 5 5 4 4 4 3 2 4 5 5 5 5 6 7 8 10
16 15 15 12 11 13 12 10 7 7 6 6 7 7 5 5 4 4 4 5 6 5 5 6 6 5 5 6 5 4 3 3 3 2 2 3 4 6 5 8 9 7 9
17 17 17 15 13 14 12 8 6 7 6 6 6 5 4 4 3 3 3 4 5 5 6 6 4 4 5 8 4 3 3 4 4 3 3 3 4 5 6 7 8 8 9
19 19 18 18 16 17 14 14 8 9 8 6 7 5 4 4 3 2 2 2 4 5 5 6 6 3 4 8 4 2 3 2 5 4 4 4 3 4 4 7 9 9 11
21 21 19 19 17 16 16 14 9 9 8 7 6 5 4 4 3 2 1 2 2 3 3 4 6 5 4 5 9 3 1 3 4 3 4 4 5 4 5 8 9 9 11
23 20 18 19 19 17 18 13 13 11 9 7 8 8 6 5 6 5 4 4 3 3 2 2 4 5 6 6 4 7 7 5 3 1 3 4 4 4 6 6 6 8 11
22 21 20 21 20 17 18 14 13 10 7 8 8 9 7 6 5 7 7 6 4 3 3 2 2 5 6 6 7 3 2 4 5 3 3 5 4 6 6 5 4 6 9
21 20 20 24 24 20 17 19 16 13 11 8 9 7 7 7 6 7 5 5 4 5 4 4 3 3 4 4 5 5 6 4 7 5 3 3 4 5 6 6 3 4 6

GFSSE_925_spd_102.txt.gz
Wind_Speed
8 6 8 7 7 10 12 12 13 15 14 14 14 16 16 16 16 18 18 18 20 21 20 18 17 17 17 17 17 18 17 18 18 19 19 18 18 17 17 14 17 18 16
13 10 9 7 7 7 10 11 12 13 13 14 14 15 14 15 16 17 18 18 19 18 17 18 17 17 18 18 17 17 18 17 16 14 18 19 17 19 18 17 19 16 17
14 11 10 10 8 10 9 10 11 11 11 13 13 13 13 14 15 15 17 18 17 17 18 17 17 17 17 16 16 15 15 16 18 19 15 16 15 17 17 18 18 17 17
16 14 12 10 9 8 9 10 9 10 10 10 10 12 12 13 14 15 16 17 16 16 17 16 16 16 16 16 15 14 14 14 17 11 15 14 14 15 17 17 17 16 16
14 13 11 9 9 8 9 10 10 9 9 10 9 11 12 14 14 15 16 15 15 15 14 14 14 13 14 16 14 12 12 14 15 13 13 14 14 14 14 14 16 15 15
14 13 10 10 10 9 9 9 10 9 9 10 10 12 13 14 14 15 15 15 15 15 15 14 11 10 10 10 12 12 12 13 12 13 15 15 15 14 15 14 14 14 14
15 13 12 11 10 10 10 9 9 10 9 10 11 12 13 13 14 14 15 14 14 14 15 15 15 13 13 11 11 11 12 13 13 12 14 14 13 14 14 14 13 14 13
15 15 12 12 11 11 11 11 9 10 10 10 12 14 14 15 15 14 14 13 14 13 14 14 13 11 11 11 11 11 11 11 12 13 13 13 13 12 12 12 13 12 11
14 14 13 12 11 13 13 11 11 11 10 12 13 14 15 15 15 15 14 13 12 13 12 12 13 11 12 12 11 11 12 13 11 11 11 11 12 11 10 10 9 8 7
13 13 12 13 12 12 12 13 13 12 12 13 13 14 16 16 16 14 13 12 11 10 11 11 11 11 9 10 10 12 12 12 10 9 11 9 9 9 8 9 9 8 8
12 11 12 12 11 12 12 11 12 13 13 13 14 15 14 13 13 12 13 11 10 9 9 9 9 11 8 10 10 11 11 8 8 9 9 8 9 7 8 8 8 7 8
13 11 11 12 12 11 11 11 11 10 11 11 12 12 13 12 13 14 12 11 9 7 6 6 6 8 8 6 6 10 9 8 8 8 7 7 7 5 6 7 7 7 8
13 12 11 11 10 10 10 11 11 11 11 11 12 12 13 13 12 11 10 9 7 7 5 6 6 5 5 4 7 8 8 9 8 7 6 6 5 5 5 5 6 6 7
12 12 12 12 10 11 10 10 11 12 12 12 12 12 12 12 11 9 8 7 5 6 5 6 7 7 5 4 5 6 8 8 9 8 7 6 6 5 4 4 5 6 6
13 13 13 12 11 11 10 12 12 12 12 12 12 10 10 10 9 7 6 5 5 6 6 6 7 8 7 7 7 7 7 8 8 8 8 9 7 6 6 6 6 6 6
13 13 14 13 11 11 11 11 12 11 11 11 11 9 8 7 6 6 5 5 5 5 5 5 6 7 8 9 9 7 6 7 7 7 8 7 9 9 8 8 8 7 8
15 15 15 14 13 12 12 11 11 11 11 11 10 9 7 5 4 5 5 5 5 4 4 4 5 6 8 8 7 7 6 6 6 6 6 6 4 8 8 8 8 8 9
16 17 16 14 14 13 11 10 10 10 11 10 8 7 5 5 5 5 5 5 4 4 4 5 5 6 5 5 6 5 5 5 5 5 5 5 5 5 5 8 7 7 9
16 17 16 15 15 13 11 10 10 9 8 8 8 6 5 5 4 3 4 3 4 4 4 4 5 3 3 3 3 4 4 5 4 6 5 5 5 4 4 4 7 8 10
16 16 15 15 14 13 10 9 9 9 9 9 8 7 6 6 5 5 4 3 5 5 5 4 3 3 3 3 4 6 5 6 5 5 5 5 5 3 3 3 4 5 10
17 17 16 15 14 13 11 11 10 10 8 8 8 6 5 6 5 3 4 3 5 4 3 2 2 2 4 3 3 5 6 5 6 5 4 3 4 3 3 2 4 5 6
19 18 17 15 14 14 11 9 8 8 8 8 7 6 5 5 4 4 4 3 3 5 4 4 3 1 4 5 3 2 3 7 5 4 3 3 2 3 3 3 4 5 6
20 21 19 17 14 13 11 10 8 8 8 9 8 7 6 6 5 4 4 3 3 2 4 2 3 4 5 5 6 5 3 3 3 3 3 3 2 3 2 2 3 4 5
20 20 19 18 14 12 13 12 10 11 11 9 9 7 6 6 6 6 5 5 4 3 2 2 2 3 3 5 5 7 7 4 3 4 5 4 3 2 2 2 2 3 5
20 20 19 18 16 13 13 11 11 11 10 8 7 7 6 6 7 7 7 6 6 4 3 2 1 2 3 4 5 2 3 3 4 3 3 3 5 1 2 2 2 4 5
20 19 19 18 17 16 13 12 11 9 7 8 7 7 8 8 7 6 6 5 5 4 4 4 3 2 1 3 3 3 5 5 7 5 1 1 2 2 2 3 2 3 4

GFSSE_925_spd_105.txt.gz
Wind_Speed
16 14 13 11 11 11 11 11 12 14 16 16 17 17 17 19 18 18 19 18 19 19 17 17 17 17 17 18 18 18 17 17 17 18 20 19 18 19 19 17 21 18 17
17 16 14 12 11 10 11 12 12 14 15 15 15 17 16 17 18 18 20 18 18 17 17 17 17 17 17 17 18 17 16 16 14 17 21 22 19 19 19 20 21 18 18
18 15 13 12 11 10 10 11 11 12 13 14 14 15 16 18 18 17 16 18 18 17 17 17 17 16 16 16 16 15 17 15 11 5 9 18 17 19 19 20 18 17 17
19 17 13 12 10 10 10 10 11 12 12 12 14 15 16 16 16 17 17 17 17 16 17 17 16 16 16 15 15 14 16 14 16 21 14 16 16 17 17 17 16 15 16
17 15 13 11 9 9 10 10 11 11 12 12 14 15 15 15 16 16 17 16 16 15 14 14 15 15 14 14 14 15 17 15 13 18 17 16 14 14 16 16 15 15 14
15 17 13 11 11 10 10 11 11 12 13 13 14 14 15 15 16 16 16 15 16 16 15 13 12 11 13 13 13 14 16 11 11 17 18 15 14 14 13 14 13 13 12
20 15 14 12 12 11 10 11 11 12 12 13 13 14 14 15 15 15 15 15 15 16 16 15 15 14 12 13 12 15 15 15 15 16 16 14 13 13 12 13 12 12 12
19 16 14 13 13 12 11 11 13 12 12 13 14 14 16 15 15 15 14 14 15 15 15 14 13 13 13 13 13 12 11 9 12 16 14 12 12 10 11 12 11 10 9
21 16 15 13 13 13 13 12 13 14 14 15 15 16 15 15 14 13 13 13 13 12 13 13 13 13 12 12 14 16 16 16 10 14 15 11 10 9 9 9 9 9 8
20 18 14 14 13 14 13 13 13 14 15 15 15 15 16 15 14 13 13 12 11 11 11 12 12 11 13 14 14 11 12 11 8 11 10 8 8 8 8 8 8 8 8
14 13 14 14 15 14 12 12 13 14 14 16 14 14 16 15 13 12 11 11 10 10 10 11 11 6 10 16 13 10 9 7 8 11 8 8 7 7 7 7 7 7 8
18 12 10 14 13 12 15 13 11 11 13 13 10 6 7 14 14 13 10 10 9 9 10 9 8 5 3 8 8 8 9 8 8 8 6 6 6 5 5 6 6 7 7
17 17 19 11 14 12 13 12 13 12 12 12 10 11 13 13 13 12 9 9 6 3 3 3 2 3 7 6 8 9 9 8 8 7 6 5 5 5 5 5 6 6 7
12 11 14 12 8 10 9 10 11 15 14 13 13 11 10 9 9 5 8 9 5 7 4 6 9 6 8 4 10 10 7 9 8 8 6 5 5 5 5 5 5 7 8
14 13 14 12 10 8 8 11 10 14 11 14 12 8 10 9 8 9 2 7 3 6 7 5 7 6 7 6 7 6 8 8 8 10 7 7 7 7 6 7 7 8 8
15 14 14 15 14 9 12 9 12 14 13 14 12 8 6 8 4 7 6 6 2 8 7 8 4 5 8 10 6 6 7 8 7 8 9 9 9 8 8 8 8 8 9
14 15 14 14 13 13 13 13 10 14 13 12 12 8 4 5 1 3 4 1 7 5 6 5 5 4 8 9 8 4 8 6 7 6 6 8 8 10 8 8 7 8 9
17 16 15 15 16 15 14 11 11 11 12 12 11 8 6 5 4 3 5 5 5 2 4 1 3 5 4 7 4 6 6 8 6 5 6 5 5 7 8 7 7 8 9
17 17 14 16 16 15 13 9 11 10 13 10 9 10 6 6 3 1 3 5 4 1 1 3 4 5 3 3 11 7 5 7 7 7 6 5 5 2 6 6 6 8 10
18 17 14 16 15 15 10 11 12 9 9 9 7 10 7 6 4 2 4 2 6 1 4 9 8 5 5 4 7 7 6 6 5 6 6 7 5 5 5 2 4 2 8
19 17 16 16 16 14 13 12 10 10 9 9 12 8 6 6 5 3 6 4 3 6 8 1 4 3 2 1 6 7 6 7 6 6 5 5 4 3 3 2 4 4 5
20 19 18 17 16 13 13 6 6 15 10 11 10 8 6 6 4 4 1 3 2 4 2 2 6 6 5 2 7 2 5 6 6 8 4 4 1 3 4 2 2 3 5
21 20 20 16 16 14 9 7 6 4 6 7 8 9 8 6 5 1 3 3 2 0 4 1 3 6 4 4 5 9 3 1 8 7 6 4 4 4 1 2 2 2 4
23 20 20 18 16 14 9 11 8 10 11 12 12 8 7 7 6 5 5 3 4 5 3 2 2 7 8 5 3 6 6 5 4 4 7 5 6 7 2 6 2 4 3
25 21 20 19 17 15 14 9 10 14 9 12 8 8 4 8 7 7 6 5 4 4 3 2 1 7 7 9 4 3 3 2 3 11 0 10 5 4 2 1 4 5 2
26 21 21 19 18 15 12 11 9 10 7 0 8 7 12 9 9 6 7 5 5 6 2 4 3 3 7 8 8 6 6 10 13 8 3 3 4 3 1 2 3 4 7

GFSSE_925_spd_108.txt.gz
Wind_Speed
16 14 12 11 11 14 13 15 14 15 17 17 18 18 18 18 20 20 21 21 19 19 18 20 19 19 19 19 17 18 19 19 20 21 22 21 22 19 18 17 18 17 16
20 17 15 14 13 13 13 13 14 13 16 17 17 18 18 18 21 21 20 19 19 18 19 19 19 18 18 17 16 15 16 18 21 21 23 21 20 19 19 19 18 16 16
22 18 15 14 11 12 12 12 13 13 14 16 16 18 17 19 18 20 19 18 19 18 19 18 18 17 16 16 17 16 14 12 8 10 18 19 20 18 18 17 16 16 16
22 19 16 16 13 12 11 12 13 12 14 15 15 17 17 19 19 19 18 18 18 18 17 17 17 16 15 15 15 15 15 12 13 11 19 19 16 15 15 15 15 15 15
27 21 17 15 14 13 12 11 13 13 13 14 15 17 18 19 18 18 18 16 16 15 16 15 15 15 14 14 15 14 16 17 22 20 18 15 14 14 14 14 14 14 14
23 19 16 15 14 13 13 12 13 13 14 14 16 17 18 17 18 17 16 16 16 14 13 13 13 14 13 13 15 14 13 12 23 18 13 13 13 11 13 13 13 13 12
21 17 15 15 14 14 13 13 14 14 15 16 17 17 17 17 16 16 16 17 17 16 16 15 14 13 12 14 13 17 18 20 14 17 14 12 13 11 12 11 12 11 10
25 19 16 15 14 13 13 14 14 14 16 16 16 17 16 16 16 16 15 16 15 15 14 14 14 14 13 14 14 13 10 10 16 15 13 11 10 10 10 9 9 9 9
24 21 17 15 15 15 15 14 15 16 16 16 16 17 17 16 15 15 15 14 14 14 13 14 14 14 16 17 16 14 18 18 15 16 12 9 9 9 8 8 8 8 8
19 22 18 17 15 15 14 14 14 16 15 15 16 17 18 17 15 14 15 13 13 13 13 14 14 16 19 17 15 12 10 10 13 8 6 9 8 8 8 8 8 8 8
16 15 20 17 19 16 14 13 14 14 14 14 17 21 20 20 14 12 12 13 13 12 12 12 13 15 14 13 12 12 10 6 15 8 6 8 7 7 7 7 7 7 7
20 12 22 18 16 17 13 15 13 13 9 8 11 8 13 16 14 12 14 13 12 8 6 5 4 7 5 3 7 10 9 7 11 7 6 7 7 5 5 6 6 6 7
16 19 20 17 17 14 15 19 14 18 11 4 8 14 16 13 15 11 8 13 11 8 10 12 6 5 4 5 12 12 8 10 8 7 6 6 6 6 5 5 6 7 8
22 17 18 17 16 11 8 14 15 16 14 7 6 9 11 7 11 16 1 5 5 16 5 5 3 7 8 7 15 8 10 10 7 6 7 6 6 6 6 6 7 8 9
24 22 23 19 14 9 9 14 17 13 10 15 5 7 4 7 5 14 5 7 2 2 6 11 10 8 8 8 7 10 7 6 12 8 8 8 8 7 7 8 8 9 9
21 21 18 14 12 3 9 15 18 15 13 15 9 11 6 9 3 3 1 8 3 7 7 4 4 8 10 10 6 8 12 4 8 7 12 11 10 9 8 8 8 9 10
20 21 15 15 12 8 11 12 10 13 10 14 13 8 2 3 5 6 5 5 3 9 8 3 2 5 14 11 9 7 9 10 5 8 6 11 11 10 8 7 7 8 9
22 20 18 16 18 13 13 12 10 13 12 12 13 9 6 5 2 2 2 4 3 2 4 3 8 2 14 11 10 11 10 7 6 3 7 8 5 8 9 7 7 8 9
22 15 25 18 18 16 12 8 14 13 10 10 12 8 5 3 3 3 7 2 2 5 7 10 7 9 5 5 7 8 11 6 10 9 6 6 7 8 7 3 2 6 7
21 15 18 15 20 15 10 7 9 10 8 6 14 9 7 3 1 3 2 3 7 7 13 8 9 3 7 2 11 8 10 5 14 7 10 13 6 11 8 2 6 2 2
22 17 22 19 18 14 12 11 8 9 3 9 7 6 4 4 2 2 4 6 9 1 9 9 10 11 5 4 5 7 6 9 11 13 12 18 7 11 6 1 5 4 5
22 19 18 23 18 17 14 14 11 14 10 11 12 9 6 6 4 4 1 2 9 2 4 3 5 11 5 3 9 4 1 11 14 13 8 11 7 9 10 6 5 2 3
25 21 19 23 21 19 4 14 8 11 11 16 14 12 9 8 4 2 1 4 2 3 2 3 6 10 9 6 5 6 4 2 2 6 7 6 9 9 9 7 10 4 1
28 27 22 20 22 15 9 8 11 10 8 14 14 14 12 10 8 5 2 0 1 4 2 4 3 5 11 15 5 3 6 4 2 4 15 12 10 9 8 8 14 9 2
28 29 27 23 19 16 18 9 7 7 3 8 5 10 10 10 6 8 6 4 2 2 2 3 7 9 12 13 19 13 7 1 21 7 3 16 12 9 8 3 6 4 5
31 29 32 27 22 18 18 15 9 5 10 10 3 14 12 10 10 6 7 5 5 2 2 2 5 7 9 11 13 18 19 11 15 11 5 18 12 7 23 33 22 31 27

GFSSE_925_spd_111.txt.gz
Wind_Speed
15 15 15 15 14 15 15 15 15 16 16 16 18 19 20 22 22 23 23 22 21 22 21 20 20 20 19 20 20 20 21 22 22 22 22 19 18 16 16 16 16 16 16
21 18 17 17 16 15 16 15 15 16 16 16 20 19 21 21 21 20 20 21 21 20 20 19 19 18 18 17 19 21 22 22 22 21 20 19 18 18 17 16 16 16 16
23 20 18 17 15 15 15 15 15 15 17 16 19 21 21 20 19 20 20 20 20 19 18 18 16 17 16 17 17 17 15 16 16 18 20 21 18 17 16 15 15 15 15
25 20 19 15 15 14 15 14 14 15 16 16 19 21 19 20 18 19 19 19 20 18 18 17 15 16 16 16 16 14 13 10 17 15 17 17 15 15 14 15 14 14 14
24 21 20 16 16 14 13 14 14 14 15 16 18 19 18 18 17 17 17 17 18 17 17 16 14 15 16 17 15 18 17 21 18 16 13 15 16 14 14 13 13 12 11
23 22 20 17 15 15 13 14 14 14 15 16 18 18 17 17 17 17 17 15 15 14 14 14 12 15 16 17 17 16 16 15 15 14 13 14 14 13 11 11 10 9 9
23 21 19 18 16 16 15 15 14 15 15 16 17 17 17 17 17 17 17 17 16 15 15 13 13 15 17 17 16 19 18 15 13 15 17 15 13 11 12 10 9 8 8
26 21 19 17 17 16 15 15 16 15 16 16 16 16 16 16 16 17 16 16 15 14 13 13 14 16 18 17 17 15 18 11 13 14 13 12 12 11 10 8 7 7 7
25 21 19 18 17 16 15 15 15 16 16 17 17 17 16 15 14 15 14 14 13 12 12 13 14 16 17 17 18 18 19 15 13 13 11 11 9 9 8 7 7 6 6
25 23 20 20 18 18 16 15 16 16 15 14 15 15 16 14 13 14 14 14 14 14 13 12 11 13 15 14 13 13 15 15 13 8 9 10 9 8 7 7 6 6 5
27 23 22 21 19 15 18 15 15 14 15 15 13 14 16 16 14 12 12 12 12 11 11 12 10 7 6 8 10 8 7 10 10 8 9 9 8 7 6 6 6 5 5
21 24 22 25 17 17 19 19 19 18 18 15 17 15 12 10 6 9 11 10 8 7 7 8 4 7 5 3 4 10 14 16 8 6 7 8 7 6 6 6 5 5 5
28 26 21 22 19 19 19 18 15 14 12 7 13 12 11 11 11 7 3 4 3 3 3 10 12 7 6 9 6 8 14 11 4 6 7 7 7 7 6 6 5 6 6
25 22 21 18 19 18 18 16 18 17 17 8 13 9 14 8 7 7 5 5 10 2 2 11 9 3 4 3 8 12 10 10 5 7 8 8 8 7 7 6 6 6 6
28 23 23 16 15 11 14 18 16 15 11 15 15 12 15 13 7 8 8 6 5 7 3 7 9 7 3 5 9 11 11 10 8 9 9 9 9 8 8 6 5 6 7
24 29 22 16 11 7 19 24 18 14 15 12 13 10 12 12 5 4 1 7 4 6 8 6 4 4 4 8 8 12 9 7 6 10 11 11 10 9 7 6 6 6 7
33 29 23 19 12 18 18 18 18 18 11 9 12 13 10 8 5 2 4 8 8 5 1 1 6 10 9 11 11 13 10 9 5 7 10 10 10 8 7 6 5 5 7
28 20 19 18 12 16 13 11 17 11 17 11 9 7 9 8 4 4 2 3 4 7 4 5 6 5 14 12 11 12 10 9 9 8 9 7 6 7 6 4 4 5 6
25 21 21 18 15 14 12 9 9 14 13 13 10 8 3 4 3 4 5 3 3 3 4 7 4 13 12 11 12 14 14 7 9 6 9 7 7 6 4 1 2 3 4
25 21 20 21 17 14 11 8 11 8 9 10 12 9 7 4 2 2 4 2 2 5 7 10 11 9 7 3 7 12 13 11 7 11 10 9 10 8 8 3 7 7 4
23 27 20 22 19 16 11 8 14 11 3 16 11 8 8 4 2 2 7 8 4 5 9 9 12 15 9 8 7 6 8 10 12 14 8 10 9 9 8 4 6 5 5
28 26 23 23 18 15 12 10 8 12 15 15 10 8 7 5 3 1 3 4 4 4 6 8 11 15 8 9 5 4 3 4 9 13 15 13 15 8 14 8 10 7 5
29 27 28 25 19 17 6 11 7 8 11 12 11 9 9 7 4 1 1 2 1 5 3 7 9 12 16 17 5 2 2 1 3 2 6 13 28 32 31 26 25 17 11
31 31 30 23 21 18 10 11 11 11 7 9 8 11 11 8 7 3 3 1 2 4 2 5 8 11 14 18 12 11 17 19 3 4 19 23 28 32 28 31 32 33 13
34 32 30 27 23 17 15 12 14 11 9 7 6 10 9 8 7 8 6 5 2 3 1 4 6 7 11 13 18 20 25 26 18 8 3 19 24 17 18 23 31 25 15
31 31 33 29 24 21 15 15 10 8 9 5 6 5 7 10 10 8 8 6 5 5 3 2 3 4 6 9 12 14 12 8 8 11 4 15 16 13 13 5 25 22 14

GFSSE_925_spd_114.txt.gz
Wind_Speed
15 14 11 9 9 10 13 14 16 17 17 17 18 20 20 20 20 20 20 20 20 19 19 19 18 18 19 18 19 17 18 20 21 20 18 17 17 17 16 16 15 15 14
20 17 15 12 11 11 13 14 15 15 17 16 17 18 20 20 19 19 18 18 18 17 18 18 18 17 18 18 18 18 18 19 20 19 19 18 18 17 16 15 15 14 14
24 20 18 15 13 12 13 13 14 15 16 17 20 18 18 20 18 18 18 17 16 15 15 16 16 17 17 16 16 15 16 15 17 18 17 17 17 15 16 15 15 14 13
27 23 19 17 15 14 14 13 14 14 16 17 16 18 17 19 18 16 16 16 16 14 13 15 15 15 15 15 13 9 10 14 14 16 17 16 13 14 13 13 13 12 11
26 22 19 18 15 14 14 14 14 14 16 17 16 16 17 18 17 15 15 14 14 12 12 14 14 14 15 14 14 14 17 15 16 14 15 15 15 13 12 12 12 10 9
25 21 18 17 15 14 14 14 14 15 16 17 16 15 16 16 14 14 13 12 11 10 10 12 14 16 15 14 13 16 15 15 12 12 14 13 13 11 10 9 8 8 9
26 22 18 16 17 15 15 15 15 16 16 17 16 14 15 14 13 12 12 11 10 10 10 11 13 16 13 14 13 14 11 11 11 13 13 13 12 10 9 8 8 7 6
26 22 20 16 17 16 16 16 16 16 16 16 16 15 15 14 13 12 11 11 10 9 9 12 13 14 13 14 13 14 7 9 11 13 11 12 11 11 8 7 6 6 6
24 23 21 18 16 15 15 16 16 16 16 16 16 15 14 13 13 12 10 8 7 6 9 11 13 13 14 8 11 11 8 5 8 9 9 9 8 7 6 6 6 5 5
24 22 21 19 18 16 16 15 16 16 16 16 16 15 14 12 11 11 11 8 6 5 5 6 10 13 12 9 10 8 9 6 5 6 7 8 7 7 6 5 5 4 3
23 22 21 18 17 16 17 15 16 16 16 16 15 14 13 13 12 10 9 8 8 7 6 6 6 8 10 10 9 8 9 7 5 6 6 7 7 6 5 5 4 3 2
25 24 20 19 18 18 18 17 17 16 16 18 18 15 14 10 9 8 6 5 3 3 4 4 6 6 6 5 3 3 7 13 9 6 6 6 6 6 5 4 3 3 2
27 24 21 19 18 17 19 21 20 17 14 15 16 14 12 11 9 7 5 4 3 5 7 7 5 8 4 3 3 3 6 12 7 5 5 5 5 5 4 3 2 2 3
27 26 23 20 19 17 19 19 18 15 13 12 13 12 13 13 9 8 8 5 2 5 6 7 6 3 5 6 7 3 3 9 4 4 4 4 4 4 3 2 2 3 4
26 24 23 19 18 15 15 14 15 12 9 13 13 10 10 9 9 5 3 4 4 5 7 8 8 7 6 1 4 7 12 10 2 4 5 4 4 3 3 2 3 4 6
27 25 22 20 16 17 12 12 15 11 14 13 11 9 7 5 7 2 2 2 4 6 9 7 8 7 7 1 5 7 7 7 2 5 5 5 4 3 3 3 5 6 7
30 27 21 18 11 14 19 18 14 13 14 13 10 10 7 6 2 1 3 4 7 6 4 6 6 9 6 3 7 5 7 4 2 3 4 4 4 4 3 3 4 6 7
32 26 22 19 18 17 21 19 16 15 13 13 15 10 10 7 3 4 2 4 4 5 5 7 6 5 5 4 4 8 6 6 2 2 4 1 2 1 1 4 6 7 8
32 28 24 21 21 18 15 16 14 12 13 13 11 10 7 4 4 3 5 6 2 1 6 10 9 7 13 11 7 8 9 7 7 4 6 4 5 6 6 7 7 8 9
30 27 23 21 19 17 14 11 10 15 12 14 10 9 8 6 3 4 3 2 6 7 9 11 11 12 5 6 9 13 16 8 9 8 7 6 7 13 19 17 17 18 13
28 27 23 19 19 19 13 9 14 13 11 14 12 12 9 6 2 3 5 4 3 8 11 13 16 15 15 8 1 6 9 12 11 9 8 8 6 10 10 10 13 13 10
33 29 25 23 21 18 12 11 15 12 10 16 10 9 7 5 3 2 4 4 4 5 8 12 15 15 14 11 3 2 2 2 16 5 5 19 18 17 11 8 10 12 10
33 31 28 27 22 18 14 10 10 11 13 11 9 9 9 7 4 1 2 3 3 5 5 10 12 15 18 20 10 4 2 1 3 9 19 17 18 14 15 13 10 7 9
34 31 29 26 21 18 12 12 12 13 15 12 12 11 10 9 6 4 3 2 1 3 3 8 11 13 15 14 12 14 10 5 2 1 2 9 11 12 7 3 9 11 13
34 34 32 27 23 19 13 11 10 12 12 11 10 11 10 9 8 7 7 5 4 1 2 4 7 8 12 13 14 6 7 7 6 3 3 5 3 9 7 9 18 19 20
31 33 32 29 25 22 17 11 12 11 11 12 10 10 13 10 7 6 8 7 6 3 0 0 2 4 7 8 9 10 3 2 2 1 2 3 6 3 9 11 12 19 16

GFSSE_925_spd_117.txt.gz
Wind_Speed
15 9 6 7 9 11 13 15 16 17 16 19 18 17 17 18 18 17 16 15 15 15 15 16 16 15 15 15 15 15 17 16 16 15 16 15 15 14 14 13 13 14 13
13 11 9 9 9 11 13 14 16 16 16 18 17 18 16 16 16 17 16 14 15 15 15 14 16 16 15 15 15 16 17 18 17 15 14 14 14 13 13 12 13 12 11
14 11 11 11 11 12 13 13 16 16 16 17 17 15 15 15 14 14 15 13 13 14 13 14 14 15 14 14 15 15 15 15 14 14 16 15 13 13 12 12 11 11 10
17 14 12 10 11 12 12 14 15 15 17 15 15 14 14 14 13 13 13 12 11 11 13 13 12 12 12 10 9 11 12 14 13 14 14 12 11 11 11 10 11 9 8
18 16 14 11 11 11 12 13 14 16 15 16 14 14 14 13 12 12 12 12 11 11 11 11 10 11 10 10 9 12 10 9 11 11 12 11 11 10 10 9 8 7 7
20 16 14 11 11 11 11 12 13 15 14 14 14 13 12 11 11 11 11 10 10 9 9 9 10 9 9 10 12 12 10 9 8 10 10 11 10 8 7 6 5 6 5
21 17 15 13 11 12 12 13 14 14 14 14 13 13 12 11 10 9 8 7 7 7 7 8 9 9 10 9 9 9 6 6 7 8 8 8 8 6 5 5 4 3 2
22 18 15 14 11 12 12 13 14 15 15 14 12 12 11 11 10 10 8 7 7 6 5 6 8 9 9 9 9 7 7 5 7 7 6 6 7 6 5 3 4 3 2
20 18 15 14 12 12 12 13 13 13 14 13 12 11 10 10 10 9 8 7 6 6 6 5 7 8 7 8 7 4 3 4 3 3 4 4 3 1 2 3 3 2 2
19 18 16 16 14 14 13 13 12 12 13 13 11 9 10 9 9 8 9 6 6 7 8 7 7 8 6 6 5 4 1 2 2 0 2 2 2 2 2 2 2 3 3
18 18 16 16 15 14 14 13 12 12 12 11 10 9 10 10 8 7 8 6 7 8 8 7 5 4 3 4 2 1 0 5 5 3 1 2 2 2 2 2 3 4 5
19 19 17 16 15 15 15 15 14 14 13 13 11 10 8 8 7 7 7 7 6 5 4 3 2 1 1 2 3 5 7 9 7 4 1 1 1 2 2 3 4 4 5
22 20 18 17 16 16 15 16 15 14 13 13 12 8 7 6 6 4 4 3 3 4 5 4 3 6 7 7 6 6 8 5 5 4 2 1 1 2 2 1 2 4 6
23 19 18 17 17 16 17 17 16 14 13 12 10 9 6 5 5 3 0 2 7 6 6 5 2 5 7 8 8 4 4 3 3 3 3 3 3 2 1 1 3 6 7
23 20 19 17 16 17 17 15 14 11 10 10 9 7 8 4 3 1 4 3 6 7 8 7 7 8 7 8 4 7 9 6 3 3 5 4 3 2 1 3 5 7 8
22 23 20 18 16 17 15 14 13 10 11 11 9 9 6 2 3 3 5 6 6 9 9 7 8 7 7 7 3 3 6 3 2 3 5 4 2 1 2 5 7 8 10
24 24 22 18 17 16 14 14 12 11 14 13 9 8 5 4 3 4 8 7 7 7 5 8 8 5 4 1 3 2 4 4 3 3 2 2 3 2 3 5 7 9 9
26 26 23 20 18 19 19 13 12 12 12 14 10 8 7 5 5 7 6 7 6 9 8 8 8 1 2 3 3 3 3 4 3 2 2 3 3 5 6 7 9 10 9
28 27 25 19 17 15 18 16 12 13 10 14 9 10 8 5 7 7 5 4 6 8 10 9 9 3 8 4 4 3 6 5 5 6 7 8 8 10 9 10 10 11 8
30 27 23 21 19 18 16 17 11 13 12 12 10 9 8 5 3 4 4 3 5 8 9 10 9 6 3 6 8 9 10 6 4 5 5 6 7 7 8 8 7 7 5
31 28 26 24 21 19 17 16 13 14 10 11 8 7 7 7 3 2 6 6 6 7 9 11 9 8 10 5 0 2 2 3 5 5 4 4 5 4 6 7 7 4 3
34 30 30 26 23 20 16 16 15 14 13 13 9 9 8 6 4 2 4 5 5 6 7 9 11 11 11 7 3 4 2 4 8 7 7 6 5 3 4 1 3 4 5
31 33 31 26 26 23 15 15 16 14 11 15 10 10 8 7 5 3 2 3 4 4 6 8 10 11 6 11 8 3 2 2 1 2 6 7 3 2 2 3 4 5 5
33 32 29 29 27 23 19 16 17 16 17 15 12 9 7 6 6 4 3 1 3 3 5 5 6 9 7 6 8 6 3 3 2 2 7 4 4 4 5 6 9 10 9
30 34 30 28 26 22 20 17 16 16 16 14 13 10 8 8 8 7 6 5 2 2 4 4 4 6 7 9 5 2 2 2 3 3 2 5 11 12 7 11 13 12 12
29 29 32 30 27 24 20 17 16 17 17 15 13 12 11 11 9 6 11 8 6 4 3 4 3 3 4 5 4 3 2 1 1 1 1 3 5 4 8 10 10 16 15

GFSSE_925_spd_120.txt.gz
Wind_Speed
12 6 7 9 10 8 11 15 15 17 18 19 20 19 15 16 16 15 14 15 15 15 15 16 15 14 14 14 13 14 15 15 15 16 15 15 14 14 14 15 15 13 12
13 9 9 10 11 12 11 13 15 16 17 18 19 17 16 15 15 14 14 14 14 15 15 14 15 15 15 14 16 16 16 15 15 14 15 15 14 14 14 14 13 12 11
14 11 9 9 10 12 13 14 15 16 17 16 17 15 14 14 13 13 13 14 14 14 13 15 15 15 15 15 15 15 14 14 15 15 16 14 14 14 14 13 13 12 11
13 12 10 9 10 12 12 14 15 15 15 15 14 14 13 13 13 12 13 12 13 13 13 13 13 14 12 11 12 15 14 13 12 14 14 13 12 12 14 12 11 10 9
13 12 9 8 9 11 12 13 14 14 15 14 13 14 13 13 12 11 12 12 12 11 12 12 11 14 14 12 10 11 10 11 10 12 12 12 12 11 12 9 9 8 8
13 12 9 8 9 10 11 12 13 12 13 13 12 13 13 12 11 12 12 11 11 11 10 10 10 14 13 14 12 11 9 8 9 10 11 11 10 8 8 7 7 6 5
14 11 9 8 8 10 10 12 12 12 12 11 11 11 10 10 10 9 9 11 10 10 10 9 10 11 11 11 12 9 7 8 8 9 9 9 9 7 7 7 6 5 4
14 12 9 7 9 9 10 11 12 11 11 10 10 10 10 10 11 10 10 10 11 10 9 9 9 9 10 11 9 9 9 8 8 7 6 7 8 6 6 6 6 6 5
13 11 11 8 9 9 10 11 12 11 11 10 10 9 10 11 11 10 10 10 10 10 9 9 7 8 8 7 7 6 8 8 7 4 4 4 3 4 4 5 5 5 5
14 11 13 11 11 11 10 11 12 11 10 9 9 9 11 10 10 10 11 10 10 10 9 8 7 6 6 6 7 7 5 6 6 4 2 3 3 3 4 5 6 6 6
14 13 12 11 11 11 12 11 10 10 9 9 8 8 8 9 9 10 11 10 9 9 11 9 6 4 3 4 4 5 6 6 5 3 1 3 3 4 5 6 5 6 7
15 15 12 11 11 12 13 12 12 11 11 10 9 7 8 8 8 8 10 9 8 7 7 7 5 2 1 2 3 4 6 6 4 3 1 2 3 4 4 5 6 6 7
17 16 14 13 12 12 11 12 12 12 11 11 9 7 7 6 6 6 5 6 7 5 5 4 1 1 2 4 4 5 5 4 3 2 2 2 3 3 3 3 5 6 7
18 16 14 13 12 11 13 12 12 11 11 11 9 7 5 4 4 4 3 4 6 7 7 5 3 4 5 5 7 5 5 4 4 2 2 3 2 2 3 4 5 7 9
17 16 15 14 14 12 12 12 12 11 10 9 7 5 4 3 1 4 6 5 8 8 7 6 5 5 7 7 4 5 5 3 4 3 3 2 2 1 3 5 7 8 10
18 17 16 16 14 15 14 12 12 10 9 9 8 6 4 1 2 3 5 6 7 7 6 6 6 6 7 6 3 5 7 5 5 4 4 3 2 3 4 5 7 8 8
21 20 19 17 16 14 12 11 10 8 10 9 8 6 3 3 3 6 6 7 7 6 5 4 3 2 4 4 5 4 6 6 4 4 3 2 2 3 4 6 7 7 7
23 23 21 19 16 14 13 11 10 8 10 8 8 7 6 4 5 6 7 8 9 8 8 7 6 5 5 3 3 4 4 1 2 3 4 4 6 6 7 9 10 9 8
25 25 22 19 18 18 17 13 9 9 9 11 7 7 7 6 5 5 6 8 8 7 10 8 7 4 3 3 0 5 0 2 4 5 6 6 7 9 8 9 9 7 6
25 24 21 19 16 17 21 16 10 11 8 11 8 9 6 6 4 3 3 6 6 6 10 9 9 6 4 1 3 2 2 2 3 4 6 5 5 8 7 6 7 8 5
24 25 24 20 19 20 22 19 12 12 11 9 8 6 6 6 4 2 4 6 6 5 9 8 6 6 5 3 4 8 8 3 3 4 5 4 5 7 7 6 5 5 5
27 27 24 22 22 21 20 19 14 13 12 10 6 7 6 6 4 4 4 6 5 4 6 7 5 3 6 5 3 4 2 2 4 1 2 1 3 5 4 3 2 4 4
28 29 27 25 23 21 18 18 14 14 11 9 9 9 7 6 6 4 3 5 4 5 5 7 7 5 3 7 6 3 2 2 2 2 2 1 3 4 4 5 3 7 11
30 30 28 27 25 22 18 17 20 17 12 13 12 9 8 7 6 4 3 3 2 3 4 4 5 6 3 4 6 8 4 3 2 3 5 7 8 11 8 9 8 11 10
30 31 29 29 27 25 20 17 20 17 15 15 13 11 9 9 7 7 4 4 3 2 3 2 3 3 4 5 3 2 3 3 3 2 3 5 7 8 4 7 7 10 8
25 29 30 29 28 27 23 21 19 17 17 15 14 12 12 11 10 10 9 6 5 3 3 4 3 2 1 2 3 2 2 2 1 3 2 2 6 4 4 6 10 13 14